[[{"header":{"parameterUnit":"m.s-1","parameterCategory":1,"la1":30.6,"la2":28.766,"lo1":-90.7593,"lo2":-88.6598,"dy":0.0162,"dx":0.0183,"nx":116,"ny":114,"refTime":"2024-05-17T06:00:00:Z","depth":0,"parameterNumber":2,"parameterNumberName":"U-component_of_WINDS"},"data":[0.0,0.0,0.0,0.0,0.0,0.0,0.0,0.0,0.0,0.0,0.0,0.0,0.0,0.0,0.0,0.0,0.0,0.0,0.0,0.0,0.0,0.0,0.0,0.0,0.0,0.0,0.0,0.0,0.0,0.0,0.0,0.0,0.0,0.0,0.0,0.0,0.0,0.0,0.0,0.0,0.0,0.0,0.0,0.0,0.0,0.0,0.0,0.0,0.0,0.0,0.0,0.0,0.0,0.0,0.0,0.0,0.0,0.0,0.0,0.0,0.0,0.0,0.0,0.0,0.0,0.0,0.0,0.0,0.0,0.0,0.0,0.0,0.0,0.0,0.0,0.0,0.0,0.0,0.0,0.0,0.0,0.0,0.0,0.0,0.0,0.0,0.0,0.0,0.0,0.0,0.0,0.0,0.0,0.0,0.0,0.0,0.0,0.0,0.0,0.0,0.0,0.0,0.0,0.0,0.0,0.0,0.0,0.0,0.0,0.0,0.0,0.0,0.0,0.0,0.0,0.0,0.0,0.0,0.0,0.0,0.0,0.0,0.0,0.0,0.0,0.0,0.0,0.0,0.0,0.0,0.0,0.0,0.0,0.0,0.0,0.0,0.0,0.0,0.0,0.0,0.0,0.0,0.0,0.0,0.0,0.0,0.0,0.0,0.0,0.0,0.0,0.0,0.0,0.0,0.0,0.0,0.0,0.0,0.0,0.0,0.0,0.0,0.0,0.0,0.0,0.0,0.0,0.0,0.0,0.0,0.0,0.0,0.0,0.0,0.0,0.0,0.0,0.0,0.0,0.0,0.0,0.0,0.0,0.0,0.0,0.0,0.0,0.0,0.0,0.0,0.0,0.0,0.0,0.0,0.0,0.0,0.0,0.0,0.0,0.0,0.0,0.0,0.0,0.0,0.0,0.0,0.0,0.0,0.0,0.0,0.0,0.0,0.0,0.0,0.0,0.0,0.0,0.0,0.0,0.0,0.0,0.0,0.0,0.0,0.0,0.0,0.0,0.0,0.0,0.0,0.0,0.0,0.0,0.0,0.0,0.0,0.0,0.0,0.0,0.0,0.0,0.0,0.0,0.0,0.0,0.0,0.0,0.0,0.0,0.0,0.0,0.0,0.0,0.0,0.0,0.0,0.0,0.0,0.0,0.0,0.0,0.0,0.0,0.0,0.0,0.0,0.0,0.0,0.0,0.0,0.0,0.0,0.0,0.0,0.0,0.0,0.0,0.0,0.0,0.0,0.0,0.0,0.0,0.0,0.0,0.0,0.0,0.0,0.0,0.0,0.0,0.0,0.0,0.0,0.0,0.0,0.0,0.0,0.0,0.0,0.0,0.0,0.0,0.0,0.0,0.0,0.0,0.0,0.0,0.0,0.0,0.0,0.0,0.0,0.0,0.0,0.0,0.0,0.0,0.0,0.0,0.0,0.0,0.0,0.0,0.0,0.0,0.0,0.0,0.0,0.0,0.0,0.0,0.0,0.0,0.0,0.0,0.0,0.0,0.0,0.0,0.0,0.0,0.0,0.0,0.0,0.0,0.0,0.0,0.0,0.0,0.0,0.0,0.0,0.0,0.0,0.0,0.0,0.0,0.0,0.0,0.0,0.0,0.0,0.0,0.0,0.0,0.0,0.0,0.0,0.0,0.0,0.0,0.0,0.0,0.0,0.0,0.0,0.0,0.0,0.0,0.0,0.0,0.0,0.0,0.0,0.0,0.0,0.0,0.0,0.0,0.0,0.0,0.0,0.0,0.0,0.0,0.0,0.0,0.0,0.0,0.0,0.0,0.0,0.0,0.0,0.0,0.0,0.0,0.0,0.0,0.0,0.0,0.0,0.0,0.0,0.0,0.0,0.0,0.0,0.0,0.0,0.0,0.0,0.0,0.0,0.0,0.0,0.0,0.0,0.0,0.0,0.0,0.0,0.0,0.0,0.0,0.0,0.0,0.0,0.0,0.0,0.0,0.0,0.0,0.0,0.0,0.0,0.0,0.0,0.0,0.0,0.0,0.0,0.0,0.0,0.0,0.0,0.0,0.0,0.0,0.0,0.0,0.0,0.0,0.0,0.0,0.0,0.0,0.0,0.0,0.0,0.0,0.0,0.0,0.0,0.0,0.0,0.0,0.0,0.0,0.0,0.0,0.0,0.0,0.0,0.0,0.0,0.0,0.0,0.0,0.0,0.0,0.0,0.0,0.0,0.0,0.0,0.0,0.0,0.0,0.0,0.0,0.0,0.0,0.0,0.0,0.0,0.0,0.0,0.0,0.0,0.0,0.0,0.0,0.0,0.0,0.0,0.0,0.0,0.0,0.0,0.0,0.0,0.0,0.0,0.0,0.0,0.0,0.0,0.0,0.0,0.0,0.0,0.0,0.0,0.0,0.0,0.0,0.0,0.0,0.0,0.0,0.0,0.0,0.0,0.0,0.0,0.0,0.0,0.0,0.0,0.0,0.0,0.0,0.0,0.0,0.0,0.0,0.0,0.0,0.0,0.0,0.0,0.0,0.0,0.0,0.0,0.0,0.0,0.0,0.0,0.0,0.0,0.0,0.0,0.0,0.0,0.0,0.0,0.0,0.0,0.0,0.0,0.0,0.0,0.0,0.0,0.0,0.0,0.0,0.0,0.0,0.0,0.0,0.0,0.0,0.0,0.0,0.0,0.0,0.0,0.0,0.0,0.0,0.0,0.0,0.0,0.0,0.0,0.0,0.0,0.0,0.0,0.0,0.0,0.0,0.0,0.0,0.0,0.0,0.0,0.0,0.0,0.0,0.0,0.0,0.0,0.0,0.0,0.0,0.0,0.0,0.0,0.0,0.0,0.0,0.0,0.0,0.0,0.0,0.0,0.0,0.0,0.0,0.0,0.0,0.0,0.0,0.0,0.0,0.0,0.0,0.0,0.0,0.0,0.0,0.0,0.0,0.0,0.0,0.0,0.0,0.0,0.0,0.0,0.0,0.0,0.0,0.0,0.0,0.0,0.0,0.0,0.0,0.0,0.0,0.0,0.0,0.0,0.0,0.0,0.0,0.0,0.0,0.0,0.0,0.0,0.0,0.0,0.0,0.0,0.0,0.0,0.0,0.0,0.0,0.0,0.0,0.0,0.0,0.0,0.0,0.0,0.0,0.0,0.0,0.0,0.0,0.0,0.0,0.0,0.0,0.0,0.0,0.0,0.0,0.0,0.0,0.0,0.0,0.0,0.0,0.0,0.0,0.0,0.0,0.0,0.0,0.0,0.0,0.0,0.0,0.0,0.0,0.0,0.0,0.0,0.0,0.0,0.0,0.0,0.0,0.0,0.0,0.0,0.0,0.0,0.0,0.0,0.0,0.0,0.0,0.0,0.0,0.0,0.0,0.0,0.0,0.0,0.0,0.0,0.0,0.0,0.0,0.0,0.0,0.0,0.0,0.0,0.0,0.0,0.0,0.0,0.0,0.0,0.0,0.0,0.0,0.0,0.0,0.0,0.0,0.0,0.0,0.0,0.0,0.0,0.0,0.0,0.0,0.0,0.0,0.0,0.0,0.0,0.0,0.0,0.0,0.0,0.0,0.0,0.0,0.0,0.0,0.0,0.0,0.0,0.0,0.0,0.0,0.0,0.0,0.0,0.0,0.0,0.0,0.0,0.0,0.0,0.0,0.0,0.0,0.0,0.0,0.0,0.0,0.0,0.0,0.0,0.0,0.0,0.0,0.0,0.0,0.0,0.0,0.0,0.0,0.0,0.0,0.0,0.0,0.0,0.0,0.0,0.0,0.0,0.0,0.0,0.0,0.0,0.0,0.0,0.0,0.0,0.0,0.0,0.0,0.0,0.0,0.0,0.0,0.0,0.0,0.0,0.0,0.0,0.0,0.0,0.0,0.0,0.0,0.0,0.0,0.0,0.0,0.0,0.0,0.0,0.0,0.0,0.0,0.0,0.0,0.0,0.0,0.0,0.0,0.0,0.0,0.0,0.0,0.0,0.0,0.0,0.0,0.0,0.0,0.0,0.0,0.0,0.0,0.0,0.0,0.0,0.0,0.0,0.0,0.0,0.0,0.0,0.0,0.0,0.0,0.0,0.0,0.0,0.0,0.0,0.0,0.0,0.0,0.0,0.0,0.0,0.0,0.0,0.0,0.0,0.0,0.0,0.0,0.0,0.0,0.0,0.0,0.0,0.0,0.0,0.0,0.0,0.0,0.0,0.0,0.0,0.0,0.0,0.0,0.0,0.0,0.0,0.0,0.0,0.0,0.0,0.0,0.0,0.0,0.0,0.0,0.0,0.0,0.0,0.0,0.0,0.0,0.0,0.0,0.0,0.0,0.0,0.0,0.0,0.0,0.0,0.0,0.0,0.0,0.0,0.0,0.0,0.0,0.0,0.0,0.0,0.0,0.0,0.0,0.0,0.0,0.0,0.0,0.0,0.0,0.0,0.0,0.0,0.0,0.0,0.0,0.0,0.0,0.0,0.0,0.0,0.0,0.0,0.0,0.0,0.0,0.0,0.0,0.0,0.0,0.0,0.0,0.0,0.0,0.0,0.0,0.0,0.0,0.0,0.0,0.0,0.0,0.0,0.0,0.0,0.0,0.0,0.0,0.0,0.0,0.0,0.0,0.0,0.0,0.0,0.0,0.0,0.0,0.0,0.0,0.0,0.0,0.0,0.0,0.0,0.0,0.0,0.0,0.0,0.0,0.0,0.0,0.0,0.0,0.0,0.0,0.0,0.0,0.0,0.0,0.0,0.0,0.0,0.0,0.0,0.0,0.0,0.0,0.0,0.0,0.0,0.0,0.0,0.0,0.0,0.0,0.0,0.0,0.0,0.0,0.0,0.0,0.0,0.0,0.0,0.0,0.0,0.0,0.0,0.0,0.0,0.0,0.0,0.0,0.0,0.0,0.0,0.0,0.0,0.0,0.0,0.0,0.0,0.0,0.0,0.0,0.0,0.0,0.0,0.0,0.0,0.0,0.0,0.0,0.0,0.0,0.0,0.0,0.0,0.0,0.0,0.0,0.0,0.0,0.0,0.0,0.0,0.0,0.0,0.0,0.0,0.0,0.0,0.0,0.0,0.0,0.0,0.0,0.0,0.0,0.0,0.0,0.0,0.0,0.0,0.0,0.0,0.0,0.0,0.0,0.0,0.0,0.0,0.0,0.0,0.0,0.0,0.0,0.0,0.0,0.0,0.0,0.0,0.0,0.0,0.0,0.0,0.0,0.0,0.0,0.0,0.0,0.0,0.0,0.0,0.0,0.0,0.0,0.0,0.0,0.0,0.0,0.0,0.0,0.0,0.0,0.0,0.0,0.0,0.0,0.0,0.0,0.0,0.0,0.0,0.0,0.0,0.0,0.0,0.0,0.0,0.0,0.0,0.0,0.0,0.0,0.0,0.0,0.0,0.0,0.0,0.0,0.0,0.0,0.0,0.0,0.0,0.0,0.0,0.0,0.0,0.0,0.0,0.0,0.0,0.0,0.0,0.0,0.0,0.0,0.0,0.0,0.0,0.0,0.0,0.0,0.0,0.0,0.0,0.0,0.0,0.0,0.0,0.0,0.0,0.0,0.0,0.0,0.0,0.0,0.0,0.0,0.0,0.0,0.0,0.0,0.0,0.0,0.0,0.0,0.0,0.0,0.0,0.0,0.0,0.0,0.0,0.0,0.0,0.0,0.0,0.0,0.0,0.0,0.0,0.0,0.0,0.0,0.0,0.0,0.0,0.0,0.0,0.0,0.0,0.0,0.0,0.0,0.0,0.0,0.0,0.0,0.0,0.0,0.0,0.0,0.0,0.0,0.0,0.0,0.0,0.0,0.0,0.0,0.0,0.0,0.0,0.0,0.0,0.0,0.0,0.0,0.0,0.0,0.0,0.0,0.0,0.0,0.0,0.0,0.0,0.0,0.0,0.0,0.0,0.0,0.0,0.0,0.0,0.0,0.0,0.0,0.0,0.0,0.0,0.0,0.0,0.0,0.0,0.0,0.0,0.0,0.0,0.0,0.0,0.0,0.0,0.0,0.0,0.0,0.0,0.0,0.0,0.0,0.0,0.0,0.0,0.0,0.0,0.0,0.0,0.0,0.0,0.0,0.0,0.0,0.0,0.0,0.0,0.0,0.0,0.0,0.0,0.0,0.0,-2.4662,0.0,0.0,0.0,0.0,0.0,0.0,0.0,0.0,0.0,0.0,0.0,0.0,0.0,0.0,0.0,0.0,0.0,0.0,0.0,0.0,0.0,0.0,0.0,0.0,-2.1795,-2.2328,-2.3608,-2.4058,-2.4348,-2.4559,0.0,0.0,0.0,0.0,0.0,-1.8307,-1.7246,-1.6515,-1.61,-1.6724,-1.7909,-1.9594,-2.039,-2.0049,-1.8837,0.0,0.0,0.0,0.0,0.0,0.0,0.0,0.0,0.0,0.0,0.0,0.0,0.0,0.0,0.0,0.0,0.0,0.0,0.0,0.0,0.0,0.0,0.0,0.0,0.0,0.0,0.0,0.0,0.0,0.0,0.0,0.0,0.0,0.0,0.0,0.0,0.0,0.0,0.0,0.0,0.0,0.0,0.0,0.0,0.0,0.0,0.0,0.0,0.0,0.0,0.0,0.0,0.0,0.0,0.0,0.0,0.0,0.0,0.0,0.0,0.0,0.0,0.0,0.0,0.0,0.0,0.0,0.0,0.0,0.0,0.0,-2.4921,0.0,0.0,0.0,0.0,0.0,0.0,0.0,0.0,0.0,0.0,0.0,0.0,0.0,0.0,0.0,0.0,0.0,0.0,0.0,0.0,0.0,-1.9113,-2.1734,-2.2029,-2.274,-2.4469,-2.4522,-2.4665,-2.5136,-2.479,0.0,0.0,0.0,-1.9919,-1.8154,-1.7127,-1.6555,-1.6473,-1.7695,-1.9574,-2.2145,-2.3523,-2.2719,-2.0074,-1.9626,0.0,0.0,0.0,0.0,0.0,0.0,0.0,0.0,0.0,0.0,0.0,0.0,0.0,0.0,0.0,0.0,0.0,0.0,0.0,0.0,0.0,0.0,0.0,0.0,0.0,0.0,0.0,0.0,0.0,0.0,0.0,0.0,0.0,0.0,0.0,0.0,0.0,0.0,0.0,0.0,0.0,0.0,0.0,0.0,0.0,0.0,0.0,0.0,0.0,0.0,0.0,0.0,0.0,0.0,0.0,0.0,0.0,0.0,0.0,0.0,0.0,0.0,0.0,-2.5678,-2.5521,-2.5058,-2.5179,-2.5328,-2.5586,-2.4741,-2.4515,-2.481,-2.4141,0.0,0.0,0.0,0.0,0.0,0.0,0.0,0.0,0.0,0.0,0.0,0.0,0.0,0.0,0.0,0.0,0.0,0.0,0.0,-2.003,-2.2633,-2.2927,-2.3631,-2.5388,-2.5504,-2.5363,-2.505,-2.4636,0.0,0.0,-2.1837,-2.0623,-1.8986,-1.8679,-1.8347,-1.799,-2.1018,-2.3206,-2.4562,-2.504,-2.4799,-2.395,-2.3421,-2.2967,-2.2586,0.0,0.0,0.0,0.0,0.0,0.0,0.0,0.0,0.0,0.0,0.0,0.0,0.0,0.0,0.0,0.0,0.0,0.0,0.0,0.0,0.0,0.0,0.0,0.0,0.0,0.0,0.0,0.0,0.0,0.0,0.0,0.0,0.0,0.0,0.0,0.0,0.0,0.0,0.0,0.0,0.0,-2.6751,-2.8174,0.0,0.0,0.0,0.0,0.0,0.0,0.0,0.0,0.0,0.0,0.0,0.0,0.0,-2.4932,-2.6247,-2.5536,-2.5568,-2.6422,-2.6341,-2.6135,-2.5696,-2.4976,-2.4868,-2.5093,-2.4022,0.0,-2.4546,-2.4098,0.0,0.0,0.0,0.0,0.0,0.0,0.0,0.0,0.0,0.0,0.0,0.0,0.0,0.0,0.0,0.0,0.0,0.0,0.0,0.0,0.0,-2.3495,-2.4295,-2.5583,-2.6074,-2.5905,-2.4898,-2.4712,-2.3933,-2.2384,-2.128,-2.0206,-1.92,-1.9686,-2.0744,-2.2276,-2.4615,-2.6118,-2.6742,-2.7207,-2.7142,-2.663,-2.6204,-2.4843,-2.2757,-2.2288,0.0,0.0,0.0,0.0,0.0,0.0,0.0,0.0,0.0,0.0,0.0,0.0,0.0,0.0,0.0,0.0,0.0,0.0,0.0,0.0,0.0,0.0,0.0,0.0,0.0,0.0,0.0,0.0,0.0,0.0,0.0,0.0,0.0,0.0,0.0,0.0,0.0,0.0,0.0,-2.6276,-2.8655,-2.9004,-2.9932,-2.9781,0.0,0.0,0.0,0.0,0.0,0.0,0.0,0.0,0.0,-2.6068,-2.5664,-2.5672,-2.6044,-2.6193,-2.6375,-2.6532,-2.6955,-2.6998,-2.6476,-2.5645,-2.5386,-2.574,-2.4727,-2.423,-2.4126,-2.3702,-2.263,-2.1189,0.0,0.0,0.0,0.0,-1.9326,-1.8768,0.0,0.0,0.0,0.0,0.0,0.0,0.0,0.0,0.0,0.0,0.0,0.0,-2.3185,-2.4122,-2.4998,-2.5935,-2.6519,-2.6298,-2.5053,-2.4618,-2.3629,-2.1814,-2.0734,-1.9929,-1.9441,-2.0828,-2.2933,-2.5826,-2.7623,-2.8699,-2.911,-2.9651,-2.9589,-2.8958,-2.8483,-2.6612,-2.3791,-2.3456,-2.24,0.0,0.0,0.0,0.0,0.0,0.0,0.0,0.0,0.0,0.0,0.0,0.0,0.0,0.0,0.0,0.0,0.0,0.0,0.0,0.0,0.0,0.0,0.0,0.0,0.0,0.0,0.0,0.0,0.0,0.0,0.0,0.0,0.0,0.0,0.0,0.0,0.0,0.0,-2.7965,-2.992,-3.0208,-3.1469,-3.1358,0.0,0.0,0.0,0.0,0.0,0.0,-2.7382,-2.8053,-2.7953,-2.6934,-2.6812,-2.6618,-2.6249,-2.711,-2.7236,-2.6731,-2.7642,-2.7677,-2.7048,-2.6135,-2.5663,-2.5576,-2.4602,-2.3956,-2.345,-2.3421,-2.2492,-2.1149,-2.1142,-2.0643,-1.9883,-2.0069,-1.9653,-1.898,0.0,0.0,0.0,0.0,0.0,0.0,0.0,0.0,0.0,0.0,0.0,-2.2214,-2.395,-2.4983,-2.5886,-2.677,-2.6864,-2.6535,-2.5695,-2.4216,-2.2676,-2.1108,-2.0555,-2.0223,-2.006,-2.2348,-2.4648,-2.6914,-2.9434,-3.1011,-3.1741,-3.244,-3.2188,-3.1102,-3.0269,-2.9021,-2.7482,-2.5408,-2.4403,-2.3999,0.0,0.0,0.0,0.0,0.0,0.0,0.0,0.0,0.0,0.0,0.0,0.0,0.0,0.0,0.0,0.0,0.0,0.0,0.0,0.0,0.0,0.0,0.0,0.0,0.0,0.0,0.0,0.0,0.0,0.0,0.0,0.0,0.0,0.0,0.0,0.0,0.0,0.0,0.0,-3.3023,-3.2368,0.0,0.0,0.0,0.0,-2.8356,-3.0289,-3.0496,-2.8337,-2.9403,-2.9361,-2.79,-2.7411,-2.7289,-2.738,-2.8009,-2.8028,-2.7418,-2.8353,-2.816,-2.6877,-2.6045,-2.5044,-2.3771,-2.2655,-2.2368,-2.2675,-2.3605,-2.3138,-2.1996,-2.2031,-2.1639,-2.0861,-2.0311,-1.966,-1.8822,0.0,0.0,0.0,0.0,0.0,-1.6422,-1.7277,-1.8548,-1.9819,-2.0985,-2.2344,-2.3675,-2.4897,-2.5843,-2.672,-2.7608,-2.7358,-2.6799,-2.5952,-2.4299,-2.3032,-2.2258,-2.1566,-2.224,-2.4471,-2.5677,-2.782,-3.0907,-3.2227,-3.3175,-3.3792,-3.3807,-3.3372,-3.2481,-3.1202,-3.0371,-2.9728,-2.7515,-2.6482,-2.6259,-2.4955,-2.4464,0.0,0.0,0.0,0.0,0.0,0.0,0.0,0.0,0.0,0.0,0.0,0.0,0.0,0.0,0.0,0.0,0.0,0.0,0.0,0.0,0.0,0.0,0.0,0.0,0.0,0.0,0.0,0.0,0.0,0.0,0.0,0.0,0.0,0.0,0.0,0.0,0.0,-3.1285,-3.222,0.0,-2.9777,-3.0729,-3.0899,-2.9509,-3.0548,-3.0822,-2.9895,-3.0007,-2.9947,-2.9426,-2.8482,-2.7689,-2.7168,-2.7012,-2.6782,-2.6592,-2.7173,-2.7218,-2.6744,-2.5497,-2.4655,-2.4066,-2.2678,-2.2348,-2.2981,-2.3513,-2.3193,-2.2405,-2.2644,-2.189,-2.068,-2.0701,-2.0054,-1.9177,0.0,0.0,0.0,0.0,-1.6034,-1.6905,-1.7734,-1.9223,-2.0687,-2.1814,-2.3157,-2.4464,-2.5696,-2.6657,-2.7526,-2.83,-2.7963,-2.7181,-2.5987,-2.4379,-2.3192,-2.2585,-2.2837,-2.4337,-2.7208,-2.8359,-3.04,-3.3424,-3.4286,-3.4923,-3.5386,-3.52,-3.4695,-3.4004,-3.2803,-3.2199,-3.1905,-3.015,-2.8992,-2.8217,-2.7928,-2.7774,-2.7575,0.0,0.0,0.0,0.0,0.0,0.0,0.0,0.0,0.0,0.0,0.0,0.0,0.0,0.0,0.0,0.0,0.0,0.0,0.0,0.0,0.0,0.0,0.0,0.0,0.0,0.0,0.0,0.0,0.0,0.0,0.0,0.0,0.0,0.0,0.0,-3.107,-3.0502,-3.1789,-3.1988,-3.0103,-3.1418,-3.178,-3.0453,-3.1366,-3.171,-3.0917,-3.0888,-3.0841,-3.0578,-2.9233,-2.8106,-2.7231,-2.6927,-2.6601,-2.6273,-2.6865,-2.6854,-2.6268,-2.5205,-2.4372,-2.3541,-2.284,-2.2719,-2.3172,-2.366,-2.366,-2.3414,-2.3467,-2.2597,-2.1333,-2.1455,-2.0995,-2.0284,0.0,0.0,0.0,-1.5332,-1.6114,-1.6992,-1.7735,-1.9234,-2.087,-2.2489,-2.3351,-2.4522,-2.6332,-2.7402,-2.8235,-2.8867,-2.8598,-2.7639,-2.5841,-2.4384,-2.313,-2.2114,-2.4353,-2.6383,-2.7929,-3.0284,-3.2366,-3.4217,-3.5457,-3.6274,-3.6663,-3.6661,-3.6303,-3.5712,-3.5188,-3.4562,-3.3939,-3.3315,-3.189,-3.0037,-3.0039,-3.0169,-3.0323,0.0,0.0,0.0,0.0,0.0,0.0,0.0,0.0,0.0,0.0,0.0,0.0,0.0,0.0,0.0,0.0,0.0,0.0,0.0,0.0,0.0,0.0,0.0,0.0,0.0,0.0,0.0,0.0,0.0,0.0,0.0,0.0,0.0,-2.7698,-2.9512,-3.087,-3.1128,-3.1267,-3.1405,-3.1417,-3.2137,-3.2167,-3.1136,-3.3059,-3.3363,-3.1389,-3.2095,-3.2146,-3.1371,-2.9692,-2.8592,-2.7966,-2.7855,-2.7383,-2.6432,-2.7383,-2.7004,-2.5431,-2.5431,-2.4201,-2.2111,-2.2856,-2.3106,-2.3238,-2.386,-2.4487,-2.5098,-2.4409,-2.3738,-2.2949,-2.2487,-2.2253,-2.2139,0.0,0.0,-1.5369,-1.6057,-1.6901,-1.7799,-1.8677,-2.0593,-2.21,-2.2496,-2.367,-2.5163,-2.7033,-2.7516,-2.8146,-2.925,-2.771,-2.6502,-2.6025,-2.4173,-2.3887,-2.5734,-2.7633,-2.9532,-3.1462,-3.2882,-3.4531,-3.6488,-3.6897,-3.7491,-3.8246,-3.7806,-3.7143,-3.6268,-3.5646,-3.4805,-3.3924,-3.3979,-3.3847,-3.3571,-3.3261,-3.2808,-3.2329,0.0,0.0,0.0,0.0,0.0,0.0,0.0,0.0,0.0,0.0,0.0,0.0,0.0,0.0,0.0,0.0,0.0,0.0,0.0,0.0,0.0,0.0,0.0,0.0,0.0,0.0,0.0,0.0,0.0,0.0,0.0,0.0,-2.8665,-2.9024,-2.9742,-3.0108,-2.989,-3.0648,-3.1004,-3.022,-3.1962,-3.264,-3.1309,-3.2321,-3.2937,-3.2575,-3.2009,-3.1495,-3.1251,-2.9756,-2.8228,-2.6909,-2.504,-2.4309,-2.4718,-2.3814,-2.3442,-2.372,-2.3223,-2.2973,-2.2863,-2.2487,-2.2988,-2.386,-2.3487,-2.4108,-2.5071,-2.4916,-2.4253,-2.3438,-2.3319,-2.2953,-2.2557,0.0,-1.546,-1.5855,-1.6389,-1.7547,-1.8566,-1.9075,-2.1162,-2.2601,-2.2395,-2.3705,-2.5123,-2.6317,-2.634,-2.6596,-2.7456,-2.6989,-2.6204,-2.5199,-2.4806,-2.5504,-2.7477,-2.9841,-3.1799,-3.3294,-3.474,-3.6221,-3.7739,-3.7844,-3.7923,-3.8018,-3.7194,-3.61,-3.4698,-3.4249,-3.3548,-3.2779,-3.3726,-3.4242,-3.4587,-3.5488,-3.5437,-3.4925,-3.5615,-3.4067,-3.1206,-2.8893,-2.7578,-2.6729,-2.5172,0.0,0.0,0.0,0.0,0.0,0.0,0.0,0.0,0.0,0.0,0.0,0.0,0.0,0.0,0.0,0.0,0.0,0.0,0.0,0.0,0.0,0.0,0.0,0.0,-2.9011,-2.9976,-3.0073,-3.0213,-3.0094,-2.959,-3.05,-3.1052,-3.0714,-3.2155,-3.282,-3.218,-3.2869,-3.3265,-3.3344,-3.2469,-3.1687,-3.1265,-2.9512,-2.7855,-2.6554,-2.3938,-2.3084,-2.4108,-2.2459,-2.1964,-2.2738,-2.2606,-2.2613,-2.2731,-2.2856,-2.323,-2.3736,-2.386,-2.4232,0.0,0.0,0.0,0.0,0.0,-2.4778,-2.4479,0.0,-1.5973,-1.6554,-1.6752,-1.812,-1.9207,-1.9232,-2.1264,-2.2645,-2.2237,-2.3551,-2.4684,-2.5071,-2.475,-2.4709,-2.5158,-2.652,-2.6489,-2.4406,-2.6072,-2.7531,-2.8475,-3.1451,-3.3466,-3.4317,-3.616,-3.747,-3.8222,-3.833,-3.7843,-3.6752,-3.5613,-3.4026,-3.2152,-3.1903,-3.1466,-3.102,-3.263,-3.3402,-3.3834,-3.6125,-3.6972,-3.6973,-3.7278,-3.5882,-3.3296,-2.9928,-2.8608,-2.8173,-2.6157,0.0,0.0,0.0,0.0,0.0,0.0,0.0,0.0,0.0,0.0,0.0,0.0,0.0,0.0,0.0,0.0,0.0,0.0,0.0,0.0,0.0,0.0,0.0,0.0,-3.0408,-3.1035,-3.1053,-3.1104,-3.0809,-3.0057,-3.0804,-3.1502,-3.1991,-3.2487,-3.2994,-3.3398,-3.3892,-3.4055,-3.3857,0.0,0.0,0.0,0.0,-2.7504,-2.6554,-2.3814,-2.2959,-2.3984,-2.2215,-2.1587,-2.2111,-2.2731,-2.2731,-2.2355,-2.3611,-2.386,-2.3362,-2.4487,-2.4726,-2.4232,-2.4355,-2.521,-2.6554,-2.6554,-2.6892,-2.722,0.0,-1.6386,-1.6951,-1.8357,-1.8886,-1.9358,-2.0039,-2.1608,-2.2571,-2.2174,-2.3289,-2.4576,-2.5772,-2.552,-2.5912,-2.7479,-2.6997,-2.6741,0.0,0.0,-2.9244,-3.2062,-3.3521,-3.5146,-3.7001,-3.7474,-3.7953,-3.8374,-3.7836,-3.7265,-3.6588,-3.5149,-3.3587,-3.1944,-3.1118,-3.0402,-2.9875,-3.0486,-3.1475,-3.2557,-3.188,-3.2635,-3.4283,-3.6022,-3.5061,-3.2677,-3.1713,-3.1125,-3.0752,-3.0032,-2.8225,-2.624,-2.6419,0.0,0.0,0.0,0.0,0.0,0.0,0.0,0.0,0.0,0.0,0.0,0.0,0.0,0.0,0.0,0.0,0.0,0.0,0.0,0.0,-3.0214,-3.1254,-3.2048,-3.2345,-3.276,-3.2488,-3.1137,-3.1616,-3.2162,-3.2277,-3.3339,-3.3821,-3.3691,-3.3736,-3.395,-3.4382,-3.2882,-3.1777,-3.1285,-2.9157,-2.7504,-2.6554,-2.3318,-2.2334,-2.323,0.0,0.0,-2.2111,-2.2237,-2.2856,-2.3736,-2.3984,-2.4355,-2.4734,-2.4363,-2.4726,-2.5325,-2.5823,-2.6189,-2.6545,-2.6762,-2.7589,-2.8435,-1.7682,-1.7813,-1.8075,-1.8945,-1.948,-1.994,-2.0371,-2.1796,-2.2659,-2.2246,-2.3397,-2.4394,-2.4769,-2.4349,-2.4378,-2.5184,-2.5271,0.0,0.0,-2.9362,-3.0499,-3.2429,-3.3653,-3.4734,-3.5631,-3.5765,-3.5828,-3.5831,-3.5948,-3.5347,-3.4138,-3.2884,-3.1252,-2.9114,-2.7832,-2.6999,-2.6689,-2.7168,-2.8248,-2.95,-2.8754,-2.8132,-2.7958,-3.047,-3.0679,-2.9563,-2.975,-3.0219,-3.0689,-3.085,-2.9713,-2.8071,-2.7088,-2.5194,-2.2911,0.0,0.0,0.0,0.0,0.0,0.0,0.0,0.0,0.0,0.0,0.0,0.0,0.0,0.0,-2.8717,0.0,0.0,-3.1325,-3.154,-3.2349,-3.3,-3.3109,-3.3491,-3.3211,-3.1993,-3.2494,-3.2857,-3.2729,-3.3468,-3.4062,-3.4119,-3.4047,-3.4076,-3.4054,-3.2924,-3.1757,-3.0801,-2.9039,-2.7383,-2.6059,-2.3076,-2.1964,-2.2613,-2.0963,-2.0836,-2.2111,-2.2731,-2.3479,-2.4108,-2.4487,-2.461,-2.461,-2.4718,-2.5325,-2.6189,-2.7504,-2.7984,-2.8104,-2.8902,-2.962,-3.0353,-1.8896,-1.9277,-1.9344,-1.9356,-1.9994,-2.0501,-2.0507,-2.188,-2.2785,-2.2382,-2.3587,-2.43,-2.3801,-2.3171,-2.2845,-2.3084,-2.4152,0.0,0.0,-3.0373,-3.1029,-3.1829,-3.2805,-3.3267,-3.3227,-3.3023,-3.2795,-3.2661,-3.3244,-3.2655,-3.0924,-3.0164,-2.8396,-2.5733,-2.4258,-2.3363,-2.3136,-2.3653,-2.47,-2.593,-2.509,-2.3144,-2.0852,-2.2341,-2.3838,-2.5313,-2.6126,-2.7537,-2.9068,-2.9784,-2.9572,-2.8653,-2.6791,-2.5288,-2.3695,-2.0828,-2.0511,0.0,0.0,0.0,0.0,0.0,0.0,0.0,0.0,0.0,-2.9666,-3.0646,-3.116,-3.1541,-3.164,-3.2637,-3.3291,-3.261,-3.3263,-3.3696,-3.3442,-3.3789,-3.3766,-3.2888,-3.3335,-3.3695,-3.3457,-3.3748,-3.4208,-3.4703,-3.4524,-3.4177,-3.3818,-3.3027,-3.1977,-3.0791,-2.892,-2.7254,-2.5928,-2.3201,-2.1964,-2.2111,-2.1342,-2.1342,-2.2362,-2.3611,-2.4108,-2.4355,-2.5103,-2.5103,-2.4595,-2.5562,-2.6529,-2.7383,-2.9057,-2.9992,-3.0334,-3.1169,-3.1767,-3.2123,0.0,-1.9725,-2.0172,-2.0234,-2.0388,-2.0507,-2.0507,-2.1915,-2.2873,-2.2524,-2.3613,-2.4479,-2.4646,-2.3914,-2.418,-2.6121,-2.6751,0.0,-2.9845,-2.9496,-3.0105,-3.2051,-3.1261,-3.1263,-3.2266,-3.0754,-3.0086,-3.028,-3.0104,-2.9325,-2.8123,-2.7801,-2.612,-2.3313,-2.2381,-2.1435,-2.0517,-2.0613,-2.1449,-2.2391,-1.8883,-1.6822,-1.5402,-1.1725,-1.4418,-2.0454,-2.198,-2.3862,-2.5887,-2.7233,-2.6489,-2.4976,-2.4705,-2.3889,-2.2791,-2.1844,0.0,-2.1472,-2.1964,-2.4546,-2.7718,-3.0336,-3.0774,-3.147,0.0,0.0,-3.2673,-3.447,-3.4184,-3.3607,-3.3917,-3.4058,-3.3688,-3.2327,-3.3313,-3.3942,-3.2986,-3.3887,-3.4551,-3.4422,-3.4474,-3.4555,-3.4876,-3.4571,-3.4781,-3.5587,-3.439,-3.3963,-3.4401,-3.281,-3.2008,-3.2446,-2.9502,-2.7607,-2.6866,-2.4193,-2.2606,-2.2111,-2.1985,-2.2355,-2.2981,-2.3736,-2.4355,-2.498,-2.5953,-2.6311,-2.6311,-2.7263,-2.8554,-2.9963,-3.081,-3.2062,-3.3293,-3.2217,-3.2477,-3.3388,0.0,-2.0119,-2.0253,-2.0274,-2.0375,-2.0453,-2.0497,-2.1915,-2.2916,-2.2705,-2.3816,-2.4648,-2.4691,-2.4356,-2.4516,-2.5449,-2.5956,-2.6734,-2.7886,-2.7961,-2.8192,-2.8803,-2.8068,-2.7503,-2.729,-2.6187,-2.5581,-2.5727,-2.555,-2.5274,-2.4813,-2.4472,-2.3496,-2.1934,-2.0785,-2.0236,-2.0119,-1.9562,-1.9919,-2.0671,-1.739,-1.4827,-1.2495,-0.863,-0.93,-1.2763,-1.6661,-2.0064,0.0,0.0,-2.5485,-2.4519,-2.4142,-2.3237,-2.2297,-2.1885,-2.2782,0.0,-2.8307,-3.0624,-3.2337,0.0,-3.4758,-3.5517,-3.6013,-3.5644,-3.5165,-3.514,-3.4808,-3.4471,-3.4143,-3.4291,-3.4328,0.0,-3.4017,-3.4268,-3.3947,-3.4068,-3.4445,-3.4953,-3.5137,-3.5236,-3.5506,-3.579,-3.6122,-3.6557,-3.6002,-3.5576,-3.5454,-3.4,-3.2985,-3.2995,-2.9728,-2.7727,-2.6979,-2.444,-2.2824,-2.2384,-2.2758,-2.3239,-2.3676,-2.4822,-2.5713,-2.6249,-2.6402,-2.703,-2.7975,-2.8911,-2.9973,-3.1033,-3.2395,-3.3201,-3.3786,-3.348,-3.4145,-3.5013,0.0,-2.0344,-2.0225,-2.023,-2.0286,-2.0366,-2.0414,-2.1865,-2.2924,-2.2752,-2.3854,-2.4531,-2.4192,-2.4026,-2.3938,-2.3941,-2.4258,-2.4661,-2.5167,-2.5372,-2.5315,-2.497,-2.4325,-2.3602,-2.2841,-2.1821,-2.1466,-2.1824,-2.1703,-2.16,-2.1686,-2.1614,-2.103,-2.0053,-1.9173,-1.8895,-1.9199,-1.8574,-1.868,-1.9075,-1.6374,-1.3676,-1.1012,-0.7456,-0.6348,-0.7186,-1.1766,-1.584,0.0,0.0,-2.2971,-2.2893,-2.2349,-2.1816,-2.1428,-2.1734,-2.4348,-2.8076,-3.2555,-3.459,0.0,-3.6157,-3.7359,-3.8076,-3.6552,-3.6542,-3.6462,-3.5139,-3.4789,-3.4603,-3.3874,-3.4373,-3.4641,-3.4243,-3.4265,-3.4364,-3.4175,-3.3885,-3.4046,-3.507,-3.5486,-3.5817,-3.6267,-3.6788,-3.7192,-3.7418,-3.7084,-3.6642,-3.61,-3.4637,-3.3529,-3.2985,-2.9719,-2.7727,-2.6979,-2.4665,-2.3235,-2.2573,-2.3556,-2.4109,-2.4216,-2.5502,-2.6579,-2.7083,-2.7287,-2.8175,-2.9719,-3.0878,-3.1812,-3.2737,-3.408,-3.477,-3.4902,-3.5157,-3.5576,-3.5991,0.0,0.0,-2.0295,-2.0292,-2.0242,-2.02,-2.0204,-2.1739,-2.2823,-2.263,-2.3593,-2.3989,-2.3153,-2.2579,-2.2281,-2.2271,-2.2164,-2.2062,-2.1953,-2.1489,-2.1219,-2.1267,-2.0401,-1.9882,-2.006,-1.8575,-1.8435,-1.9624,-1.9094,-1.8956,-1.9108,-1.9813,-1.9085,-1.7155,-1.7479,-1.7277,-1.6715,-1.7162,-1.7479,-1.7462,-1.4838,-1.2769,-1.091,-0.6904,-0.5378,-0.5604,-0.784,0.0,0.0,0.0,-1.7696,-1.8595,-1.8145,-1.8844,0.0,-2.1576,-2.6115,-3.0954,-3.2329,0.0,-3.6355,-3.7061,-3.7535,-3.7698,-3.7091,-3.6579,-3.5985,-3.5126,-3.4551,-3.4038,-3.3558,-3.454,-3.467,-3.2557,-3.358,-3.4256,-3.2992,-3.3053,-3.3476,-3.4548,-3.5263,-3.6102,0.0,-3.7239,-3.7418,-3.8303,-3.7073,-3.61,-3.5806,-3.409,-3.2985,-3.2685,-2.963,-2.7727,-2.6979,-2.5405,-2.3843,-2.258,-2.429,-2.4842,-2.4216,-2.5502,-2.6579,-2.7216,-2.8638,-3.0177,-3.1647,-3.3272,-3.4748,-3.6077,-3.6077,-3.6965,-3.8185,-3.7311,-3.6545,-3.6025,0.0,0.0,0.0,-2.0103,-2.0489,-2.0779,-2.0682,-2.1828,-2.2796,-2.3019,-2.3197,0.0,0.0,0.0,0.0,0.0,-1.8099,-1.7737,-1.7379,-1.7721,-1.7492,-1.6424,-1.6647,-1.6419,-1.5389,-1.4843,-1.5015,-1.6064,-1.4962,-1.3703,-1.2387,-1.505,-1.4715,-1.2206,-1.5683,-1.7282,-1.7588,-1.8034,-1.8216,-1.7971,-1.5632,-1.3451,-1.1382,-0.7885,-0.6258,-0.5943,0.0,0.0,0.0,0.0,-1.577,-1.6949,-1.7646,0.0,0.0,-2.4122,-2.8326,-3.2266,-3.6072,0.0,-3.7639,-3.8717,-3.8487,-3.7805,-3.6686,-3.6299,-3.59,-3.4678,-3.4359,-3.4177,-3.4108,-3.3804,-3.3575,-3.3766,-3.3499,-3.3294,-3.3409,-3.3225,-3.3559,-3.4934,-3.5768,0.0,0.0,0.0,0.0,-3.9233,-3.8816,-3.8279,-3.7536,-3.564,-3.4303,-3.354,-2.9954,-2.7979,-2.7983,-2.579,-2.496,-2.5649,-2.6506,-2.6943,-2.7205,-2.7481,-2.8561,-3.0553,-3.145,-3.2737,-3.4296,-3.5558,-3.6472,-3.737,-3.7619,-3.7832,-3.8137,-3.9,-3.8594,-3.7548,0.0,0.0,0.0,0.0,0.0,0.0,0.0,0.0,0.0,0.0,0.0,0.0,0.0,0.0,0.0,0.0,0.0,-1.3709,-1.3012,-1.3693,-1.3566,-1.2354,-1.2818,-1.276,-1.2116,-1.1402,-1.1573,-1.2496,-1.1027,-0.9388,-0.7789,-0.9851,-1.0277,-0.9529,-1.2751,-1.5467,-1.7593,-1.7993,-1.8137,-1.7955,-1.6037,-1.4059,-1.211,-0.8788,-0.7162,0.0,0.0,0.0,0.0,-1.1907,-1.3805,0.0,0.0,0.0,-2.1888,-2.6601,-3.0426,-3.3882,-3.7525,-3.8235,-3.8097,-3.8723,-3.8138,-3.7173,-3.6219,-3.574,-3.5199,-3.4204,-3.3462,-3.2891,-3.265,-3.2055,-3.186,-3.2835,-3.2611,-3.2685,-3.3388,-3.3672,-3.4125,-3.5317,-3.6069,-3.7037,0.0,0.0,0.0,-3.9647,-3.9697,-3.9154,-3.7962,-3.6294,-3.4748,-3.354,-3.0097,-2.8312,-2.8438,-2.6725,-2.6649,-2.8265,-2.8212,-2.8592,-2.9273,-2.9267,-3.0347,-3.2219,-3.3124,-3.4517,-3.641,-3.7023,-3.7866,-3.8839,-3.9099,-3.8908,-3.8675,-4.007,-3.9981,-3.9037,0.0,0.0,0.0,0.0,0.0,0.0,0.0,0.0,0.0,0.0,0.0,0.0,0.0,0.0,0.0,0.0,0.0,0.0,-0.9036,-0.9498,0.0,-0.9173,-0.891,-0.9279,-1.0225,-0.856,-0.814,-0.919,-0.7529,-0.6255,-0.5416,-0.4807,-0.6004,-0.8677,-0.908,-1.198,-1.661,-1.6785,-1.7186,-1.7415,-1.5864,-1.4468,-1.2888,-0.9716,0.0,0.0,0.0,0.0,0.0,0.0,0.0,0.0,0.0,0.0,-2.7118,-2.8927,-3.2273,-3.5638,-3.683,-3.7544,-3.7748,-3.7358,-3.6658,-3.6035,-3.5719,-3.4743,-3.3812,-3.3462,-3.196,-3.0393,0.0,0.0,-2.959,-3.0119,-3.1163,-3.2244,-3.2962,-3.4144,-3.5123,0.0,0.0,0.0,0.0,0.0,0.0,-3.9544,0.0,-3.8933,-3.7192,-3.5859,-3.4436,-3.2716,-3.0043,-2.8587,-2.8509,-2.8366,-2.9043,-3.0307,-2.9752,-2.9752,-3.0567,-3.1194,-3.1748,-3.2516,-3.3841,-3.5725,-3.7814,-3.7886,-3.8996,-4.0673,-4.0517,-4.0198,-3.9788,-4.03,-4.0402,-4.0402,0.0,0.0,0.0,0.0,0.0,0.0,0.0,0.0,0.0,0.0,0.0,0.0,0.0,0.0,0.0,0.0,0.0,0.0,-0.6239,-0.734,-0.7766,-0.727,-0.7565,-0.7807,-0.7827,-0.629,-0.6154,-0.75,-0.6145,-0.4135,-0.1659,-0.4007,-0.3687,-0.1408,-0.7305,-1.0631,-1.1982,-1.4805,-1.6065,-1.6034,0.0,-1.3598,-1.2822,0.0,0.0,0.0,0.0,0.0,0.0,0.0,0.0,0.0,0.0,-2.4972,-2.8848,0.0,0.0,-3.5276,-3.7727,-3.8002,-3.7499,-3.707,-3.6574,-3.5737,-3.4098,-3.3213,-3.2489,-3.1217,-2.9764,-2.867,0.0,0.0,0.0,-2.9558,-3.0119,0.0,-3.2812,-3.3226,0.0,-3.504,0.0,-3.6272,-3.6868,-3.7307,0.0,0.0,-3.8396,-3.8068,-3.6522,-3.5079,-3.3802,-3.2484,-3.0701,-2.9592,-2.9438,-2.967,-3.0201,-3.1065,-3.1707,-3.2346,-3.299,-3.3107,-3.3938,-3.5477,-3.7112,-3.8467,-3.9581,-4.0208,-4.117,-4.221,-4.0517,-4.0287,-4.0883,-4.0605,-3.9878,-3.9037,0.0,0.0,0.0,0.0,0.0,0.0,0.0,0.0,0.0,0.0,0.0,0.0,0.0,0.0,0.0,0.0,0.0,0.0,0.0,-0.5392,-0.5863,-0.5799,-0.5698,-0.5645,-0.5628,-0.4821,-0.4681,-0.5228,-0.4665,-0.2907,-0.0159,-0.1123,-0.0748,0.0589,-0.3253,-0.6765,-0.9933,-1.1842,0.0,0.0,0.0,0.0,0.0,0.0,0.0,0.0,0.0,0.0,0.0,0.0,0.0,-2.3022,-2.4908,-2.8005,-3.117,-3.2304,0.0,-3.5968,-3.6801,-3.6868,-3.6385,-3.5414,-3.4677,-3.3898,-3.2468,-3.1408,-3.0481,-2.9322,-2.7493,-2.6095,-2.573,-2.4877,-2.4856,0.0,0.0,0.0,-3.1295,-3.2455,-3.3556,0.0,-3.5842,0.0,-3.6673,-3.6908,-3.6965,0.0,-3.7192,-3.6858,-3.5651,-3.4499,-3.3393,-3.2421,-3.1232,-3.0627,-3.0637,-3.1231,-3.2081,-3.331,-3.4208,-3.4954,-3.5806,-3.5715,-3.6338,-3.7703,0.0,-3.9651,-4.0821,-4.0746,-4.1436,-4.2435,-4.0709,-4.0173,-4.0325,-4.0045,-3.9013,-3.7856,0.0,0.0,0.0,0.0,0.0,0.0,0.0,0.0,0.0,0.0,-1.3203,0.0,0.0,0.0,0.0,0.0,0.0,0.0,0.0,0.0,0.0,-0.482,-0.3906,-0.3562,-0.4016,-0.3923,-0.3694,-0.3306,-0.3581,-0.2549,0.0,0.0,0.0,0.0,0.0,0.0,0.0,0.0,0.0,0.0,0.0,0.0,0.0,0.0,0.0,0.0,0.0,0.0,0.0,0.0,-2.4037,-2.5722,-2.7588,-3.0719,-3.355,-3.3029,-3.4935,-3.6827,-3.5082,-3.4937,-3.4842,-3.317,-3.2228,-3.1582,-3.0934,-2.9517,-2.8005,-2.7167,0.0,-2.2818,-2.1931,-2.0961,-2.0893,-2.3089,0.0,-2.5865,-2.9297,-3.1727,-3.3535,-3.4558,-3.5893,-3.6762,-3.6762,-3.6762,-3.6534,-3.587,-3.5761,-3.5454,-3.4769,-3.4008,-3.3252,-3.2494,-3.1798,-3.1636,-3.2256,-3.2629,-3.3978,-3.6051,-3.6792,-3.7637,-3.858,-3.8376,-3.8744,-3.9557,-3.9368,-4.0304,-4.1736,-4.082,-4.1114,-4.2134,-4.1016,-4.0019,-3.9171,-3.908,-3.8243,-3.7084,0.0,0.0,0.0,0.0,0.0,0.0,0.0,0.0,0.0,0.0,-0.884,-0.823,0.0,0.0,0.0,0.0,0.0,0.0,0.0,0.0,0.0,-0.4724,-0.3786,-0.3496,-0.4083,-0.3591,-0.3697,-0.441,-0.4273,-0.3586,0.0,0.0,0.0,0.0,0.0,0.0,0.0,0.0,0.0,0.0,0.0,0.0,0.0,0.0,0.0,0.0,0.0,0.0,0.0,0.0,-2.5506,-2.8293,-3.0288,-3.2861,-3.5044,-3.4565,-3.5317,-3.5895,-3.4016,-3.3536,-3.3297,-3.2097,-3.1764,-3.1355,-3.0037,-2.7831,0.0,0.0,-2.0941,-1.878,-1.7639,-1.7293,-1.786,-1.9999,-2.1493,-2.3869,-2.7996,-3.0138,-3.1861,0.0,-3.4491,-3.4947,-3.4947,-3.4947,0.0,0.0,-3.3582,-3.3494,-3.3843,-3.3053,-3.2644,-3.2794,-3.2652,-3.3058,-3.3912,-3.3262,-3.4477,-3.7429,-3.8104,-3.917,-4.0616,-4.0512,-4.0834,-4.1485,-4.1761,0.0,-4.3045,-4.3092,-4.3111,-4.2736,-4.166,-4.0464,-3.9183,-3.8699,-3.795,-3.7084,0.0,0.0,0.0,0.0,0.0,0.0,0.0,-0.8159,-0.7515,-0.6428,-0.5974,-0.551,-0.499,-0.4107,-0.3625,0.0,0.0,0.0,0.0,0.0,0.0,0.0,-0.3883,-0.3817,-0.4501,-0.495,-0.5427,-0.5941,0.0,-0.5642,-0.4038,-0.1151,0.1159,0.3028,0.0,0.0,0.0,0.0,0.0,0.0,0.0,0.0,0.0,0.0,0.0,0.0,0.0,0.0,0.0,0.0,-2.5098,-2.7792,-3.0428,-3.2698,-3.4199,-3.3128,-3.3487,-3.3844,-3.1761,-3.1022,-3.0581,-2.9757,-2.9401,-2.8913,-2.7308,0.0,0.0,0.0,-1.751,-1.5405,-1.544,-1.4408,0.0,-1.5901,-1.8048,-2.1129,-2.6002,-2.8182,0.0,-3.2788,-3.3942,-3.4524,0.0,-3.4177,-3.3829,-3.3161,-3.281,-3.2757,-3.2957,-3.2744,-3.3062,-3.4091,-3.3803,-3.4027,-3.4922,-3.5242,-3.666,-3.9064,-4.0105,-4.1293,-4.25,-4.2338,-4.255,-4.2911,-4.3403,-4.3733,-4.4074,-4.4375,-4.3926,-4.2853,-4.1867,-4.0216,-3.8533,-3.8384,-3.7536,-3.6557,0.0,0.0,0.0,0.0,0.0,0.0,0.0,-0.7117,-0.6275,-0.5117,-0.3953,-0.3485,-0.4025,-0.3843,-0.3783,0.0,0.0,0.0,0.0,0.0,0.0,0.0,0.0,-0.4365,-0.5044,0.0,0.0,-0.7549,-0.8106,0.0,0.0,0.0,0.0,0.0,0.4095,0.2288,-0.2052,0.0,0.0,0.0,0.0,-1.4505,0.0,0.0,0.0,0.0,0.0,0.0,0.0,0.0,-2.3811,-2.5776,-2.8583,-3.097,-3.2412,-3.1007,-3.1263,-3.1559,-2.9374,-2.8366,-2.7936,-2.7386,-2.6791,-2.5881,-2.4373,-2.2473,0.0,-1.7262,-1.4518,-1.2787,-1.3181,-1.16,-1.0813,0.0,-1.5239,-1.9005,-2.4333,-2.7085,-2.9518,0.0,-3.3776,0.0,-3.43,-3.3829,0.0,-3.2799,-3.2778,-3.2796,-3.2788,-3.3306,-3.4071,-3.516,-3.4797,-3.4911,-3.5644,-3.7067,-3.871,-4.0465,-4.2088,-4.327,-4.4107,-4.3907,-4.4126,-4.4722,-4.4699,-4.4928,-4.5195,-4.5217,-4.4226,-4.2749,-4.1867,-4.0111,-3.8019,-3.8291,-3.7536,-3.6569,0.0,0.0,0.0,0.0,0.0,0.0,0.0,-0.6352,-0.5227,-0.3384,-0.2971,-0.2907,-0.3016,-0.3167,-0.3427,0.0,0.0,0.0,0.0,0.0,0.0,0.0,0.0,0.0,0.0,0.0,0.0,-0.9111,-0.8404,0.0,0.0,0.0,0.0,0.0,0.0,-0.0038,-0.2437,-0.5214,0.0,0.0,0.0,0.0,0.0,0.0,0.0,0.0,0.0,0.0,0.0,0.0,0.0,-2.304,-2.4167,-2.7291,-3.0357,-2.948,0.0,0.0,-2.7558,-2.6624,-2.6218,-2.5992,-2.4841,-2.3378,-2.2242,0.0,-1.6669,-1.3935,-1.2412,-1.1117,-0.945,-0.8462,-0.8524,-1.0785,0.0,-1.8978,-2.4393,-2.7568,-3.0207,-3.2638,0.0,0.0,-3.3738,-3.3625,-3.3388,-3.2799,-3.3058,-3.3503,-3.3979,-3.5233,-3.5633,-3.4548,-3.5046,-3.5767,-3.6692,-3.7352,-3.903,-4.1468,-4.3207,-4.4222,-4.4626,-4.5154,-4.6099,-4.7246,-4.5993,-4.5874,0.0,-4.5804,-4.4279,-4.2224,-4.2177,-4.0552,-3.8409,-3.8409,-3.8303,-3.8198,0.0,0.0,0.0,0.0,0.0,0.0,-0.7623,-0.6514,-0.5206,-0.3587,-0.3084,-0.2928,-0.3118,-0.3534,-0.3969,-0.4426,0.0,0.0,0.0,0.0,0.0,0.0,0.0,0.0,0.0,0.0,-0.9141,-0.972,-0.8854,0.0,0.0,0.0,0.0,0.0,0.0,-0.1091,-0.4389,0.0,0.0,0.0,0.0,0.0,0.0,0.0,0.0,0.0,0.0,0.0,0.0,0.0,0.0,0.0,-2.0801,-2.2545,0.0,0.0,-2.7011,-2.7036,-2.5359,-2.4444,-2.4105,-2.4323,-2.3352,-2.1961,-2.0551,0.0,-1.5219,-1.1426,-0.933,-0.7672,-0.6094,-0.6825,-0.8783,-1.2255,-1.5147,-1.8697,-2.3673,-2.6241,-2.8593,-3.1645,-3.3031,0.0,0.0,0.0,-3.3727,-3.4022,-3.4442,-3.5261,-3.6778,-3.6415,-3.6214,-3.6258,-3.6613,-3.721,-3.8052,-3.8839,-4.0337,-4.2662,-4.3894,-4.4804,-4.5274,-4.6414,-4.6936,-4.7219,-4.741,-4.7202,0.0,-4.6935,-4.5051,-4.2281,-4.3024,-4.1336,-3.8514,-3.9349,-3.9141,-3.8514,0.0,0.0,0.0,0.0,0.0,-0.9065,-0.7894,-0.6563,-0.5094,-0.348,-0.2957,-0.2852,-0.3177,-0.3699,-0.4281,-0.4938,-0.4982,0.0,0.0,0.0,0.0,0.0,0.0,0.0,0.0,0.0,-0.9703,-1.0255,-0.9034,-0.7524,0.0,0.0,-0.1579,-0.1222,0.0,0.0,0.0,0.0,0.0,0.0,0.0,0.0,0.0,0.0,0.0,0.0,0.0,0.0,0.0,0.0,0.0,0.0,0.0,0.0,0.0,0.0,-2.4497,-2.4434,-2.3737,-2.3005,-2.2494,-2.2656,-2.1847,-2.0494,-1.8498,-1.6337,-1.3552,-0.9468,-0.7184,-0.5654,-0.4802,-0.7364,-1.0819,-1.4465,-1.6749,-1.9579,-2.3843,-2.5793,-2.7914,0.0,0.0,-3.3191,0.0,-3.3903,-3.4256,-3.5113,-3.5857,-3.7042,-3.8797,-3.8008,-3.7672,-3.7932,-3.8279,-3.8851,-3.958,-4.0592,-4.2051,-4.4061,-4.4912,-4.5569,-4.6296,-4.7246,-4.7545,-4.7235,-4.7941,-4.7716,0.0,-4.6757,-4.5186,-4.2831,-4.3328,-4.1686,-3.9141,-4.0083,-3.9775,-3.8841,0.0,0.0,0.0,0.0,0.0,0.0,-0.7528,-0.6176,-0.4543,-0.2507,-0.2281,-0.248,-0.2943,-0.3409,-0.4103,-0.5093,-0.5274,0.0,0.0,0.0,0.0,0.0,0.0,0.0,0.0,0.0,-1.0111,-1.08,-0.881,-0.7341,-0.6314,-0.3573,-0.1873,-0.1162,0.0,0.0,0.0,0.0,0.0,0.0,0.0,0.0,0.0,0.0,0.0,0.0,0.0,0.0,0.0,0.0,0.0,0.0,0.0,0.0,0.0,0.0,-2.2502,-2.2615,-2.3089,-2.2417,-2.1392,-2.112,-2.0189,-1.8707,-1.59,-1.3683,-1.13,-0.8125,-0.6674,-0.6091,-0.6193,-1.0328,-1.4526,-1.6862,-1.9208,-2.1859,-2.5128,-2.694,-2.8736,0.0,0.0,-3.2358,-3.2286,-3.3813,-3.5113,-3.5617,-3.7037,0.0,-3.9291,-4.0282,-4.0279,-3.917,-3.9768,-4.0556,-4.146,-4.255,-4.4118,-4.5913,-4.6323,-4.704,-4.7979,-4.7731,-4.7827,-4.7924,-4.715,-4.6898,0.0,-4.4704,-4.3966,-4.3955,-4.2601,-4.1498,-4.0504,-4.0504,-4.0198,-3.9581,0.0,0.0,0.0,0.0,0.0,0.0,0.0,-0.5475,-0.4163,-0.2162,-0.2145,-0.226,-0.2187,-0.3093,-0.3754,-0.3931,-0.4316,0.0,0.0,0.0,0.0,0.0,0.0,0.0,0.0,0.0,-0.8597,-0.8628,-0.736,-0.5989,-0.4515,-0.3015,-0.2479,-0.2774,-0.3409,-0.5175,0.0,0.0,0.0,0.0,0.0,0.0,0.0,0.0,0.0,0.0,0.0,0.0,0.0,0.0,0.0,0.0,0.0,0.0,0.0,0.0,0.0,0.0,-2.0355,-1.9823,-1.9372,-1.8324,-1.7326,-1.6213,-1.4309,-1.2379,-1.0228,-0.7733,-0.7058,-0.7258,-0.8184,-1.1878,-1.5706,-1.8394,-2.1275,0.0,0.0,0.0,0.0,-3.0289,-3.2939,-3.5052,0.0,0.0,-3.7453,-3.8589,-3.903,-4.0107,-4.1902,-4.2246,-4.1892,-4.0575,-4.0905,-4.1656,-4.2943,-4.2889,-4.3872,-4.592,-4.6062,-4.6276,-4.6488,-4.6982,-4.6981,-4.6616,-4.6797,-4.6747,-4.6338,-4.5557,-4.4538,-4.3451,-4.3383,-4.2248,-4.0504,-4.0883,-4.0491,-3.9594,0.0,0.0,0.0,0.0,0.0,0.0,0.0,-0.4772,-0.3761,-0.2013,-0.1995,-0.2076,-0.1992,-0.2745,-0.3412,-0.3834,-0.3857,0.0,0.0,0.0,0.0,0.0,0.0,0.0,-0.7149,-0.7973,-0.8377,-0.8407,-0.7311,-0.5983,-0.4476,-0.2926,-0.2702,-0.3506,-0.3696,-0.5592,0.0,0.0,0.0,0.0,0.0,0.0,0.0,0.0,0.0,0.0,0.0,0.0,0.0,0.0,0.0,0.0,0.0,0.0,0.0,0.0,-1.7329,-1.8655,0.0,-1.8054,-1.7567,-1.6127,-1.5322,-1.435,-1.2263,-1.0684,-0.915,-0.732,-0.7492,-0.8519,-1.0365,-1.3967,-1.7522,-1.9856,-2.2533,-2.4666,0.0,0.0,0.0,-3.0466,0.0,0.0,0.0,-3.8546,-3.9689,-4.1002,-4.1439,-4.2315,-4.3794,-4.4097,-4.389,-4.3409,-4.3282,-4.3739,-4.4864,-4.442,-4.5087,-4.6747,-4.6167,-4.6181,-4.6693,-4.6885,-4.6675,-4.5982,-4.6733,-4.6749,0.0,-4.5509,-4.4692,-4.3923,-4.3695,-4.2444,-4.0883,-4.1172,-4.0364,-3.905,0.0,0.0,0.0,0.0,0.0,0.0,0.0,-0.4125,-0.3294,-0.1958,-0.1786,-0.1894,-0.2133,-0.2346,-0.299,-0.4229,0.0,0.0,0.0,0.0,0.0,0.0,0.0,0.0,-0.7083,-0.8313,-0.9152,-0.9567,-0.8143,-0.6838,-0.565,-0.3172,-0.2538,-0.3493,-0.3772,-0.5522,0.0,0.0,0.0,0.0,0.0,0.0,0.0,0.0,0.0,0.0,0.0,0.0,0.0,0.0,0.0,0.0,0.0,0.0,0.0,0.0,0.0,0.0,0.0,-1.6496,-1.5891,-1.4138,-1.367,-1.2762,-0.9738,-0.8712,0.0,-0.6961,-0.8128,-1.0193,-1.2812,-1.6665,-1.9893,-2.1628,-2.3499,-2.5031,0.0,-2.6875,0.0,0.0,-3.4,0.0,-3.726,-3.9801,-4.1839,-4.3067,-4.3948,-4.4684,-4.525,-4.5689,-4.6226,-4.7046,-4.6447,-4.6356,-4.679,-4.6795,-4.7123,-4.7994,-4.6469,-4.6565,-4.798,-4.7232,-4.6538,0.0,-4.6828,-4.6766,-4.6121,-4.462,-4.4527,-4.4975,-4.3423,-4.2177,-4.1159,-4.1159,-3.993,-3.808,0.0,0.0,0.0,0.0,0.0,0.0,0.0,0.0,0.0,0.0,-0.163,-0.1552,-0.0906,-0.1652,-0.2151,0.0,0.0,0.0,0.0,0.0,0.0,0.0,0.0,0.0,-0.6009,-0.7423,-0.8088,-0.8,-0.7084,-0.5909,-0.4358,-0.2402,-0.213,-0.3288,-0.3663,-0.6367,0.0,0.0,0.0,0.0,0.0,0.0,0.0,0.0,0.0,0.0,-1.5206,-1.4852,0.0,0.0,0.0,0.0,0.0,0.0,0.0,0.0,-1.3207,-1.2611,-1.2132,0.0,-1.3035,-1.0043,-0.94,-0.9072,0.0,-0.7323,-0.8168,-0.901,0.0,0.0,-1.7897,-2.0262,-2.2666,-2.578,-2.6634,-2.7137,-2.7679,0.0,0.0,0.0,0.0,0.0,-4.0906,-4.2849,-4.4343,-4.5029,-4.5283,-4.5854,-4.6914,-4.677,-4.7291,-4.8671,-4.7951,-4.7596,-4.7668,-4.6243,-4.5907,-4.6663,-4.5723,-4.5431,-4.5801,-4.5616,-4.5438,-4.5402,-4.6145,-4.6356,-4.6121,-4.5173,-4.4975,-4.4883,-4.3026,-4.1445,-4.03,-3.979,-3.8428,-3.6522,0.0,0.0,0.0,0.0,0.0,0.0,0.0,0.0,0.0,0.0,0.0,-0.1054,-0.0466,-0.1004,0.0,0.0,0.0,0.0,0.0,0.0,0.0,0.0,0.0,-0.4329,-0.6228,-0.7832,-0.8462,-0.8284,-0.7155,-0.5764,-0.4159,-0.2627,-0.2519,-0.3652,-0.5653,-0.8275,0.0,0.0,0.0,0.0,0.0,0.0,0.0,0.0,0.0,0.0,-1.3477,-1.3149,0.0,-1.3827,-1.3882,-1.3818,0.0,0.0,0.0,0.0,-1.233,-1.1313,-0.9985,-1.0455,-1.0603,-0.7923,-0.7605,-0.759,-0.6338,0.0,0.0,0.0,0.0,0.0,0.0,0.0,0.0,0.0,-2.8463,0.0,0.0,0.0,0.0,-3.6719,-3.8748,-4.0737,0.0,-4.4755,-4.6152,-4.6986,-4.7088,-4.7377,-4.7973,-4.7988,-4.8423,-4.9275,-4.862,-4.8286,-4.8286,-4.6799,-4.6284,-4.6668,-4.5627,-4.5067,-4.5067,-4.4712,-4.4805,-4.5158,-4.5837,-4.6388,-4.658,-4.5537,-4.4975,-4.4499,-4.239,-4.0591,-3.9134,-3.8404,-3.6668,-3.4371,0.0,0.0,0.0,0.0,0.0,0.0,0.0,0.0,0.0,0.0,0.0,0.0,0.0,0.0,0.0,0.0,0.0,0.0,0.0,0.0,0.0,0.0,-0.3512,-0.4417,-0.6899,-0.8463,-0.9108,-0.8885,-0.7417,-0.587,-0.4282,-0.325,-0.336,-0.4697,-0.8423,-1.0424,0.0,0.0,0.0,0.0,0.0,0.0,0.0,0.0,0.0,0.0,0.0,0.0,0.0,-1.355,-1.3893,-1.395,-1.4357,0.0,0.0,0.0,0.0,0.0,-0.9214,-0.9105,-0.895,-0.7073,-0.7268,-0.7816,-0.7056,0.0,0.0,0.0,0.0,0.0,0.0,0.0,0.0,0.0,0.0,0.0,-3.3455,-3.4087,-3.5286,-3.7321,-3.9944,0.0,-4.3887,-4.6094,-4.7804,-4.8769,-4.8918,-4.9,-4.8918,-4.9259,-4.9437,-4.9501,-4.9015,-4.8687,-4.8769,-4.7694,-4.7121,-4.6931,-4.5537,-4.4883,-4.4897,-4.4247,-4.4434,-4.5158,-4.5837,0.0,-4.6844,-4.5537,-4.4591,-4.3707,-4.1353,-3.9303,-3.7606,-3.6526,-3.4305,-3.1616,0.0,0.0,0.0,0.0,0.0,0.0,0.0,0.0,0.0,0.0,0.0,0.0,0.0,0.0,0.0,0.0,0.0,0.0,0.0,0.0,0.0,-0.1467,-0.3715,-0.5522,-0.678,-0.794,-0.8117,-0.7457,-0.628,-0.5138,-0.402,-0.3164,-0.429,-0.7097,-1.0159,-1.1659,-1.1926,0.0,0.0,0.0,0.0,0.0,0.0,0.0,0.0,0.0,0.0,0.0,0.0,-1.3744,-1.4595,-1.5094,-1.4162,0.0,0.0,0.0,0.0,0.0,-0.9585,-0.9534,-0.9185,-0.7103,-0.8188,-0.9669,-0.9566,0.0,0.0,0.0,0.0,0.0,0.0,-2.8129,-2.9997,0.0,0.0,-3.4743,0.0,0.0,-3.7159,-4.0169,0.0,-4.3981,-4.5558,-4.8118,-4.9789,-4.9963,-5.0368,-5.0583,-5.0477,-5.0182,-5.0198,-5.057,-4.9646,-4.9244,-4.9343,-4.7377,-4.6016,-4.5446,-4.462,-4.4167,-4.4167,-4.4073,-4.4434,-4.5158,0.0,-4.5927,-4.5341,-4.4684,-4.3598,-4.199,-3.9586,-3.7145,-3.4714,-3.3012,-3.076,-2.8244,0.0,0.0,0.0,0.0,0.0,0.0,0.0,0.0,0.0,0.0,0.0,0.0,0.0,0.0,0.0,0.0,0.0,0.0,0.0,0.0,-0.1501,-0.2849,-0.3288,-0.4303,-0.5999,-0.7982,-0.8435,-0.7227,-0.6663,-0.5701,-0.4394,-0.5515,-0.7209,-0.9383,-1.1356,-1.2049,-1.1787,-1.1864,0.0,0.0,0.0,0.0,0.0,0.0,0.0,0.0,0.0,0.0,0.0,0.0,-1.5529,-1.5724,-1.5069,0.0,0.0,0.0,0.0,0.0,-0.9565,-0.9663,-1.0039,-1.0239,-1.1311,-1.2577,-1.3919,0.0,0.0,0.0,0.0,0.0,0.0,0.0,-3.2878,-3.5812,0.0,-3.8793,-4.0257,-4.0464,-4.1272,0.0,0.0,-4.5917,-4.7568,-4.9231,-5.0432,-5.0951,-5.122,-5.122,-5.08,-5.0951,-5.0951,-5.0783,-5.0104,-4.9805,-4.9852,-4.8072,-4.6638,-4.5732,-4.4989,-4.434,-4.3979,-4.3614,-4.3804,-4.4527,0.0,-4.4897,-4.4591,-4.3149,-4.138,-3.9474,-3.6328,-3.3231,-3.0363,-2.7199,-2.5343,-2.4071,0.0,0.0,0.0,0.0,0.0,0.0,0.0,0.0,0.0,0.0,0.0,0.0,0.0,0.0,0.0,0.0,0.0,0.0,0.0,-0.3168,-0.3192,-0.3992,-0.3854,-0.4346,-0.5598,-0.7098,-0.7518,-0.6719,-0.6615,-0.6382,-0.6033,-0.861,-1.0424,-1.1501,-1.2543,-1.2623,-1.1888,-1.1988,-1.1872,0.0,0.0,0.0,0.0,0.0,0.0,0.0,0.0,0.0,0.0,0.0,0.0,0.0,0.0,0.0,0.0,-1.298,-1.1439,-1.029,-1.0042,-1.0407,-1.1397,-1.3821,0.0,-1.5769,-1.8785,0.0,0.0,0.0,0.0,0.0,0.0,-3.3166,0.0,-3.9429,-4.1129,-4.2361,-4.3265,-4.395,-4.4791,-4.5917,-4.6636,-4.7667,-4.92,-5.0057,-5.0951,-5.1858,-5.2004,-5.1931,-5.1385,-5.1696,-5.1769,-5.1369,-5.0707,-5.0338,-5.04,-4.8918,-4.7437,-4.6106,-4.5446,-4.4527,-4.3505,-4.2957,-4.2957,-4.3396,-4.315,-4.2985,-4.2506,-4.0205,-3.7801,-3.529,-3.181,-2.84,-2.4988,-2.1652,-2.0459,-2.0093,0.0,0.0,0.0,0.0,0.0,0.0,0.0,0.0,0.0,0.0,0.0,0.0,0.0,0.0,0.0,0.0,0.0,0.0,0.0,-0.5385,-0.4561,-0.2716,-0.6715,-0.8135,-0.6356,-0.4029,-0.3516,-0.4974,-0.5033,-0.6686,-0.9862,-1.1854,-1.3057,-1.3497,-1.3974,-1.3813,-1.3078,-1.205,-1.1809,-1.2058,0.0,0.0,0.0,0.0,0.0,0.0,0.0,0.0,0.0,0.0,0.0,0.0,0.0,0.0,-1.4902,-1.3447,-1.2145,-1.1308,-1.1872,-1.2357,-1.3535,-1.6489,0.0,0.0,-2.3623,-2.6232,0.0,0.0,0.0,0.0,0.0,-3.7122,-4.0438,-4.3005,-4.4163,-4.4879,-4.5257,0.0,-4.5838,-4.7257,-4.7743,-4.8594,-5.0026,-5.1027,-5.1842,-5.2503,-5.3041,-5.3247,-5.2974,-5.2714,-5.2644,-5.2889,-5.1516,-5.0843,-5.093,-4.9358,-4.7649,-4.5793,-4.5341,-4.4139,-4.2275,-4.2177,-4.1868,-4.1458,-4.0776,-3.9512,-3.7867,-3.4939,-3.1857,-2.8741,-2.5855,-2.2335,-1.8873,-1.7658,-1.7323,-1.6964,0.0,0.0,0.0,0.0,0.0,0.0,0.0,0.0,0.0,0.0,0.0,0.0,0.0,0.0,0.0,0.0,0.0,0.0,0.0,-0.6146,-0.5814,-0.5601,-0.5631,-0.5875,-0.6388,-0.5753,-0.5502,-0.567,-0.6478,-0.8504,-1.1628,-1.2111,-1.2878,-1.4034,-1.4032,-1.3937,-1.3774,-1.3291,-1.3194,-1.3368,-1.3554,0.0,0.0,0.0,0.0,0.0,0.0,0.0,0.0,0.0,-1.7668,-1.6998,0.0,-1.5842,-1.5165,-1.3322,-1.2051,-1.1497,-1.2318,-1.3546,-1.5426,-1.886,0.0,0.0,0.0,0.0,0.0,0.0,-3.5476,0.0,0.0,0.0,-4.2848,-4.4707,-4.6757,-4.822,-4.8304,-4.909,-4.9767,-5.0055,-5.0274,-5.0735,-5.1606,-5.2203,-5.2714,-5.3127,-5.3734,-5.3832,-5.3111,-5.3349,-5.3349,-5.3111,-5.1971,-5.122,-5.1005,-4.8988,-4.6971,-4.524,-4.484,-4.3436,-4.1219,-4.0578,-3.9318,-3.7577,-3.5756,-3.3454,-3.1015,-3.0361,-2.802,-2.4609,-2.0453,-1.7224,-1.4822,-1.3805,-1.3426,-1.3181,0.0,0.0,0.0,0.0,0.0,0.0,0.0,0.0,0.0,0.0,0.0,0.0,0.0,0.0,0.0,0.0,0.0,0.0,-0.7747,-0.756,-0.7624,-0.8012,-0.6252,-0.568,-0.6613,-0.7815,-0.7862,-0.6693,-0.8383,-1.0471,-1.2962,-1.2685,-1.3278,-1.452,-1.4427,-1.4672,-1.5097,-1.4808,-1.4898,-1.5317,-1.5264,-1.5723,0.0,0.0,0.0,0.0,0.0,0.0,0.0,0.0,-1.7364,-1.6546,0.0,0.0,-1.4962,-1.3429,-1.2785,-1.2766,-1.3884,-1.5601,-1.7842,0.0,0.0,0.0,0.0,0.0,0.0,0.0,-3.8477,0.0,0.0,0.0,0.0,0.0,-4.8523,-5.0426,-5.0225,-5.1403,-5.2262,-5.2026,-5.2026,-5.2241,-5.2836,-5.3094,-5.3382,-5.3817,-5.4257,-5.4222,-5.36,-5.3832,-5.37,-5.3111,-5.2026,-5.1112,-5.0442,-4.7874,-4.568,-4.3873,-4.2274,-4.0846,-3.9446,-3.7742,-3.5381,-3.2617,-2.9447,-2.6255,-2.3394,-2.2355,-2.0204,-1.7534,-1.5009,-1.2955,-1.1344,-1.0148,-1.0019,-1.0293,0.0,0.0,0.0,0.0,0.0,0.0,0.0,0.0,0.0,0.0,0.0,0.0,0.0,0.0,0.0,0.0,0.0,0.0,-0.9504,-1.0121,-1.0056,-0.9241,-0.9441,-0.8838,-0.7311,-0.9614,-0.9842,-0.7828,-1.0305,-1.2345,-1.3881,-1.4052,-1.4486,-1.5283,-1.5574,-1.6334,-1.7357,-1.6546,-1.6905,-1.7877,-1.7446,-1.7431,0.0,0.0,0.0,0.0,0.0,0.0,0.0,0.0,-1.657,-1.5279,-1.5273,0.0,0.0,-1.3908,-1.4405,-1.5432,-1.6883,-1.875,-2.0886,0.0,0.0,0.0,0.0,0.0,0.0,-4.0311,0.0,-4.2077,-4.299,-4.4414,0.0,-4.6329,-4.9137,-5.1129,-5.0575,-5.1781,-5.2702,-5.2702,-5.2719,-5.2942,-5.3515,-5.3581,-5.3895,-5.4431,-5.4512,-5.4512,-5.4512,-5.4175,-5.37,-5.3111,-5.176,-5.0365,-4.9088,-4.6196,-4.3654,-4.1488,-3.7532,-3.6047,-3.6661,-3.3483,-3.0305,-2.683,-2.1872,-1.8185,-1.5231,-1.0163,-0.7343,-0.6548,-0.9424,-0.9704,-0.8331,-0.6838,-0.7236,-0.8307,0.0,0.0,0.0,0.0,0.0,0.0,0.0,0.0,0.0,0.0,0.0,0.0,0.0,0.0,0.0,0.0,0.0,0.0,-1.326,-1.3107,-1.3565,-1.4963,-1.4174,-1.2804,-1.0833,-1.0816,-1.0535,-0.9892,-1.0766,-1.1588,-1.2391,-1.2527,-1.3352,-1.4824,-1.6459,-1.741,-1.7853,-1.8703,-1.9211,-1.9485,-1.9977,-1.9976,0.0,0.0,0.0,0.0,0.0,0.0,0.0,0.0,0.0,0.0,-1.3997,0.0,-1.3521,-1.3469,-1.4139,-1.5257,-1.7002,-1.9761,0.0,0.0,0.0,0.0,0.0,0.0,0.0,0.0,-4.4313,-4.5335,-4.5474,-4.6515,0.0,-4.8333,-5.0138,-5.1533,-5.1639,-5.2959,-5.3853,-5.3573,-5.4039,-5.4356,-5.4252,-5.446,-5.4586,-5.4494,-5.4948,-5.5009,-5.4512,-5.3994,-5.3399,-5.265,-5.0298,-4.8076,-4.606,-4.2708,-3.9171,-3.5594,-3.1777,-3.0507,-3.183,-3.1315,-2.6465,-1.8354,-1.4374,-1.0199,-0.5847,-0.1975,-0.0398,-0.0534,-0.2005,-0.3482,-0.4558,-0.4155,-0.4693,-0.5505,0.0,0.0,0.0,0.0,0.0,0.0,0.0,0.0,0.0,0.0,0.0,0.0,0.0,0.0,0.0,0.0,0.0,0.0,0.0,-1.6137,-1.6764,-1.8543,-1.7526,-1.62,-1.4628,-1.3892,-1.3091,-1.2088,-1.2109,-1.2278,-1.2539,-1.3692,-1.5112,-1.6788,-1.9105,-2.0172,-2.03,-2.125,-2.1409,-2.1176,-2.1225,-2.112,-2.086,0.0,0.0,0.0,0.0,0.0,0.0,0.0,0.0,0.0,-1.3001,0.0,0.0,-1.3873,-1.5195,-1.7142,-2.0295,-2.3344,0.0,0.0,-3.2845,-3.6133,-3.9001,0.0,0.0,0.0,-4.5963,-4.7099,-4.6986,-4.7851,0.0,-4.9449,-5.0906,-5.2126,-5.2484,-5.3602,-5.4329,-5.4055,-5.4479,-5.479,-5.4893,-5.5102,-5.5185,-5.5122,-5.5514,-5.5413,-5.4557,-5.3895,-5.2806,-5.1149,-4.8553,-4.5668,-4.2598,-3.8944,-3.4905,-3.085,-2.6624,-2.4691,-2.486,-2.5602,-2.0757,-1.143,-0.6143,-0.1579,0.2385,0.4543,0.5091,0.4414,0.3346,0.1741,-0.0134,-0.0939,-0.2014,-0.2957,0.0,0.0,0.0,0.0,0.0,0.0,0.0,0.0,0.0,0.0,-1.3009,0.0,0.0,0.0,0.0,0.0,0.0,0.0,0.0,-1.9077,-1.9778,-2.0823,-2.0008,-1.9181,-1.8478,-1.7961,-1.656,-1.4283,-1.4088,-1.3969,-1.3947,-1.66,-1.8695,-2.0391,-2.2691,-2.3667,-2.3631,-2.3523,-2.3097,-2.2432,-2.1524,-2.1212,-2.1316,-2.087,0.0,0.0,0.0,0.0,0.0,0.0,0.0,0.0,-1.2406,-1.2126,-1.2696,-1.4731,-1.7083,-2.0099,-2.5088,0.0,0.0,-3.3756,-3.6391,0.0,-4.1983,-4.3428,-4.4369,-4.5411,0.0,-4.7798,-4.7798,-4.8741,-4.9607,-4.9959,-5.1473,-5.2707,-5.3091,-5.3774,-5.4241,-5.4259,-5.4313,-5.4637,-5.5338,-5.541,-5.556,-5.5897,-5.5966,-5.5548,-5.4516,-5.3844,-5.203,-4.8953,-4.6256,-4.2875,-3.8703,-3.4564,-3.0537,-2.6321,-2.1649,-1.8192,-1.6188,-1.726,-1.3206,-0.5014,0.1997,0.6566,0.8853,0.914,0.8867,0.8053,0.7121,0.5776,0.4294,0.2283,0.0672,-0.0941,0.0,0.0,0.0,0.0,0.0,0.0,0.0,0.0,0.0,0.0,0.0,0.0,0.0,0.0,0.0,0.0,0.0,0.0,0.0,-2.1627,-2.2773,-2.5059,-2.3735,-2.2603,-2.1853,-1.8791,-1.6857,-1.6276,-1.593,-1.5396,-1.4717,-1.7794,-1.9971,-2.1528,-2.3106,-2.3463,-2.2847,-2.2684,-2.1832,-2.0566,-2.1146,-2.0914,-2.0259,-2.0589,-1.9726,0.0,0.0,0.0,0.0,0.0,0.0,0.0,-1.294,-1.2819,-1.328,-1.4955,-1.7653,-2.0984,-2.5025,-2.8645,0.0,0.0,-3.9064,-4.1749,-4.2741,-4.3875,-4.5127,-4.6449,-4.8152,-4.9375,-4.9375,-5.025,-5.0996,-5.1047,-5.1687,-5.2264,-5.2661,-5.3396,-5.3904,-5.3922,-5.4484,-5.4755,-5.4583,-5.455,-5.4571,-5.4699,-5.4991,-5.4832,-5.4042,-5.3024,-5.0749,-4.7008,-4.2865,-3.8228,-3.2873,-2.8403,-2.3604,-1.8596,-1.424,-1.04,-0.7181,-0.836,-0.3971,0.4807,0.6962,0.8842,1.0571,0.9915,0.9915,1.0306,0.8717,0.7247,0.5906,0.5503,0.2953,-0.0269,0.0,0.0,0.0,0.0,0.0,0.0,0.0,0.0,0.0,0.0,0.0,0.0,0.0,0.0,0.0,0.0,0.0,0.0,0.0,-2.3863,-2.4907,-2.6987,-2.6325,-2.5193,-2.3666,-2.1213,-1.927,-1.7912,-1.8346,-1.8119,-1.7282,-2.0492,-2.2989,-2.4819,-2.5285,-2.4819,-2.3553,-2.2788,-2.1419,-1.985,-2.0129,-1.9977,-1.9606,-1.9736,-1.8759,-1.7427,-1.7923,0.0,0.0,0.0,0.0,0.0,0.0,0.0,-1.4612,-1.658,-1.934,-2.2617,-2.6799,0.0,0.0,-3.8888,0.0,-4.2318,-4.3664,-4.4482,-4.5233,-4.6397,-4.808,-4.9487,-4.9788,-5.0717,-5.1583,-5.2054,-5.2307,-5.2599,-5.3096,-5.3524,-5.3757,-5.3646,-5.4012,-5.4326,-5.4324,-5.4361,-5.4429,-5.4598,-5.4813,-5.4492,-5.3416,-5.1814,-4.8843,-4.4282,-3.9395,-3.4077,-2.8315,-2.349,-1.9424,-1.5883,-1.0558,-0.5164,-0.0,-0.0933,0.24,0.9273,0.8728,0.938,1.0439,1.0313,1.0313,1.0439,0.9516,0.8451,0.7381,0.6713,0.5103,0.2822,0.0,0.0,0.0,0.0,0.0,0.0,0.0,0.0,0.0,0.0,0.0,0.0,0.0,0.0,0.0,0.0,0.0,0.0,0.0,-2.5595,-2.6328,-2.7486,-2.7656,-2.6757,-2.4633,-2.3464,-2.1786,-1.9497,-2.045,-2.0923,-2.0983,-2.3557,-2.5914,-2.7912,-2.7215,-2.5909,-2.4116,-2.2485,-2.0692,-1.8995,-1.855,-1.848,-1.8594,-1.8358,-1.7376,-1.628,-1.7227,-1.6753,-1.5811,-1.662,0.0,0.0,0.0,0.0,-1.6374,-1.8499,-2.107,-2.4157,-2.8604,0.0,-3.7205,-4.1947,-4.2603,0.0,-4.4465,-4.4931,-4.5168,-4.5845,-4.7378,-4.8837,-4.9644,-5.064,-5.17,-5.274,-5.2993,-5.3222,-5.3717,-5.3813,-5.3736,-5.3579,-5.3561,-5.3758,-5.4252,-5.4307,-5.4436,-5.4766,-5.481,-5.4183,-5.2674,-5.0276,-4.6423,-4.079,-3.5478,-2.9653,-2.346,-1.9268,-1.5966,-1.3464,-0.7165,-0.0797,0.5494,0.4692,0.6573,1.0212,0.8992,0.8984,0.9775,1.0316,1.0316,0.9911,0.9911,0.9383,0.8584,0.7381,0.6719,0.5921,0.0,0.0,0.0,0.0,0.0,0.0,0.0,0.0,0.0,0.0,-2.5029,-2.5266,-2.5213,-2.5185,0.0,0.0,0.0,0.0,-2.5451,0.0,0.0,-2.6837,-2.6759,-2.6284,-2.538,-2.2905,-2.1616,-2.1491,-2.0651,-2.2047,-2.5536,-2.5732,-2.6474,-2.7655,-2.6096,-2.4253,-2.2191,-1.9901,-1.7909,-1.6321,-1.6014,-1.5888,-1.5946,-1.6018,-1.5773,-1.5415,-1.5476,-1.5777,-1.6302,-1.7287,-1.7814,0.0,0.0,0.0,-1.8587,-1.9439,-2.1596,-2.4431,0.0,0.0,-3.9575,0.0,-4.421,-4.4976,0.0,0.0,-4.5405,0.0,-4.6751,-4.8231,-4.9539,-5.0574,-5.1584,-5.2711,-5.3363,-5.3717,-5.3813,-5.3813,-5.3813,-5.3756,-5.3774,-5.3811,-5.3884,-5.3884,-5.3901,-5.3954,-5.413,-5.3537,-5.1915,-4.8514,-4.3295,-3.6168,-3.062,-2.4066,-1.6441,-1.5287,-1.1724,-0.5734,-0.0133,0.4416,0.8048,0.7379,0.7648,0.8856,0.8051,0.8576,1.0164,0.9908,1.0309,1.0969,1.0714,1.0183,0.9513,0.8584,0.7517,0.6447,0.0,0.0,0.0,0.0,0.0,0.0,0.0,0.0,0.0,0.0,0.0,-2.5634,-2.5595,-2.5574,0.0,0.0,0.0,0.0,-2.5604,-2.5937,0.0,-2.5438,-2.5111,-2.4681,-2.4174,-2.25,-2.1432,-2.1051,-2.0304,-2.1829,-2.5443,-2.5546,-2.7223,-2.9939,-2.7152,-2.4911,-2.3031,-1.9595,-1.7408,-1.6249,-1.5268,-1.5426,-1.6095,-1.498,-1.4938,-1.5391,-1.4664,-1.4762,-1.5439,-1.6729,-1.7994,-1.9074,-1.9495,0.0,0.0,0.0,-2.2436,-2.5258,-3.0415,-3.4913,-3.8934,0.0,-4.3789,-4.4432,-4.4686,-4.4896,-4.5161,-4.5545,-4.6308,-4.7347,-4.8816,-5.0243,-5.1552,-5.2567,-5.3535,-5.4177,-5.43,-5.4416,-5.4482,-5.4364,-5.4246,-5.4088,-5.398,-5.3889,-5.3813,-5.3813,-5.3875,-5.2854,-5.032,-4.4625,-3.9971,-3.6684,-2.7556,-1.9322,-1.2235,-0.9835,-0.5754,0.0132,0.4139,0.698,0.8587,0.8318,0.872,0.9788,0.8981,0.9244,0.9905,1.018,1.0313,1.0439,1.0581,1.0316,0.9649,0.8853,0.7917,0.698,0.0,0.0,0.0,0.0,0.0,0.0,0.0,0.0,0.0,0.0,0.0,0.0,-2.5632,0.0,0.0,0.0,0.0,0.0,-2.57,0.0,0.0,0.0,-2.3769,-2.3182,-2.2589,-2.173,-2.0956,-2.0211,-1.9912,-2.1571,-2.497,-2.5354,-2.7726,-3.1486,-2.8121,-2.5507,-2.3377,-1.9543,-1.7433,-1.6587,-1.494,-1.5034,-1.6063,-1.5004,-1.5154,-1.5767,-1.4974,-1.507,-1.5765,0.0,0.0,-2.0069,-2.0671,-2.1661,0.0,0.0,0.0,0.0,0.0,0.0,-3.7358,-4.1292,-4.2831,-4.3578,0.0,-4.4789,-4.5054,-4.5436,-4.5912,-4.6726,-4.8039,-4.9662,-5.1229,-5.253,-5.3549,-5.4314,-5.4746,-5.4971,-5.5083,-5.4905,-5.4739,-5.4547,-5.4401,-5.4243,-5.4125,-5.4125,-5.4106,-5.1736,-4.6333,-4.0055,-3.4848,-3.1066,-2.1244,-1.3301,-0.7694,-0.4202,-0.0,0.4604,0.6519,0.803,0.8853,0.872,0.9386,1.0588,0.9785,0.9383,0.9516,1.0183,1.0183,0.9779,1.0452,1.0452,0.9915,0.912,0.8451,0.765,0.0,0.0,0.0,0.0,0.0,0.0,0.0,0.0,0.0,0.0,0.0,0.0,-2.5682,-2.5682,-2.5663,-2.5604,0.0,0.0,0.0,0.0,0.0,0.0,0.0,0.0,-2.1223,-2.0356,-1.9842,-1.9752,-1.9712,-2.1792,-2.5753,-2.6119,-2.7923,-3.0724,-2.8126,-2.5057,-2.167,-1.901,0.0,0.0,-1.4535,-1.3912,-1.4516,-1.6345,-1.6885,-1.6683,-1.6831,0.0,0.0,0.0,0.0,0.0,-2.2215,-2.2881,-2.3266,0.0,0.0,0.0,0.0,-3.2483,0.0,-3.8907,-4.1643,-4.3488,-4.3411,-4.4537,-4.5478,-4.489,-4.5562,-4.6595,-4.7457,-4.8769,-5.0454,-5.2794,-5.3371,-5.3924,-5.4924,-5.5145,-5.5193,-5.5167,-5.5167,-5.5167,-5.5122,-5.5064,-5.5038,-5.5038,-5.4924,-4.9932,-3.8711,-3.4986,-2.679,-1.2758,-0.8491,-0.4787,-0.1129,0.1657,0.4537,0.7512,0.6718,0.7553,0.9646,0.8984,0.9386,1.0588,0.9253,0.872,0.872,0.9383,0.9782,0.9779,1.0452,1.0721,1.0585,0.9915,0.9117,0.8454,0.0,0.0,0.0,0.0,0.0,0.0,0.0,0.0,0.0,0.0,0.0,0.0,0.0,-2.5701,-2.5683,-2.5664,-2.5697,0.0,0.0,0.0,0.0,0.0,0.0,0.0,0.0,-2.0268,-1.9604,-1.92,-1.8784,-2.0053,-2.2852,-2.3218,-2.4288,-2.5936,-2.6348,-2.5627,-2.3737,-1.9392,0.0,0.0,-1.5448,-1.589,-1.7583,-1.7488,-1.8775,-2.0597,-1.9897,0.0,0.0,0.0,0.0,0.0,-2.371,-2.4322,-2.4774,-2.3348,-2.4163,-2.6063,0.0,0.0,0.0,-3.6696,-3.9102,-4.089,-4.1573,-4.2963,-4.4157,-4.4463,-4.5382,-4.6413,-4.7174,-4.8565,-5.0065,-5.1399,-5.2332,-5.3305,-5.4426,-5.4729,-5.5054,-5.5691,-5.5635,-5.5538,-5.5593,-5.5461,-5.5362,-5.5364,-4.5369,-3.7982,-3.5158,-2.0232,-1.0856,-0.9008,-0.284,0.1711,0.4336,0.5786,0.6489,0.6666,0.6783,0.7643,0.8864,0.8684,0.9782,1.1637,1.1233,1.0969,1.0969,1.1233,1.1365,1.1365,1.1633,1.1376,1.0588,0.9915,0.9516,0.925,0.0,0.0,0.0,0.0,0.0,0.0,0.0,0.0,0.0,-2.5568,0.0,0.0,0.0,0.0,-2.5641,-2.566,-2.5665,-2.5434,-2.49,-2.4438,0.0,0.0,0.0,0.0,0.0,-2.0212,-1.9449,-1.8755,-1.8327,-1.8842,-2.0234,-2.0678,-2.1405,-2.2348,-2.3379,-2.3994,-2.3956,0.0,0.0,-1.8065,0.0,-1.7602,-1.9431,-2.0117,-2.1812,-2.3772,0.0,0.0,0.0,0.0,0.0,0.0,-2.5586,-2.5319,-2.5028,-2.392,-2.4651,-2.6139,-2.7444,0.0,0.0,-3.5309,-3.7398,-3.9139,-4.0887,-4.2234,-4.3239,-4.3889,-4.5042,-4.619,-4.7022,-4.8235,-4.9474,-5.0732,-5.1718,-5.2728,-5.388,-5.4433,-5.4967,-5.5644,-5.5825,-5.5896,-5.59,-5.5703,-5.3133,-4.7246,-3.7729,-2.8941,-2.1483,-0.815,-0.0977,-0.1266,0.3232,0.6485,0.8238,0.7827,0.7264,0.6679,0.6812,0.7557,0.8802,0.8624,0.9867,1.2289,1.2289,1.2553,1.282,1.282,1.282,1.282,1.282,1.2425,1.1641,1.084,1.0439,1.0044,0.0,0.0,0.0,0.0,0.0,0.0,0.0,0.0,-2.5499,-2.5495,0.0,0.0,0.0,0.0,0.0,-2.5606,-2.5589,-2.5365,-2.483,-2.4422,0.0,0.0,0.0,0.0,-2.0553,-2.0058,-1.9376,-1.8461,-1.8343,-1.8229,-1.8215,-1.8888,-1.9613,-2.0344,-1.9259,-1.9947,-2.1822,-2.0511,-1.9652,-1.9187,0.0,-1.8798,-1.9772,0.0,-2.5948,0.0,-2.8736,-2.9811,0.0,-3.0409,0.0,0.0,0.0,-2.5856,-2.3999,-2.4209,-2.515,-2.6131,0.0,0.0,0.0,-3.4771,-3.6548,-3.8456,-4.1261,-4.2279,-4.2747,-4.3048,-4.4411,-4.5865,-4.693,-4.7601,-4.8748,-5.0975,-5.1571,-5.2165,-5.331,-5.4252,-5.4858,-5.4994,-5.575,-5.6221,-5.6113,-5.5384,-4.7912,-3.0977,-3.2371,-2.2979,0.2303,0.0088,0.2222,1.1423,1.0165,0.9684,1.0286,0.8105,0.7313,0.8049,0.6677,0.716,0.9314,0.879,0.9901,1.2281,1.2281,1.2943,1.4006,1.4006,1.3875,1.3875,1.3875,1.3875,1.3744,1.2684,1.1894,1.1097,0.0,0.0,0.0,0.0,0.0,-2.5496,-2.5563,-2.5574,-2.5507,0.0,0.0,0.0,-2.5244,-2.5949,-2.6203,-2.5658,-2.5472,-2.5174,-2.4695,-2.427,-2.3823,-2.3285,-2.2718,-2.204,-2.1227,-2.0286,-1.9229,-1.8078,-1.728,-1.6663,-1.6153,-1.6176,-1.6417,-1.6904,-1.6798,-1.7171,-1.7781,-1.803,0.0,-2.0732,-2.0671,-2.2575,0.0,0.0,0.0,0.0,0.0,-3.4393,-3.4948,0.0,-3.432,-3.2103,0.0,0.0,-2.5393,-2.5912,-2.6256,-2.6563,-2.7059,0.0,0.0,0.0,0.0,0.0,-3.6398,-3.8133,-3.9661,-4.1015,-4.2705,-4.4325,-4.5515,-4.714,-4.8618,-4.9565,-5.0413,-5.1346,-5.2537,-5.2932,-5.3611,-5.4978,-5.5273,-5.5556,-5.6054,-4.4275,-3.5316,-3.2218,-1.1103,0.2048,0.2964,0.719,1.0421,1.2329,1.1386,1.0301,0.9211,0.8604,0.8013,0.7439,0.7017,0.6827,0.688,0.785,0.9877,1.2609,1.3005,1.4382,1.6094,1.5308,1.5047,1.5047,1.5047,1.4525,1.3875,1.3613,1.282,1.2025,0.0,0.0,0.0,-2.5217,-2.5697,-2.6025,-2.6451,-2.6229,-2.6064,0.0,0.0,0.0,-2.6033,-2.7314,-2.7765,-2.6738,-2.5814,-2.5267,-2.5156,-2.4441,-2.3709,-2.31,-2.2609,-2.2015,-2.1358,-1.9773,-1.8468,-1.7536,-1.594,-1.4686,-1.3744,-1.353,-1.3508,-1.3765,-1.4063,-1.4638,-1.5462,-1.6454,-1.8374,0.0,-2.314,0.0,0.0,-3.1245,-3.3568,0.0,0.0,0.0,-3.8598,-3.9552,-3.7682,0.0,0.0,0.0,0.0,-2.733,-2.8033,0.0,-2.8648,0.0,0.0,0.0,0.0,0.0,-3.6057,-3.7226,-3.8325,-4.0702,-4.2132,-4.3431,-4.4925,-4.6374,-4.7738,-4.891,-4.9785,-5.0681,-5.1783,-5.2214,-5.281,-5.3939,-5.4138,-5.1702,-4.5401,-3.5117,-2.4014,-1.2381,0.4073,1.2339,0.9579,1.2524,1.3794,1.2719,1.1507,1.0539,0.9822,0.8729,0.8005,0.7766,0.6087,0.5506,0.5922,0.6855,0.8837,1.1648,1.2681,1.4326,1.6208,1.608,1.6007,1.6089,1.6089,1.5699,1.5178,1.4656,1.4132,1.3468,0.0,0.0,-2.429,-2.555,-2.6062,-2.6673,-2.7755,-2.7237,-2.7035,0.0,-2.717,-2.6961,-2.8002,-2.9513,-2.9945,-2.8742,-2.6942,-2.5933,-2.6062,-2.4837,-2.3664,-2.2635,-2.2265,-2.1707,-2.091,-1.9002,-1.762,-1.6801,-1.4543,-1.2831,-1.158,-1.1258,-1.1157,-1.1219,-1.148,-1.2568,-1.4365,-1.5822,-1.8022,-2.0981,-2.5621,-2.8234,0.0,0.0,-3.6771,-3.7364,-3.9928,-4.0958,-4.1305,-4.2247,-4.0056,0.0,0.0,0.0,0.0,0.0,-3.0392,0.0,-3.0877,-3.175,0.0,0.0,0.0,0.0,-3.783,-3.7895,-3.8004,-4.083,-4.1705,-4.2556,-4.4406,-4.5255,-4.632,-4.8318,-4.9274,-5.011,-5.1132,-5.1843,-5.2308,-5.2434,-5.2673,-4.6564,-3.0566,-2.6836,-1.3374,1.5754,1.4215,1.3951,1.8457,1.5875,1.3674,1.2475,1.1016,1.0536,1.1035,0.8488,0.7646,0.864,0.4679,0.3597,0.5028,0.5274,0.6944,0.9703,1.1343,1.3217,1.5199,1.626,1.6797,1.7001,1.7001,1.7001,1.6872,1.5959,1.5434,1.5173,0.0,-1.9523,-2.2265,-2.0748,-2.3743,-2.6902,-2.8437,-2.8055,-2.8082,-2.9512,-3.0056,-3.0999,-3.2901,-3.2752,-3.2396,-3.2068,-3.0476,-2.8817,-2.7214,-2.5703,-2.4197,-2.2659,-2.2525,-2.1579,-1.969,-1.9446,-1.8052,-1.5395,-1.4052,-1.2757,-1.1443,-1.0939,-1.0734,-1.0756,-1.1234,-1.2292,-1.3907,-1.7272,-2.0759,-2.4189,-2.6385,-2.9884,-3.4069,-3.6787,-3.914,-4.1036,-4.2095,-4.2849,-4.328,-4.2662,-4.1666,-4.027,0.0,0.0,0.0,-3.3897,-3.3576,-3.3549,-3.4044,0.0,0.0,0.0,0.0,0.0,-3.4936,-3.591,-3.6951,-3.7468,-3.8161,-3.9335,-4.165,-4.3196,-4.4496,-4.5628,-4.7513,-4.9385,-5.092,-5.1316,-5.1618,-5.2115,-5.1947,-4.5835,-3.0635,-1.6368,-0.1683,1.379,1.9146,2.0759,1.8459,1.5664,1.3181,1.0895,1.0407,0.9937,0.9111,0.7763,0.803,0.9429,0.3819,0.0616,-0.0371,0.1727,0.4342,0.7034,0.9265,1.1604,1.4345,1.5939,1.6797,1.7001,1.7001,1.7001,1.7007,1.6742,1.6089,1.5303,-1.4795,-1.8278,-2.078,-2.0282,-2.3572,-2.7026,-2.9217,-2.9327,-2.9875,-3.1878,-3.3513,-3.4419,-3.4209,-3.4608,-3.4248,-3.2641,-3.127,-2.952,-2.7191,-2.5486,-2.3584,-2.1458,-2.0793,-1.9812,-1.8329,-1.7327,-1.6021,-1.4338,-1.2795,-1.1566,-1.0702,-1.049,-1.0968,-1.1904,-1.1917,-1.339,-1.5955,-1.8092,-2.1352,-2.5407,-2.9136,0.0,-3.6638,-3.9247,-4.1115,-4.2492,-4.2959,-4.3652,-4.4221,-4.2965,-4.2522,0.0,0.0,-3.8697,-3.8342,0.0,-3.657,-3.6972,-3.621,0.0,0.0,-3.6558,0.0,0.0,0.0,-3.5956,-3.625,-3.8238,-3.8515,-3.9165,-4.1702,-4.2607,-4.3467,-4.487,-4.6303,-4.7657,-4.8837,-4.9373,-4.9702,-4.9847,-4.2758,-3.1903,-1.6669,-0.071,1.276,2.2662,2.3973,2.2183,1.716,1.5257,1.2715,0.9349,0.9185,0.8864,0.8264,0.7158,0.7672,0.9691,0.2095,-0.2097,-0.284,-0.0492,0.2218,0.5208,0.7286,1.0067,1.3128,1.4873,1.6134,1.6845,1.6958,1.7001,1.7001,1.7001,1.6872,1.6608,-1.3347,-1.6005,-1.8682,-1.93,-2.3132,-2.6934,-2.9416,-3.0246,-3.1541,-3.4212,-3.6585,-3.7345,-3.557,-3.6667,-3.656,-3.4153,-3.2452,-3.0477,-2.8029,-2.58,-2.3369,-2.0637,-1.8979,-1.7837,-1.7242,-1.5099,-1.3882,-1.347,-1.1782,-1.0767,-1.0395,-1.0423,-1.155,-1.3436,-1.3392,-1.5408,-1.8769,-1.9551,-2.2524,-2.7189,-3.2229,-3.5407,-3.7541,-4.0666,-4.2188,-4.2685,-4.3311,-4.4087,-4.4706,-4.3599,-4.3464,-4.3355,-4.1253,-4.1496,0.0,0.0,0.0,0.0,0.0,0.0,0.0,0.0,0.0,-3.6517,0.0,0.0,0.0,-3.9104,-3.8954,-3.9033,-4.1473,-4.1791,-4.2223,-4.3751,-4.4824,-4.5511,-4.566,-4.6648,-4.7336,-4.7242,-3.382,-1.849,-0.2992,1.3415,2.5561,3.1499,2.6821,2.136,1.5963,1.4813,1.2451,0.8429,0.7322,0.7016,0.7531,0.6054,0.6185,0.7806,0.037,-0.3461,-0.3833,-0.2095,0.0246,0.3197,0.5382,0.8355,1.1943,1.3718,1.5309,1.6554,1.6829,1.6964,1.7007,1.713,1.7518,1.7905,-0.6042,-1.0762,-1.4337,-1.2496,-1.9766,-2.6407,-2.808,-2.9819,-3.2204,-3.5759,-3.7974,-3.9591,-4.0616,-4.0548,-4.0569,-4.0913,-3.736,0.0,-3.2241,0.0,-2.5261,-2.2117,-1.8877,-1.7049,-1.6855,-1.5117,-1.3691,-1.2743,-1.2443,-1.2091,-1.1774,-1.1566,-1.2442,-1.4314,-1.5882,-1.8126,-2.0823,-2.3142,-2.7259,-3.2449,-3.4312,-3.5044,0.0,-3.9265,-4.1024,-4.1736,-4.366,-4.4662,-4.509,0.0,-4.537,-4.5437,0.0,-4.4326,-4.4236,-4.3012,0.0,0.0,0.0,0.0,0.0,0.0,-4.0185,0.0,0.0,0.0,-3.6974,-3.5949,0.0,-3.5914,-3.7644,0.0,0.0,-3.9711,-4.2031,-4.3266,-4.1571,-4.3283,-4.5033,-4.5824,-3.4059,-1.9814,-0.4364,1.8236,3.1169,2.9201,2.4651,2.0197,1.6157,1.4923,1.2432,0.8307,0.4572,0.3764,0.606,0.4322,0.2591,0.1111,-0.0,-0.1605,-0.3951,-0.3703,-0.2341,-0.0,0.33,0.696,1.0796,1.3414,1.512,1.6075,1.6527,1.6824,1.713,1.7647,1.7905,1.8156,-0.4616,-0.8173,-1.0749,-0.9227,-1.3892,-1.8112,-1.8924,-2.5066,-3.1638,-3.7322,-4.0132,-4.1689,-4.191,0.0,0.0,0.0,0.0,-3.5916,0.0,0.0,-2.6082,-2.1799,-1.8965,-1.725,-1.6741,-1.5095,-1.3882,-1.3114,-1.3076,-1.29,-1.2589,-1.2908,-1.459,-1.7334,-1.8614,-2.1685,-2.5886,-2.6854,-2.9214,-3.2435,-3.398,-3.4546,-3.5088,-4.018,-4.2558,-4.3278,-4.4312,-4.4934,-4.515,0.0,-4.4868,0.0,0.0,0.0,0.0,-4.4471,0.0,0.0,0.0,0.0,0.0,0.0,0.0,0.0,-3.7467,0.0,-3.6462,0.0,0.0,0.0,0.0,0.0,0.0,0.0,-4.0324,-4.1084,-4.0663,-4.1927,-4.3072,-4.3496,-2.437,-0.2577,1.9205,2.7808,3.0393,2.6429,2.2049,1.7545,1.2986,1.3305,1.0685,0.3975,0.0357,-0.1449,-0.158,-0.0491,-0.037,-0.1108,-0.1849,-0.2839,-0.3951,-0.4564,-0.3817,-0.1965,-0.0122,0.329,0.7672,1.0411,1.3089,1.5714,1.6167,1.6474,1.6935,1.7573,1.8175,1.8938,-0.4018,0.0,-0.7468,-0.7288,-0.9702,-1.2254,-1.3985,-2.1528,-2.9551,-3.6556,-3.9831,-4.1858,-4.2743,-4.2922,0.0,0.0,-4.0217,-3.7624,0.0,0.0,-2.7211,-2.3064,-2.0027,0.0,0.0,-1.6001,-1.4804,-1.425,-1.4105,-1.3993,-1.3989,-1.4387,-1.6303,-1.9585,-2.1043,-2.4502,-2.929,-2.9941,-3.1564,-3.3837,-3.4879,-3.5935,-3.7326,-4.1383,-4.3625,-4.4624,-4.4857,-4.514,-4.526,-4.4132,-4.4736,0.0,-4.4579,-4.5055,-4.592,0.0,0.0,0.0,-4.4297,0.0,0.0,0.0,0.0,0.0,0.0,0.0,0.0,0.0,0.0,0.0,0.0,0.0,0.0,0.0,0.0,-3.9969,-4.0037,-4.0961,-4.1729,-4.202,-2.0992,0.2531,2.5483,2.4937,2.1742,1.8478,1.6171,1.356,1.0184,1.0895,0.8048,0.0687,-0.2937,-0.5491,-0.7194,-0.51,-0.3909,-0.3902,-0.4787,-0.5419,-0.5667,-0.6764,-0.6505,-0.514,-0.4144,-0.1212,0.2901,0.6168,0.9988,1.3816,1.4847,1.5771,1.6697,1.7645,1.859,1.9577,-0.3077,-0.348,-0.4351,-0.6291,-0.881,-1.2399,-1.7862,-2.1193,-2.5492,-3.2202,-3.5553,0.0,0.0,0.0,0.0,0.0,0.0,-3.9958,-3.7646,0.0,-2.9093,-2.7155,-2.2541,-2.0257,0.0,-1.8283,-1.6776,-1.6232,-1.5633,-1.5723,-1.6486,-1.5891,-1.7144,-1.9903,-2.2855,-2.603,-2.9379,-3.205,-3.5413,-3.8931,-3.8443,-4.0237,-4.3115,-4.2267,-4.3177,-4.4919,-4.5201,0.0,0.0,-4.566,-4.584,0.0,0.0,0.0,0.0,0.0,0.0,0.0,0.0,0.0,0.0,-4.1854,0.0,0.0,0.0,0.0,-3.8225,0.0,0.0,0.0,0.0,0.0,0.0,0.0,-3.9893,0.0,0.0,-3.9976,-4.1244,-4.2093,-3.0295,-1.6495,-0.2265,0.1547,0.3105,0.2984,0.5424,0.7698,0.9312,0.7666,0.462,0.0114,-0.4236,-0.7062,-0.8108,-0.8704,-0.8885,-0.8522,-0.8642,-0.9201,-1.0204,-1.153,-1.1631,-1.0624,-0.8809,-0.6605,-0.3846,0.1199,0.5644,0.9652,1.229,1.4548,1.6474,1.8066,1.9203,2.0335,0.0,0.0,-0.4013,-0.4235,-0.5531,-0.844,-1.4047,-1.707,-2.2141,0.0,-3.5582,0.0,0.0,-4.5212,-4.5509,0.0,0.0,-4.1338,-3.7742,-3.4728,0.0,0.0,0.0,-2.3983,0.0,0.0,-2.0399,-1.8674,-1.9021,-1.9203,-1.9179,-1.894,-2.0205,-2.2844,-2.5633,-2.8917,-3.2469,-3.4846,-3.6835,-3.8519,-3.8861,-4.0813,-4.3531,-4.3727,-4.4345,-4.5118,-4.5304,-4.5568,-4.582,-4.5873,-4.5978,-4.6125,-4.6115,-4.6092,-4.6114,-4.6187,-4.6111,-4.6144,0.0,0.0,-4.6269,-4.4013,0.0,0.0,0.0,0.0,0.0,0.0,0.0,0.0,0.0,0.0,-4.0827,0.0,0.0,-4.0507,0.0,-3.991,-4.0947,-4.1056,-2.9636,-1.6712,-0.3833,-0.2644,-0.3051,-0.3918,-0.3172,-0.2712,-0.2664,-0.0823,-0.1592,-0.5654,-0.9082,-1.0847,-1.088,-1.0471,-1.0608,-1.131,-1.0768,-1.0733,-1.1331,-1.2773,-1.3246,-1.2985,-1.2781,-1.1158,-0.8254,-0.4651,-0.0238,0.4301,0.6011,0.8474,1.137,1.5297,1.7152,1.7759,-0.4183,-0.4587,-0.4733,-0.4473,-0.5239,-0.7397,-1.1812,-1.4808,-2.0225,0.0,-3.4658,0.0,-4.444,0.0,-4.5607,0.0,-4.419,-4.192,-3.8201,-3.6212,0.0,-3.1005,-2.8617,0.0,0.0,-2.5238,-2.3595,-2.1917,-2.2072,-2.203,-2.1731,-2.1341,-2.2365,-2.4672,-2.73,-3.0369,-3.3778,-3.6697,-3.8545,-3.9575,-4.0526,-4.2073,-4.3868,-4.4629,-4.5045,-4.5264,-4.5436,-4.5736,-4.6017,-4.5933,-4.6035,-4.6182,-4.6111,-4.6123,-4.6156,-4.6215,-4.6387,-4.6664,-4.7263,-4.7551,0.0,-4.5591,-4.4268,0.0,-4.0036,0.0,-4.1026,0.0,0.0,0.0,0.0,0.0,0.0,-4.1521,-4.0996,-4.0134,0.0,-3.99,-4.0978,-4.1147,-3.3885,-2.5434,-1.6724,-1.5108,-1.4746,-1.504,-1.2891,-1.1636,-1.1833,-0.9076,-0.89,-1.213,-1.3321,-1.3769,-1.353,-1.3184,-1.3365,-1.4205,-1.3764,-1.3558,-1.3584,-1.5317,-1.5836,-1.5488,-1.6412,-1.5392,-1.2713,-0.9797,-0.6068,-0.1782,-0.0238,0.1692,0.4327,1.0039,1.2337,1.2212,-0.3599,-0.505,-0.6389,-0.7035,-0.7962,-0.9291,0.0,0.0,-1.9718,0.0,-3.2853,-3.8089,-4.4548,-4.5395,-4.5358,-4.4991,-4.3759,-4.1827,-3.9123,-3.7205,0.0,0.0,-3.0915,-2.9919,-3.0413,-2.783,-2.6301,0.0,-2.4824,-2.4259,-2.4185,-2.3139,-2.3595,-2.5385,-2.7897,-3.051,-3.3347,-3.7585,-4.0435,-4.2185,-4.3332,-4.4011,-4.4354,-4.4919,-4.5201,-4.5342,-4.5613,-4.5866,-4.608,-4.5944,-4.6029,-4.6195,-4.6128,-4.618,-4.6289,-4.6344,-4.6929,-4.7572,-4.7614,-4.8145,-4.8271,-4.6601,-4.597,0.0,0.0,0.0,-4.4573,0.0,0.0,0.0,0.0,0.0,0.0,-4.474,-4.1998,-3.9617,-3.8846,-3.9959,-4.1227,-4.2192,-4.2459,-4.1801,-3.9804,-3.499,-3.1307,-2.9686,-2.3203,-1.8921,-1.7924,-1.6648,-1.6715,-1.8636,-1.6769,-1.5804,-1.5901,-1.6611,-1.7092,-1.7111,-1.7521,-1.7572,-1.705,-1.8935,-1.9074,-1.8046,-1.957,-1.9087,-1.6833,-1.4325,-1.1362,-0.844,-0.6504,-0.5477,-0.423,0.2355,0.4577,0.3873,-0.5315,-0.697,-0.8837,-1.0266,-1.026,-1.0743,0.0,0.0,0.0,0.0,-3.321,-3.8095,-4.406,-4.517,-4.5226,-4.4524,-4.3386,0.0,0.0,0.0,0.0,-3.5974,-3.3835,-3.2887,-3.3214,-3.1526,0.0,-2.8809,0.0,-2.7148,-2.6795,-2.5706,-2.5607,-2.6518,-2.9274,-3.1732,-3.402,-3.795,-4.0991,-4.3158,-4.3794,-4.4194,-4.4503,-4.5099,-4.538,-4.5486,-4.5708,-4.5947,-4.6157,-4.6008,-4.6118,-4.6247,-4.6134,-4.6617,-4.7243,-4.726,-4.7846,-4.8606,-4.9251,-4.9508,-4.9461,-4.9022,-4.7779,-4.6336,0.0,0.0,0.0,0.0,0.0,0.0,0.0,0.0,0.0,0.0,0.0,0.0,0.0,0.0,0.0,-4.0934,-4.103,-4.0704,-3.977,-3.7445,-3.5155,-3.3112,-2.9114,-2.6081,-2.4437,-2.1544,-1.9884,-1.9677,-1.8167,-1.7509,-1.7759,-1.753,-1.7576,-1.7787,-1.7843,-1.8144,-1.8451,-1.9319,-1.9347,-1.8732,-1.955,-1.9319,-1.8254,-1.6915,-1.5536,-1.4152,-1.2953,-1.3323,-1.3875,-0.7766,-0.61,-0.7373,-0.7834,-0.9414,-1.1093,-1.2815,0.0,-1.4824,-1.6497,-1.9358,0.0,-3.146,-3.5493,0.0,-4.4292,-4.5475,-4.5587,-4.4796,-4.3981,0.0,-4.0268,0.0,0.0,-3.6879,-3.5843,-3.5326,-3.5522,-3.4501,0.0,-3.1281,0.0,0.0,-2.791,-2.691,-2.6704,-2.7259,-3.0032,-3.2217,-3.4172,-3.8976,-4.2161,-4.4013,-4.4459,-4.4724,0.0,-4.5285,-4.5503,-4.5619,-4.5775,-4.5998,-4.6181,-4.6068,-4.6416,-4.6836,-4.6718,-4.7342,-4.8128,-4.8122,-4.8697,-4.943,-4.9952,-5.0244,-5.0374,-5.0367,-4.948,-4.8403,-4.7554,-4.7711,-4.7889,0.0,-4.8121,-4.8503,0.0,0.0,0.0,0.0,0.0,0.0,0.0,0.0,0.0,-3.9554,-3.9786,-3.9556,-3.845,-3.802,-3.6751,-3.4233,-3.1674,-2.9149,-2.6682,-2.3944,-2.1771,-2.0465,-1.9376,-1.8818,-1.8743,-1.8534,-1.8408,-1.8582,-1.8279,-1.8263,-1.85,-1.8831,-1.8574,-1.791,-1.8964,-1.908,-1.8389,-1.7806,-1.7658,-1.7879,-1.9005,-2.0769,-2.2367,-2.0529,-1.8408,-1.7207,-1.1371,-1.2592,-1.388,0.0,0.0,0.0,-2.1974,-2.4306,0.0,-3.5696,0.0,-4.214,-4.554,-4.6502,-4.6582,-4.5782,0.0,-4.3913,-4.141,-4.0544,-3.9202,-3.7281,-3.7307,-3.7349,-3.7408,-3.6841,0.0,0.0,0.0,-3.0677,-2.8188,-2.7331,-2.7177,-2.775,-3.0267,-3.2544,-3.4912,-4.0433,-4.3506,-4.4706,-4.5147,-4.5342,-4.5342,-4.5483,-4.5712,-4.5921,-4.6048,-4.6221,-4.6362,-4.6287,-4.6928,-4.7734,-4.7606,-4.822,-4.897,-4.8962,-4.9543,-5.0192,-5.0225,-5.0627,-5.103,-5.097,-5.0841,-5.0491,-4.9721,-4.9584,-4.9583,-4.949,-4.8911,-4.8467,-4.8679,0.0,0.0,0.0,0.0,0.0,0.0,0.0,0.0,0.0,-3.8763,0.0,-3.4643,-3.5266,-3.4842,-3.2424,-2.9845,-2.7168,-2.4344,-2.3375,-2.1989,-2.0054,-1.9475,-1.9145,-1.8776,-1.8722,-1.8743,-1.8743,-1.8235,-1.7886,-1.7687,-1.7685,-1.7153,-1.6391,-1.791,-1.8267,-1.7695,-1.7812,-1.8642,-1.9993,-2.3705,-2.6635,-2.8975,-3.2205,-3.0138,-2.6571,-1.7248,-1.7988,0.0,0.0,0.0,-2.5952,-3.0503,-3.148,-3.3925,-4.0157,-4.3534,-4.6445,-4.9257,-4.9601,-4.9162,-4.8031,-4.7098,0.0,0.0,0.0,0.0,-3.9818,-3.8622,-3.8276,-3.8921,-3.7922,-3.662,0.0,-3.3174,-3.1067,-2.8828,-2.7506,-2.7288,-2.7998,-3.0179,-3.4085,-3.9256,-4.1954,-4.3891,-4.512,-4.536,-4.5466,-4.5483,-4.5742,-4.6293,-4.6959,-4.702,-4.7142,-4.7259,-4.7189,-4.7799,-4.8586,-4.8499,-4.9114,-4.9868,-4.9864,-5.0474,-5.1138,-5.1035,-5.1083,-5.1102,-5.0884,-5.0731,-5.0567,-5.0335,-5.0232,-5.008,-4.9853,-4.97,-4.9099,-4.7465,0.0,0.0,0.0,0.0,0.0,0.0,0.0,0.0,0.0,0.0,-3.3924,-2.3361,-2.2991,-2.3569,-2.3896,-1.7473,-1.3384,-1.3152,-1.6722,-1.7848,-1.5725,-1.5407,-1.5534,-1.6135,-1.5852,-1.5755,-1.5755,-1.569,-1.5861,-1.6228,-1.6156,-1.5856,-1.5343,-1.6509,-1.6862,-1.6862,-1.7578,-1.9094,-2.1233,-2.4515,-2.7155,-2.9469,-3.2904,-3.4946,-3.6247,-2.304,0.0,0.0,0.0,0.0,-3.223,-3.7178,-3.9365,-4.1334,-4.3876,-4.6401,-4.8625,-5.0424,-5.0875,-5.0679,-4.9683,-4.8859,-4.7632,-4.5891,-4.3722,-4.2316,-4.1885,-4.0404,0.0,-4.0701,-3.9917,-3.8452,-3.6373,-3.4363,-3.1781,-2.8718,-2.7467,-2.7271,-2.8169,-3.2068,-3.6562,-4.1302,-4.3044,-4.4443,-4.5568,-4.6216,-4.6515,-4.6599,-4.7144,-4.7612,-4.797,-4.801,-4.8385,-4.8775,-4.8252,-4.8671,-4.9423,-4.9382,-4.9926,-5.0591,-5.0641,-5.0917,-5.1162,-5.1027,-5.0848,-5.0677,-5.0657,-5.0329,-5.0059,-5.0164,-4.9949,-4.9673,-4.9542,-4.9359,-4.8403,-4.5751,-4.3428,0.0,0.0,0.0,0.0,0.0,0.0,-3.7512,0.0,0.0,0.0,0.0,-0.5518,-0.4953,-1.0878,-0.9348,-0.7793,-0.6997,-1.0989,-1.2679,-1.1128,-1.239,-1.3209,-1.353,-1.4221,-1.4572,-1.4572,-1.4363,-1.4625,-1.5095,-1.4648,-1.4446,-1.4401,-1.5924,-1.6509,-1.6626,-1.8052,-1.9203,-2.0371,-2.4021,-2.7,-2.9525,-3.3104,-3.6362,-3.9336,-2.9259,-2.9475,0.0,0.0,-3.5051,-3.8649,-4.2546,-4.6092,-4.8111,-4.7544,-4.8937,-5.0332,-5.123,-5.1756,-5.1775,-5.1121,-5.036,-4.9459,-4.8295,-4.5858,-4.4205,-4.3713,-4.2386,-4.1805,-4.2174,-4.1767,-4.0285,0.0,-3.5807,-3.3035,-2.9394,-2.8229,-2.8352,-2.9748,-3.481,-3.9009,-4.2389,-4.3973,-4.5207,-4.6199,-4.7216,-4.7677,-4.7825,-4.8457,-4.8815,-4.8976,-4.8984,-4.9591,-5.0261,-4.9509,-4.9699,-5.0269,-5.0263,-5.0607,-5.1016,-5.1128,-5.1069,-5.0908,-5.0706,-5.0414,-5.0167,-5.0195,-4.9717,-4.9318,-4.9551,-4.9171,-4.8795,-4.8833,-4.8381,-4.7035,-4.4014,-3.9822,0.0,0.0,0.0,0.0,0.0,0.0,0.0,0.0,0.0,0.0,0.0532,0.8439,1.0217,0.3969,0.1281,-0.0139,-0.0412,-0.4005,-0.6056,-0.6054,-0.8827,-1.0406,-1.054,-1.2117,-1.2935,-1.3053,-1.2891,-1.3125,-1.3735,-1.2993,-1.2984,-1.3444,-1.5213,-1.6155,-1.6626,-1.8169,-1.8616,-1.8829,-2.2643,-2.5872,-2.875,-3.2741,-3.6323,-3.9675,-3.639,-3.7212,-3.8168,-3.8689,-4.1829,-4.4786,-4.6385,-4.9634,-5.1836,-5.159,-5.1979,-5.2558,-5.3254,-5.3007,-5.2717,-5.2517,-5.1477,-5.0502,-4.9747,-4.8441,-4.6914,-4.5245,-4.4647,-4.3749,-4.2509,-4.2654,-4.164,0.0,0.0,-3.5109,-3.2261,-3.0917,-3.1778,-3.4674,-3.8056,-4.0822,-4.3034,-4.4949,-4.629,-4.7226,-4.8063,-4.8469,-4.8596,-4.8673,-4.9196,-4.9878,-4.9879,-5.0481,-5.126,-5.111,-5.1074,-5.1096,-5.1152,-5.1102,-5.0998,-5.1017,-5.0912,-5.0723,-5.0291,-5.0138,-4.9935,-4.93,-4.8833,-4.8524,-4.8601,-4.7994,-4.7429,-4.7611,-4.6712,-4.5176,-4.2771,-3.2563,-2.3781,0.0,0.0,0.0,0.0,0.0,-0.3984,-0.243,0.0,0.0,1.1676,1.0495,1.2121,1.9705,2.0902,1.8154,1.0875,0.6576,0.2947,-0.0,-0.3317,-0.5453,-0.6285,-0.8028,-0.9123,-0.9798,-0.9939,-1.0564,-1.1454,-1.1511,-1.1692,-1.2118,-1.3665,-1.5208,-1.6509,-1.675,-1.7091,-1.7812,-2.0199,-2.3336,-2.7012,-3.158,-3.5407,-3.9039,-4.0345,-4.0322,-4.0857,-4.2435,-4.4349,-4.6485,-4.8846,-5.0996,-5.2269,-5.2122,-5.2772,-5.3398,-5.3732,-5.3497,-5.3224,-5.3034,-5.2005,-5.1182,-5.0705,-4.9292,-4.8075,-4.7125,-4.5979,-4.5197,-4.4812,-4.3933,-4.2828,0.0,0.0,-3.7556,-3.5144,-3.4217,-3.521,-3.7908,-4.1023,-4.3339,-4.4972,-4.6752,-4.7779,-4.8261,-4.9031,-4.9426,-4.959,-5.0078,-5.0508,-5.084,-5.078,-5.1055,-5.1382,-5.1316,-5.1264,-5.1206,-5.1219,-5.1081,-5.0848,-5.0778,-5.0566,-5.0287,-4.9796,-4.9284,-4.8754,-4.8364,-4.7761,-4.7229,-4.7433,-4.6988,-4.6529,-4.636,-4.5493,-4.1817,-3.209,-2.5639,-1.8761,-0.9494,0.0,0.0,0.0,0.0,0.0,0.8759,0.0,1.1285,2.2352,2.0423,1.9333,2.1297,2.035,1.757,1.2875,1.0721,0.7859,0.3892,0.1411,-0.1036,-0.3289,-0.542,-0.6677,-0.7011,-0.8264,-0.9091,-0.9582,-1.0567,-1.2048,-1.3794,-1.4391,-1.5105,-1.5693,-1.6273,-1.6279,-1.6301,-1.8985,-2.1832,-2.5264,-2.9998,-3.4498,-3.8599,-4.3582,-4.3388,-4.3768,-4.5432,-4.6876,-4.8418,-5.0283,-5.1386,-5.1973,-5.1873,-5.2318,-5.2746,-5.298,-5.2843,-5.2728,-5.2752,-5.1877,-5.1324,-5.1467,-5.0093,-4.9151,-4.8819,-4.7402,0.0,-4.6424,-4.5198,-4.4219,-4.3511,-4.2157,-4.048,-3.8469,-3.7986,-3.9034,-4.1431,-4.3925,-4.5718,-4.6972,-4.8352,-4.9003,-4.9186,-4.988,-5.0251,-5.0444,-5.0991,-5.1269,-5.1323,-5.123,-5.1269,-5.1338,-5.1238,-5.114,-5.1102,-5.1171,-5.0923,-5.0587,-5.049,-5.0049,-4.9467,-4.8912,-4.8218,-4.7583,-4.7235,-4.6585,-4.6059,-4.6324,-4.5845,-4.5321,-4.5198,-4.1121,-3.4499,-2.4245,-1.517,-0.6047,0.3766,0.0,0.0,0.0,0.9947,0.0,2.0652,1.999,2.1505,2.818,2.6335,2.3405,2.0298,1.7764,1.5487,1.3611,1.273,1.0648,0.7042,0.5264,0.2912,-0.0103,-0.2061,-0.3449,-0.4564,-0.6261,-0.7407,-0.8191,-0.9783,-1.1733,-1.3789,-1.3789,-1.3913,-1.4152,-1.4852,-1.449,-1.3918,-1.6606,-1.9338,-2.2513,-2.7807,-3.2714,-3.7246,-4.6462,-4.7396,-4.8054,-4.8143,-5.0297,-5.1672,-5.0662,-5.0962,-5.1304,-5.1319,-5.0631,-5.0337,-5.0878,-5.0769,-5.0933,-5.1657,-5.086,-5.0817,-5.2029,-5.1092,-5.0436,0.0,0.0,-4.7917,-4.6731,-4.6275,-4.5952,-4.5644,0.0,0.0,-4.2435,-4.2215,-4.3381,-4.5668,-4.6762,-4.7818,-4.8819,-4.9428,-4.9771,-4.9932,-5.0544,-5.0907,-5.1084,-5.1031,-5.1084,-5.1186,-5.1044,-5.1084,-5.1179,-5.1054,-5.0907,-5.0856,-5.1128,-5.0709,-5.0116,-5.0111,-4.9315,-4.8236,-4.7529,-4.7065,-4.6595,-4.5845,-4.5321,-4.5093,-4.5285,-4.4434,-4.3697,-4.4039,-3.2376,-2.2132,-2.2271,0.0173,1.8778,1.8956,0.0,0.0,0.0,3.6469,0.0,3.4145,3.2557,3.0464,2.7628,2.5013,2.2173,1.8841,1.6843,1.5331,1.443,1.3028,1.1408,0.9515,0.8279,0.6287,0.3514,0.2834,0.0893,-0.2455,-0.3348,-0.5159,-0.7633,-0.92,-1.0183,-1.091,-1.091,-1.1273,-1.1877,-1.1877,-1.1261,-1.0543,-1.2669,-1.5209,-1.8437,-2.4622,-2.9885,-3.4516,-4.7482,-4.8237,-4.8858,-4.888,-5.0024,-5.0798,-5.0421,-5.0846,-5.0976,-5.0301,-4.999,-4.9923,-5.0201,-5.0575,-5.093,0.0,-5.0955,-5.0793,0.0,-5.0767,-5.0365,-4.9524,-4.9152,-4.868,-4.7982,-4.7488,-4.7219,-4.7352,-4.6947,-4.6571,-4.6244,-4.6377,-4.6919,-4.7845,-4.8788,-4.9387,-4.9739,-5.0324,-5.0658,-5.0802,-5.0811,-5.1261,-5.191,-5.1897,-5.224,-5.2744,-5.2618,-5.2481,-5.2302,-5.1992,-5.1683,-5.1307,-5.0656,-5.0297,-4.9997,-4.9391,-4.8546,-4.7499,-4.6237,-4.5281,-4.4568,-4.4193,-4.3822,-4.3597,-4.4054,-4.3856,-4.3713,-4.4039,-3.22,-1.9001,-0.9807,0.6856,2.2248,3.151,3.5668,0.0,3.7342,0.0,3.5389,3.3969,3.2405,3.0437,2.7739,2.5468,2.2759,1.939,1.725,1.5312,1.3578,1.2768,1.1573,0.991,0.9497,0.8183,0.6008,0.5045,0.3353,0.0895,-0.0925,-0.3442,-0.6786,-0.7218,-0.8587,-1.0415,-1.0415,-1.1023,-1.1756,-1.1756,-1.1265,-1.0422,-1.1076,-1.3014,-1.6132,-2.1647,-2.6663,-3.1513,-4.8894,-4.9275,-4.9507,-4.94,-4.9983,-5.0304,-4.9795,-4.9975,-4.9915,-4.9283,-4.937,-4.9531,-4.9654,-5.0335,-5.0821,-5.0993,-5.0938,-5.0798,-5.058,-5.0361,-5.0045,-4.9554,-4.9169,-4.8995,-4.9144,-4.8858,-4.8896,-4.938,-4.8938,-4.889,-4.9168,-4.9044,-4.9254,-4.9758,-5.0287,-5.0516,-5.0547,-5.1175,-5.143,-5.1463,-5.158,-5.199,-5.2563,-5.2563,-5.2923,-5.3452,-5.3241,-5.2973,-5.2548,-5.148,-5.0796,-5.0084,-4.8466,-4.7866,-4.7774,-4.798,-4.7187,-4.5955,-4.4647,-4.3731,-4.3146,-4.2998,-4.2814,-4.274,-4.3279,-4.3519,-4.3713,-4.4039,-3.2302,-1.7792,-0.4031,0.9812,2.3659,3.7405,3.8483,3.7476,3.7071,3.6102,3.4892,3.351,3.2499,3.0818,2.7987,2.6058,2.3553,2.0068,1.7697,1.5606,1.3647,1.2946,1.1804,1.0223,1.0403,0.9399,0.7082,0.6289,0.5054,0.351,-0.0234,-0.3242,-0.5533,-0.627,-0.7492,-0.9076,-0.9076,-0.9562,-1.0539,-1.0172,-0.9562,-0.9089,-0.9103,-1.0677,-1.3592,-1.8822,-2.3992,-2.8981,-5.049,-5.0374,-5.005,-4.9731,-5.0116,-5.0097,-4.8978,-4.8568,-4.8421,-4.8458,-4.885,-4.9182,-4.9333,-5.003,-5.0668,-5.1043,-5.0852,-5.0804,-5.0936,-4.9958,-4.9606,-5.0181,-4.9109,-4.899,-4.9945,-5.0115,-5.0637,-5.1541,-5.0991,-5.0926,-5.1288,-5.0528,-5.0617,-5.1386,-5.1302,-5.1269,-5.1308,-5.1917,-5.2108,-5.2027,-5.2696,-5.3008,-5.3066,-5.3069,-5.326,-5.353,-5.3275,-5.2858,-5.211,-4.9934,-4.872,-4.7665,-4.5043,-4.3998,-4.399,-4.5823,-4.5303,-4.3912,-4.2909,-4.2497,-4.2378,-4.2349,-4.243,-4.2618,-4.3157,-4.3459,-4.3473,-4.2718,-3.0942,-1.6489,-0.2434,1.1422,2.4968,3.7908,3.8599,3.7358,3.6951,3.5785,3.4463,3.3162,3.2992,3.1668,2.8239,2.6769,2.4537,2.0926,1.8225,1.6026,1.4441,1.3363,1.2117,1.0698,1.0963,0.9873,0.6983,0.6774,0.6113,0.5084,-0.0711,-0.3639,-0.3937,-0.5782,-0.6644,-0.6641,-0.6766,-0.7378,-0.8233,-0.7378,-0.6888,-0.6775,-0.6881,-0.8525,-1.1237,-1.6407,-2.1562,-2.674,-5.0336,-5.0453,-5.042,-4.9653,-4.9364,-4.9172,-4.9057,-4.8676,-4.8532,-4.8885,-4.9132,-4.9333,-4.9579,-5.0172,-5.0924,-5.1761,-5.1277,-5.0815,-5.0571,-5.0234,-4.9738,-4.9014,-4.8733,-4.8692,-4.8935,-4.9115,-5.006,-5.1895,-5.1933,-5.2408,-5.3224,-5.2336,-5.2025,-5.2211,-5.2083,-5.1967,-5.193,-5.2636,-5.2839,-5.266,-5.2564,-5.3067,-5.3828,-5.3771,-5.4353,-5.5152,-5.5072,-5.4142,-5.2551,-4.9882,-4.8207,-4.6726,-4.3615,-4.2526,-4.2419,-4.2836,-4.3035,-4.2827,-4.1663,-4.2135,-4.2926,-4.2925,-4.3541,-4.4295,-4.4703,-4.4618,-4.1219,-2.9808,-1.5833,-0.1074,1.3973,2.7827,3.7859,4.0585,3.9764,3.8312,3.7011,3.6072,3.4872,3.3114,3.3307,3.2497,2.9602,2.8313,2.6108,2.2271,1.9301,1.6778,1.472,1.3183,1.1894,1.0806,1.1032,1.0042,0.7773,0.7345,0.5781,0.3095,0.1558,-0.0728,-0.3947,-0.4439,-0.4559,-0.4674,-0.5665,-0.6526,-0.7255,-0.751,-0.6896,-0.5798,-0.5886,-0.7408,-1.0008,-1.4048,-1.8776,-2.3712,-5.1017,-5.0601,-5.0164,-4.9434,-4.9019,-4.8746,-4.8623,-4.8495,-4.8495,-4.8746,-4.9177,-4.9531,-4.9684,-5.024,-5.1001,-5.2012,-5.1791,-5.1587,-5.1599,-5.1261,-5.0754,-5.0012,-4.9829,-4.9984,-5.0462,-5.0922,-5.18,-5.3183,-5.3397,-5.3533,-5.362,-5.2991,-5.2647,-5.2589,-5.2326,-5.2165,-5.2141,-5.2896,-5.3079,-5.2965,-5.3145,-5.36,-5.4164,-5.4337,-5.2854,-5.0446,-4.9048,-4.5252,-4.0855,-4.0648,-3.9466,-3.8275,-3.9271,-3.5523,-3.1974,-3.8616,-4.1383,-4.2228,-4.1972,-4.2686,-4.3623,-4.4173,-4.4776,-4.5375,-4.5746,-4.5365,-4.0624,-2.5435,-1.5984,-0.3693,1.8534,2.7872,3.4255,4.0617,4.009,3.8486,3.7235,3.6399,3.5359,3.3787,3.3625,3.2793,3.0592,2.8831,2.6266,2.2595,1.9928,1.7465,1.5216,1.3579,1.2111,1.088,1.0724,0.9859,0.8139,0.7065,0.5676,0.385,0.2182,0.0122,-0.2098,-0.2961,-0.3576,-0.3943,-0.4685,-0.5548,-0.6403,-0.6162,-0.5916,-0.555,-0.4977,-0.6472,-0.9423,-1.2677,-1.7075,-2.2037,-5.1634,-5.0563,-4.9693,-4.9201,-4.8885,-4.8568,-4.8132,-4.8269,-4.8421,-4.8495,-4.9209,-4.974,-4.9795,-5.0418,-5.123,-5.2239,-5.2558,-5.2827,-5.3083,-5.2492,-5.1982,-5.1651,-5.1347,-5.1609,-5.2449,-5.3323,-5.4034,-5.4619,-5.4681,-5.4318,-5.3538,-5.3102,-5.2817,-5.267,-5.231,-5.2144,-5.2218,-5.2931,-5.3151,-5.3003,-5.331,-5.2865,-5.2029,-5.2201,-4.8599,-4.2967,-3.9189,-3.2884,-2.6782,-2.9261,-2.9662,-2.9984,-3.5114,-2.9403,-2.3262,-3.5831,-4.0816,-4.24,-4.3047,-4.3878,-4.483,-4.5989,-4.6336,-4.5788,-4.3713,-4.261,-3.7059,-1.9171,-1.5519,-0.699,2.1103,2.4718,2.7532,3.9949,4.0067,3.8351,3.7562,3.6723,3.5797,3.468,3.4023,3.298,3.1384,2.8997,2.6195,2.2919,2.0458,1.8047,1.5821,1.4196,1.2551,1.1132,1.0542,0.9604,0.8196,0.653,0.5666,0.5316,0.196,0.0247,-0.0,-0.1481,-0.2838,-0.3951,-0.3951,-0.4566,-0.5425,-0.3948,-0.4193,-0.53,-0.4564,-0.6027,-0.9191,-1.2051,-1.6111,-2.0953,-5.0664,-4.9917,-4.945,-4.915,-4.8746,-4.8402,-4.8249,-4.8345,-4.8532,-4.8952,-4.9502,-4.9955,-5.0188,-5.1202,-5.2263,-5.3286,-5.4149,-5.4349,-5.3552,-5.3092,-5.2521,-5.1794,-5.1394,-5.1269,-5.1417,-5.2507,-5.3591,-5.4685,-5.4476,-5.4472,-5.4629,-5.3531,-5.2845,-5.2621,-5.2437,-5.2435,-5.257,-5.318,-5.3292,-5.2806,-5.0671,-4.6652,-4.1839,-4.064,-3.9388,-3.7311,-3.0023,-2.6964,-2.6423,-2.7082,-3.1383,-3.647,-3.6561,-3.6643,-3.731,-4.0891,-4.3079,-4.4231,-4.3868,-4.5453,-4.7434,-4.8751,-4.8904,-4.5137,-3.1238,-2.7975,-1.956,0.9826,1.5604,2.0781,3.8494,4.0459,4.0033,4.1909,4.0479,3.8743,3.7844,3.6845,3.5963,3.5277,3.4596,3.3702,3.2476,3.0104,2.7491,2.4785,2.1092,1.8313,1.6655,1.4058,1.2524,1.2279,1.105,0.9581,0.7748,0.6958,0.5696,0.4174,0.3076,0.1602,-0.0,-0.0247,-0.1728,-0.3951,-0.3955,-0.4077,-0.4073,-0.1605,-0.1604,-0.333,-0.4931,-0.6884,-0.9182,-1.2063,-1.5779,-2.0201,-5.0484,-4.994,-4.9617,-4.9358,-4.8971,-4.8641,-4.8532,-4.8658,-4.885,-4.9052,-4.9637,-5.0266,-5.0932,-5.1605,-5.258,-5.4056,-5.4582,-5.4796,-5.4745,-5.4652,-5.4349,-5.3752,-5.3414,-5.3281,-5.3355,-5.3987,-5.4424,-5.4691,-5.4326,-5.3996,-5.3766,-5.2772,-5.2201,-5.1995,-5.1784,-5.1868,-5.2169,-5.1982,-4.9532,-4.5598,-4.429,-4.1232,-3.7469,-3.7527,-3.2593,-2.5646,-2.5918,-2.1471,-1.6426,-2.2695,-2.7643,-3.1982,-3.6795,-3.4685,-3.2205,-4.1298,-4.5132,-4.6451,-4.6673,-4.7751,-4.6924,-3.91,-3.6534,-3.1909,-1.6426,-1.1959,-0.4814,1.7314,2.2135,2.6942,4.1984,4.3415,4.2162,4.1708,4.0027,3.8511,3.7831,3.7173,3.6451,3.5736,3.4911,3.3937,3.2745,3.0265,2.7621,2.5021,2.2134,1.9529,1.7313,1.496,1.3459,1.3143,1.1114,0.948,0.8164,0.7399,0.6485,0.5669,0.4931,0.2958,-0.0,0.037,-0.037,-0.1851,-0.3337,-0.3956,-0.383,-0.2594,-0.2222,-0.2466,-0.493,-0.7131,-0.9182,-1.2038,-1.6148,-2.1031,-5.0527,-5.0163,-4.9906,-4.9617,-4.9283,-4.9023,-4.8834,-4.9038,-4.9276,-4.9463,-5.0033,-5.0761,-5.1724,-5.2193,-5.2993,-5.4376,-5.4602,-5.487,-5.5376,-5.5501,-5.5521,-5.5393,-5.5229,-5.5165,-5.523,-5.5382,-5.5148,-5.4512,-5.3925,-5.3159,-5.2258,-5.1574,-5.1159,-5.0961,-5.0753,-5.0929,-5.1167,-4.9223,-4.5052,-3.9596,-3.7661,-3.4559,-3.118,-3.1516,-2.4307,-1.4726,-1.9677,-1.7507,-1.3396,-2.1176,-2.6153,-3.0576,-3.8706,-3.5334,-3.0653,-4.2572,-4.4589,-4.309,-4.3593,-4.1285,-3.5931,-2.4096,-2.0526,-1.6035,-0.1165,0.3556,0.8794,2.2995,2.6561,3.0537,4.1694,4.2472,4.1243,4.0831,3.9235,3.7902,3.765,3.7227,3.6738,3.6178,3.5161,3.4089,3.3001,3.0395,2.7796,2.5238,2.283,2.0405,1.7839,1.5747,1.431,1.3332,1.0826,0.9098,0.845,0.7469,0.6903,0.6903,0.6171,0.4318,0.1356,0.0986,0.0493,-0.0123,-0.21,-0.3337,-0.3956,-0.4948,-0.4324,-0.3204,-0.6035,-0.7986,-0.9549,-1.2813,-1.7297,-2.2552,-5.068,-5.0355,-5.0163,-4.974,-4.9655,-4.9491,-4.9118,-4.9296,-4.9751,-5.0572,-5.1026,-5.163,-5.2429,-5.3417,-5.3974,-5.3891,-5.4472,-5.4786,-5.459,-5.4355,-5.4587,-5.5372,-5.5496,-5.5489,-5.5394,-5.5333,-5.4873,-5.3973,-5.2994,-5.1905,-5.0769,-5.016,-4.974,-4.9443,-4.9443,-4.9619,-4.9527,-4.4035,-4.128,-3.9976,-3.2613,-2.502,-1.7785,-1.4976,-1.1774,-0.8564,-0.6378,-1.6189,-2.9694,-2.6556,-3.2407,-4.1522,-4.472,-4.6313,-4.7101,-4.7933,-3.8999,-2.8587,-2.7614,-1.6923,-0.5953,-0.5491,-0.5827,-0.214,1.3605,1.7233,2.1713,3.7407,4.0898,4.1267,4.1778,4.1038,4.0183,3.9835,3.8272,3.7201,3.7398,3.6758,3.6331,3.6573,3.5454,3.4366,3.3592,3.1015,2.85,2.6421,2.288,2.0177,1.8428,1.6168,1.4145,1.2196,0.9925,0.8561,0.7978,0.6646,0.6039,0.6039,0.5925,0.5804,0.5308,0.1726,-0.0,-0.0,-0.0247,-0.1605,-0.4199,-0.7809,-0.7924,-0.5916,-0.9355,-1.0443,-1.066,-1.5047,-1.9679,-2.4441,-5.1549,-5.083,-5.0306,-5.012,-4.983,-4.9589,-4.9491,-4.9932,-5.0433,-5.0772,-5.1518,-5.2285,-5.3035,-5.3089,-5.3194,-5.3521,-5.335,-5.3365,-5.3721,-5.3646,-5.4164,-5.5473,-5.5736,-5.6115,-5.6684,-5.5942,-5.5255,-5.4707,-5.3107,-5.1898,-5.1038,-5.0532,-4.9584,-4.8149,-4.7716,-4.5049,-4.0739,-3.9103,-3.3536,-2.5638,-2.3614,-1.6795,-0.8031,-0.99,-0.9498,-0.9125,-1.7696,-2.5069,-3.1299,-3.5007,-4.0547,-4.6429,-4.8663,-4.9897,-4.8528,-3.8814,-1.8885,0.0044,0.0258,-0.2446,-0.3641,0.3365,0.7159,1.3589,3.0437,3.3897,3.5121,4.0694,4.247,4.291,4.2297,4.1252,4.0232,3.9556,3.8347,3.7567,3.7734,3.7411,3.7084,3.6909,3.5659,3.4114,3.2438,3.027,2.81,2.5838,2.2615,2.0082,1.8457,1.5019,1.2413,1.1212,0.9101,0.7937,0.7869,0.6528,0.5916,0.5916,0.5925,0.5927,0.5804,0.2219,0.037,-0.0,-0.0864,-0.3703,-0.7554,-0.8036,-0.8142,-0.8122,-0.9947,-1.1206,-1.2604,-1.7481,-2.2552,-2.8033,-5.2572,-5.1799,-5.1245,-5.1155,-5.0628,-5.0229,-5.0239,-5.061,-5.1013,-5.1258,-5.2073,-5.2847,-5.3357,-5.2895,-5.2585,-5.2655,-5.2053,-5.1892,-5.244,-5.2627,-5.3524,-5.5422,-5.5849,-5.6364,-5.6976,-5.6072,-5.5301,-5.461,-5.2978,-5.1661,-5.0642,-5.0003,-4.8505,-4.6489,-4.4743,-4.0456,-3.4386,-3.2493,-2.5703,-1.6179,-1.6122,-1.1705,-0.5577,-0.9421,-1.2101,-1.5232,-2.6559,-3.2224,-3.5303,-4.214,-4.6798,-5.0159,-5.2122,-4.9187,-4.2017,-2.6506,-0.4088,1.6511,2.0373,1.3765,0.795,1.692,2.1675,2.73,3.9103,4.1753,4.1529,4.0786,4.1671,4.2399,4.1765,4.0934,4.003,3.8991,3.8301,3.7826,3.7682,3.7594,3.7432,3.7077,3.5648,3.3907,3.2005,2.95,2.7189,2.5252,2.2088,1.9352,1.7248,1.3568,1.129,1.0837,0.875,0.7788,0.8122,0.6653,0.5919,0.5921,0.5925,0.5929,0.5806,0.2466,-0.0493,-0.3087,-0.2959,-0.5306,-0.9167,-0.8384,-0.8488,-0.9339,-1.0653,-1.2656,-1.5193,-2.0491,-2.606,-3.1891,-5.3611,-5.3404,-5.3161,-5.3015,-5.2231,-5.1558,-5.1427,-5.1269,-5.1509,-5.2305,-5.2862,-5.3234,-5.3386,-5.317,-5.2448,-5.1091,-5.0769,-5.0605,-5.0718,-5.1138,-5.2551,-5.517,-5.5865,-5.607,-5.5887,-5.5557,-5.4727,-5.3425,-5.2381,-5.0963,-4.9164,-4.7977,-4.6293,-4.4162,-4.0465,-3.6345,-3.1889,-2.3858,-1.8371,-1.4736,-1.1035,-1.0233,-1.1408,-1.3008,-1.9073,-2.6994,-2.8985,-3.5837,-4.4361,-4.7157,-5.0342,-5.3418,-5.508,-4.4338,-2.8084,-1.2621,0.2255,1.6503,2.9371,3.3261,3.4412,3.7234,3.8189,3.8222,3.7508,3.8469,3.9414,3.8689,3.9692,4.0505,3.9901,3.9788,3.9381,3.8116,3.7906,3.7695,3.7091,3.7007,3.7007,3.6993,3.54,3.3862,3.2585,2.8954,2.611,2.4601,2.1113,1.7649,1.4509,1.2087,1.0905,1.0905,0.8896,0.8125,0.8509,0.678,0.5921,0.5927,0.5927,0.5931,0.569,0.2467,-0.2959,-0.9565,-0.6293,-0.6033,-0.8008,-0.9239,-0.9592,-0.9562,-1.2217,-1.5142,-1.8692,-2.4403,-3.0253,-3.611,-5.4439,-5.413,-5.374,-5.2992,-5.2087,-5.1643,-5.2163,-5.1964,-5.2058,-5.285,-5.3312,-5.3461,-5.3259,-5.2109,-5.1111,-5.0486,-4.9872,-4.9701,-5.0338,-5.0549,-5.1425,-5.2963,-5.4153,-5.5008,-5.5674,-5.5122,-5.4634,-5.4157,-5.2426,-5.0694,-4.8968,-4.7063,-4.3965,-3.988,-3.6006,-2.9601,-2.1572,-1.9126,-1.5751,-1.2033,-1.3338,-1.4284,-1.5498,-2.0815,-2.5449,-2.9907,-3.5558,-4.2011,-4.8137,-5.0813,-5.2968,-5.4717,-5.4946,-3.6478,-1.3863,-0.9343,1.0466,3.13,3.2929,3.347,3.3873,3.5065,3.5858,3.6602,3.7842,3.8279,3.876,4.0373,4.0658,4.0788,4.0858,4.0807,4.0445,3.9747,3.9547,3.9348,3.9161,3.8924,3.8366,3.7414,3.5936,3.3858,3.1065,2.8473,2.5882,2.3068,1.9657,1.6549,1.3952,1.2664,1.1598,1.1012,0.9013,0.8125,0.8509,0.6785,0.5925,0.5927,0.5933,0.4694,0.2343,-0.1477,-0.4067,-0.5684,-0.616,-0.6893,-0.8005,-0.8973,-1.0061,-1.139,-1.5038,-1.8745,-2.2863,-2.9597,-3.5551,-4.0844,-5.5258,-5.49,-5.4484,-5.3894,-5.3003,-5.2517,-5.2845,-5.2598,-5.248,-5.2847,-5.3162,-5.313,-5.2498,-5.1233,-5.0279,-4.977,-4.9177,-4.8828,-4.911,-4.9408,-4.999,-5.0666,-5.1794,-5.3181,-5.4839,-5.4665,-5.4216,-5.3536,-5.1625,-4.9098,-4.6237,-4.4228,-4.0582,-3.5352,-3.1594,-2.5374,-1.7675,-1.6686,-1.4133,-1.1075,-1.4737,-1.7619,-2.0385,-2.6621,-3.1514,-3.5839,-4.1451,-4.6536,-5.0772,-5.2893,-5.4747,-5.6095,-5.5482,-3.8025,-1.6498,-0.9715,0.9691,2.9832,3.3989,3.4469,3.3995,3.458,3.4796,3.5223,3.6684,3.7438,3.8326,4.0054,4.0558,4.0873,4.1283,4.1317,4.1122,4.0781,4.0567,4.0394,3.9895,3.9656,3.8901,3.7419,3.5804,3.357,3.0367,2.7482,2.4062,1.9843,1.7547,1.5358,1.3296,1.2473,1.1704,1.1113,0.9042,0.8,0.8264,0.5919,0.4439,0.3947,0.395,0.2467,-0.0247,-0.3694,-0.5423,-0.5548,-0.6891,-0.8113,-0.9095,-0.9694,-1.1362,-1.3975,-1.8112,-2.2667,-2.7777,-3.4816,-4.0321,-4.4631,-5.5908,-5.557,-5.5281,-5.5255,-5.4463,-5.3765,-5.3543,-5.3109,-5.2748,-5.2494,-5.2647,-5.2391,-5.1322,-5.0538,-4.9769,-4.9144,-4.8615,-4.8073,-4.7573,-4.7993,-4.8331,-4.8429,-4.9054,-5.0498,-5.2927,-5.3577,-5.3045,-5.1343,-4.9509,-4.6267,-4.1622,-3.9998,-3.639,-3.1206,-2.7867,-2.3543,-1.8772,-1.6338,-1.4013,-1.2482,-1.6277,-2.0891,-2.5985,-3.1172,-3.7108,-4.3162,-4.6195,-4.9315,-5.2271,-5.3785,-5.5783,-5.7401,-5.6384,-4.5547,-3.0085,-1.413,0.1065,1.6062,3.1547,3.425,3.3192,3.533,3.5199,3.4628,3.5005,3.6471,3.8017,3.8599,3.9881,4.0958,4.1465,4.1549,4.1515,4.1463,4.1361,4.0931,3.9966,3.9639,3.8959,3.7313,3.5378,3.3128,3.0455,2.6123,2.1232,1.5896,1.5082,1.4257,1.2715,1.1752,1.1273,1.1273,0.9086,0.788,0.7899,0.4681,0.2218,0.0616,0.0616,-0.0493,-0.2466,-0.493,-0.6655,-0.7883,-0.836,-0.9329,-1.0785,-1.102,-1.3347,-1.7255,-2.1533,-2.698,-3.3107,-3.9826,-4.4472,-4.7773,-5.5801,-5.5481,-5.5229,-5.5028,-5.4073,-5.3579,-5.4175,-5.3087,-5.2391,-5.2939,-5.2282,-5.1615,-5.1396,-4.9907,-4.9137,-4.9502,-4.8328,-4.797,-4.8771,-4.7272,-4.6755,-4.7689,-4.6983,-4.6456,-4.6451,-4.8589,-4.8291,-4.5232,-4.4045,-4.1099,-3.6371,-3.5615,-3.3426,-2.9939,-2.7173,-2.4229,-2.1279,-1.8905,-1.9069,-2.1107,-2.321,-2.7413,-3.278,-3.7148,-4.1134,-4.4619,-4.6694,-4.9218,-5.1894,-5.4478,-5.6349,-5.7449,-5.6543,-4.534,-3.1765,-2.7558,-1.4863,0.1261,1.7005,2.1295,2.4141,3.6214,3.909,3.8607,3.7441,3.7456,3.8385,4.036,4.1086,4.1607,4.24,4.2871,4.3289,4.3654,4.3344,4.2842,4.2216,4.0979,3.9626,3.8301,3.6029,3.3511,3.0781,2.413,1.8588,1.5451,1.3989,1.2831,1.1976,1.1507,1.1273,1.1273,0.9086,0.788,0.7899,0.4681,0.0985,-0.2842,-0.2842,-0.358,-0.5053,-0.6775,-0.7388,-0.7258,-0.8845,-0.993,-1.0872,-1.2857,-1.631,-2.098,-2.6612,-3.2509,-3.8489,-4.3907,-4.7966,-5.095,-5.5904,-5.5613,-5.535,-5.5198,-5.4476,-5.4037,-5.4322,-5.3273,-5.2498,-5.2791,-5.1861,-5.107,-5.0661,-4.9419,-4.8721,-4.8915,-4.8022,-4.761,-4.805,-4.6667,-4.6002,-4.6314,-4.4958,-4.2989,-4.0682,-4.0372,-4.0142,-4.0142,-3.8078,-3.5433,-3.2096,-3.2647,-3.1381,-2.8528,-2.8065,-2.6679,-2.4859,-2.3802,-2.4739,-2.6924,-2.8784,-3.2329,-3.6991,-4.0295,-4.3135,-4.5573,-4.7782,-5.0526,-5.3491,-5.5582,-5.6942,-5.7755,-5.7496,-5.1154,-4.2196,-3.355,-2.4707,-1.4115,0.2383,0.6514,1.0017,2.6225,2.9763,3.0797,3.6983,3.872,3.9399,4.0873,4.1825,4.2695,4.3367,4.3898,4.4449,4.5005,4.4419,4.3663,4.3001,4.1518,4.0,3.8405,3.5709,3.2174,2.737,2.1992,1.7487,1.4222,1.3181,1.223,1.1129,1.1144,1.1273,1.1273,0.9086,0.788,0.7899,0.4681,0.0985,-0.2963,-0.3582,-0.4567,-0.5669,-0.6896,-0.7625,-0.8105,-1.0048,-1.2059,-1.4001,-1.6918,-2.1254,-2.6502,-3.2707,-3.8069,-4.2811,-4.7552,-5.072,-5.2714,-5.6017,-5.5769,-5.5511,-5.5467,-5.5023,-5.4572,-5.4221,-5.3471,-5.2777,-5.2454,-5.1601,-5.0696,-4.9993,-4.9152,-4.8564,-4.8317,-4.7778,-4.7446,-4.7201,-4.6329,-4.5551,-4.5018,-4.2603,-3.9265,-3.5125,-3.0966,-3.066,-3.4448,-3.2007,-3.0135,-2.8769,-3.0787,-3.0471,-2.841,-2.9958,-2.993,-2.8763,-2.9049,-2.9862,-3.1187,-3.2959,-3.591,-3.9525,-4.1967,-4.4329,-4.652,-4.9057,-5.2296,-5.5451,-5.6541,-5.7485,-5.8205,-5.8455,-5.7711,-5.3923,-3.9277,-3.4699,-3.0572,-1.3231,-0.9583,-0.6574,1.065,1.401,1.7089,3.2393,3.8449,4.0971,4.1652,4.2852,4.3945,4.4582,4.5059,4.5473,4.5897,4.5169,4.4266,4.3319,4.1918,4.0304,3.8185,3.4763,2.9963,2.3422,2.0016,1.654,1.2786,1.2221,1.1386,0.9926,1.066,1.1031,1.091,0.8967,0.7883,0.7774,0.493,0.1724,-0.1849,-0.3208,-0.4441,-0.5421,-0.6399,-0.7739,-0.9441,-1.1595,-1.4713,-1.8369,-2.1945,-2.6937,-3.2935,-3.8869,-4.3256,-4.6755,-5.0772,-5.2836,-5.3568,-5.5835,-5.5755,-5.5603,-5.5384,-5.4976,-5.4541,-5.4104,-5.337,-5.2777,-5.2454,-5.1601,-5.0839,-5.038,-4.9492,-4.894,-4.8877,-4.8369,-4.8335,-4.8825,-4.6929,-4.5461,-4.4791,-3.9032,-3.395,-2.9778,-2.3242,-2.1697,-2.5702,-2.6425,-2.7038,-2.7555,-3.0112,-3.1802,-3.2643,-3.2922,-3.2954,-3.2716,-3.2219,-3.323,-3.5068,-3.5232,-3.7558,-4.1154,-4.3379,-4.5726,-4.806,-5.0029,-5.2901,-5.5848,-5.6629,-5.7757,-5.8784,-5.8231,-5.7987,-5.7327,-5.4507,-5.3453,-4.9382,-3.172,-2.7103,-2.3337,-0.6932,-0.2783,0.1715,1.8697,3.3309,4.3716,4.5142,4.534,4.5635,4.6941,4.6987,4.688,4.7118,4.6604,4.5722,4.4464,4.2752,4.0816,3.8595,3.2856,2.7273,2.2566,1.814,1.4518,1.2051,1.0283,0.8967,0.8236,0.9332,0.97,0.9217,0.8619,0.8013,0.7276,0.6052,0.333,-0.0862,-0.2959,-0.4441,-0.5421,-0.6399,-0.7739,-0.9438,-1.2729,-1.693,-2.1829,-2.6444,-3.258,-3.949,-4.3637,-4.7445,-5.0832,-5.2938,-5.3849,-5.3932,-5.5814,-5.5918,-5.5897,-5.5632,-5.5234,-5.48,-5.4425,-5.3626,-5.2975,-5.2688,-5.1831,-5.0858,-4.9896,-4.8084,-4.7396,-4.8407,-4.7356,-4.7176,-4.8217,-4.6667,-4.4783,-4.2589,-3.5791,-2.9717,-2.452,-1.9517,-1.8274,-2.0869,-2.284,-2.522,-2.8137,-3.1606,-3.362,-3.4303,-3.5113,-3.5356,-3.5146,-3.5113,-3.5881,-3.7,-3.6965,-3.8822,-4.19,-4.377,-4.5977,-4.8553,-5.1732,-5.4659,-5.6976,-5.7193,-5.8023,-5.8905,-5.8406,-5.8344,-5.8332,-5.8109,-5.7831,-5.5868,-4.802,-4.5929,-4.1705,-2.4056,-1.9737,-1.2273,1.6569,2.5201,3.0929,4.4379,4.7259,4.7506,4.7978,4.8362,4.8476,4.8065,4.7104,4.5913,4.4598,4.2306,3.8966,3.4306,2.9889,2.5295,2.0359,1.6623,1.3337,1.0627,0.9076,0.7994,0.738,0.8601,0.8973,0.836,0.8378,0.7643,0.5912,0.4069,0.1849,-0.074,-0.3575,-0.5179,-0.5421,-0.6886,-0.8818,-1.1439,-1.6545,-2.1689,-2.6979,-3.3232,-3.8916,-4.4015,-4.7655,-5.0578,-5.2935,-5.396,-5.4316,-5.4239]},{"header":{"parameterUnit":"m.s-1","parameterCategory":1,"la1":30.6,"la2":28.766,"lo1":-90.7593,"lo2":-88.6598,"dy":0.0162,"dx":0.0183,"nx":116,"ny":114,"refTime":"2024-05-17T06:00:00:Z","depth":0,"parameterNumber":3,"parameterNumberName":"V-component_of_WINDS"},"data":[0.0,0.0,0.0,0.0,0.0,0.0,0.0,0.0,0.0,0.0,0.0,0.0,0.0,0.0,0.0,0.0,0.0,0.0,0.0,0.0,0.0,0.0,0.0,0.0,0.0,0.0,0.0,0.0,0.0,0.0,0.0,0.0,0.0,0.0,0.0,0.0,0.0,0.0,0.0,0.0,0.0,0.0,0.0,0.0,0.0,0.0,0.0,0.0,0.0,0.0,0.0,0.0,0.0,0.0,0.0,0.0,0.0,0.0,0.0,0.0,0.0,0.0,0.0,0.0,0.0,0.0,0.0,0.0,0.0,0.0,0.0,0.0,0.0,0.0,0.0,0.0,0.0,0.0,0.0,0.0,0.0,0.0,0.0,0.0,0.0,0.0,0.0,0.0,0.0,0.0,0.0,0.0,0.0,0.0,0.0,0.0,0.0,0.0,0.0,0.0,0.0,0.0,0.0,0.0,0.0,0.0,0.0,0.0,0.0,0.0,0.0,0.0,0.0,0.0,0.0,0.0,0.0,0.0,0.0,0.0,0.0,0.0,0.0,0.0,0.0,0.0,0.0,0.0,0.0,0.0,0.0,0.0,0.0,0.0,0.0,0.0,0.0,0.0,0.0,0.0,0.0,0.0,0.0,0.0,0.0,0.0,0.0,0.0,0.0,0.0,0.0,0.0,0.0,0.0,0.0,0.0,0.0,0.0,0.0,0.0,0.0,0.0,0.0,0.0,0.0,0.0,0.0,0.0,0.0,0.0,0.0,0.0,0.0,0.0,0.0,0.0,0.0,0.0,0.0,0.0,0.0,0.0,0.0,0.0,0.0,0.0,0.0,0.0,0.0,0.0,0.0,0.0,0.0,0.0,0.0,0.0,0.0,0.0,0.0,0.0,0.0,0.0,0.0,0.0,0.0,0.0,0.0,0.0,0.0,0.0,0.0,0.0,0.0,0.0,0.0,0.0,0.0,0.0,0.0,0.0,0.0,0.0,0.0,0.0,0.0,0.0,0.0,0.0,0.0,0.0,0.0,0.0,0.0,0.0,0.0,0.0,0.0,0.0,0.0,0.0,0.0,0.0,0.0,0.0,0.0,0.0,0.0,0.0,0.0,0.0,0.0,0.0,0.0,0.0,0.0,0.0,0.0,0.0,0.0,0.0,0.0,0.0,0.0,0.0,0.0,0.0,0.0,0.0,0.0,0.0,0.0,0.0,0.0,0.0,0.0,0.0,0.0,0.0,0.0,0.0,0.0,0.0,0.0,0.0,0.0,0.0,0.0,0.0,0.0,0.0,0.0,0.0,0.0,0.0,0.0,0.0,0.0,0.0,0.0,0.0,0.0,0.0,0.0,0.0,0.0,0.0,0.0,0.0,0.0,0.0,0.0,0.0,0.0,0.0,0.0,0.0,0.0,0.0,0.0,0.0,0.0,0.0,0.0,0.0,0.0,0.0,0.0,0.0,0.0,0.0,0.0,0.0,0.0,0.0,0.0,0.0,0.0,0.0,0.0,0.0,0.0,0.0,0.0,0.0,0.0,0.0,0.0,0.0,0.0,0.0,0.0,0.0,0.0,0.0,0.0,0.0,0.0,0.0,0.0,0.0,0.0,0.0,0.0,0.0,0.0,0.0,0.0,0.0,0.0,0.0,0.0,0.0,0.0,0.0,0.0,0.0,0.0,0.0,0.0,0.0,0.0,0.0,0.0,0.0,0.0,0.0,0.0,0.0,0.0,0.0,0.0,0.0,0.0,0.0,0.0,0.0,0.0,0.0,0.0,0.0,0.0,0.0,0.0,0.0,0.0,0.0,0.0,0.0,0.0,0.0,0.0,0.0,0.0,0.0,0.0,0.0,0.0,0.0,0.0,0.0,0.0,0.0,0.0,0.0,0.0,0.0,0.0,0.0,0.0,0.0,0.0,0.0,0.0,0.0,0.0,0.0,0.0,0.0,0.0,0.0,0.0,0.0,0.0,0.0,0.0,0.0,0.0,0.0,0.0,0.0,0.0,0.0,0.0,0.0,0.0,0.0,0.0,0.0,0.0,0.0,0.0,0.0,0.0,0.0,0.0,0.0,0.0,0.0,0.0,0.0,0.0,0.0,0.0,0.0,0.0,0.0,0.0,0.0,0.0,0.0,0.0,0.0,0.0,0.0,0.0,0.0,0.0,0.0,0.0,0.0,0.0,0.0,0.0,0.0,0.0,0.0,0.0,0.0,0.0,0.0,0.0,0.0,0.0,0.0,0.0,0.0,0.0,0.0,0.0,0.0,0.0,0.0,0.0,0.0,0.0,0.0,0.0,0.0,0.0,0.0,0.0,0.0,0.0,0.0,0.0,0.0,0.0,0.0,0.0,0.0,0.0,0.0,0.0,0.0,0.0,0.0,0.0,0.0,0.0,0.0,0.0,0.0,0.0,0.0,0.0,0.0,0.0,0.0,0.0,0.0,0.0,0.0,0.0,0.0,0.0,0.0,0.0,0.0,0.0,0.0,0.0,0.0,0.0,0.0,0.0,0.0,0.0,0.0,0.0,0.0,0.0,0.0,0.0,0.0,0.0,0.0,0.0,0.0,0.0,0.0,0.0,0.0,0.0,0.0,0.0,0.0,0.0,0.0,0.0,0.0,0.0,0.0,0.0,0.0,0.0,0.0,0.0,0.0,0.0,0.0,0.0,0.0,0.0,0.0,0.0,0.0,0.0,0.0,0.0,0.0,0.0,0.0,0.0,0.0,0.0,0.0,0.0,0.0,0.0,0.0,0.0,0.0,0.0,0.0,0.0,0.0,0.0,0.0,0.0,0.0,0.0,0.0,0.0,0.0,0.0,0.0,0.0,0.0,0.0,0.0,0.0,0.0,0.0,0.0,0.0,0.0,0.0,0.0,0.0,0.0,0.0,0.0,0.0,0.0,0.0,0.0,0.0,0.0,0.0,0.0,0.0,0.0,0.0,0.0,0.0,0.0,0.0,0.0,0.0,0.0,0.0,0.0,0.0,0.0,0.0,0.0,0.0,0.0,0.0,0.0,0.0,0.0,0.0,0.0,0.0,0.0,0.0,0.0,0.0,0.0,0.0,0.0,0.0,0.0,0.0,0.0,0.0,0.0,0.0,0.0,0.0,0.0,0.0,0.0,0.0,0.0,0.0,0.0,0.0,0.0,0.0,0.0,0.0,0.0,0.0,0.0,0.0,0.0,0.0,0.0,0.0,0.0,0.0,0.0,0.0,0.0,0.0,0.0,0.0,0.0,0.0,0.0,0.0,0.0,0.0,0.0,0.0,0.0,0.0,0.0,0.0,0.0,0.0,0.0,0.0,0.0,0.0,0.0,0.0,0.0,0.0,0.0,0.0,0.0,0.0,0.0,0.0,0.0,0.0,0.0,0.0,0.0,0.0,0.0,0.0,0.0,0.0,0.0,0.0,0.0,0.0,0.0,0.0,0.0,0.0,0.0,0.0,0.0,0.0,0.0,0.0,0.0,0.0,0.0,0.0,0.0,0.0,0.0,0.0,0.0,0.0,0.0,0.0,0.0,0.0,0.0,0.0,0.0,0.0,0.0,0.0,0.0,0.0,0.0,0.0,0.0,0.0,0.0,0.0,0.0,0.0,0.0,0.0,0.0,0.0,0.0,0.0,0.0,0.0,0.0,0.0,0.0,0.0,0.0,0.0,0.0,0.0,0.0,0.0,0.0,0.0,0.0,0.0,0.0,0.0,0.0,0.0,0.0,0.0,0.0,0.0,0.0,0.0,0.0,0.0,0.0,0.0,0.0,0.0,0.0,0.0,0.0,0.0,0.0,0.0,0.0,0.0,0.0,0.0,0.0,0.0,0.0,0.0,0.0,0.0,0.0,0.0,0.0,0.0,0.0,0.0,0.0,0.0,0.0,0.0,0.0,0.0,0.0,0.0,0.0,0.0,0.0,0.0,0.0,0.0,0.0,0.0,0.0,0.0,0.0,0.0,0.0,0.0,0.0,0.0,0.0,0.0,0.0,0.0,0.0,0.0,0.0,0.0,0.0,0.0,0.0,0.0,0.0,0.0,0.0,0.0,0.0,0.0,0.0,0.0,0.0,0.0,0.0,0.0,0.0,0.0,0.0,0.0,0.0,0.0,0.0,0.0,0.0,0.0,0.0,0.0,0.0,0.0,0.0,0.0,0.0,0.0,0.0,0.0,0.0,0.0,0.0,0.0,0.0,0.0,0.0,0.0,0.0,0.0,0.0,0.0,0.0,0.0,0.0,0.0,0.0,0.0,0.0,0.0,0.0,0.0,0.0,0.0,0.0,0.0,0.0,0.0,0.0,0.0,0.0,0.0,0.0,0.0,0.0,0.0,0.0,0.0,0.0,0.0,0.0,0.0,0.0,0.0,0.0,0.0,0.0,0.0,0.0,0.0,0.0,0.0,0.0,0.0,0.0,0.0,0.0,0.0,0.0,0.0,0.0,0.0,0.0,0.0,0.0,0.0,0.0,0.0,0.0,0.0,0.0,0.0,0.0,0.0,0.0,0.0,0.0,0.0,0.0,0.0,0.0,0.0,0.0,0.0,0.0,0.0,0.0,0.0,0.0,0.0,0.0,0.0,0.0,0.0,0.0,0.0,0.0,0.0,0.0,0.0,0.0,0.0,0.0,0.0,0.0,0.0,0.0,0.0,0.0,0.0,0.0,0.0,0.0,0.0,0.0,0.0,0.0,0.0,0.0,0.0,0.0,0.0,0.0,0.0,0.0,0.0,0.0,0.0,0.0,0.0,0.0,0.0,0.0,0.0,0.0,0.0,0.0,0.0,0.0,0.0,0.0,0.0,0.0,0.0,0.0,0.0,0.0,0.0,0.0,0.0,0.0,0.0,0.0,0.0,0.0,0.0,0.0,0.0,0.0,0.0,0.0,0.0,0.0,0.0,0.0,0.0,0.0,0.0,0.0,0.0,0.0,0.0,0.0,0.0,0.0,0.0,0.0,0.0,0.0,0.0,0.0,0.0,0.0,0.0,0.0,0.0,0.0,0.0,0.0,0.0,0.0,0.0,0.0,0.0,0.0,0.0,0.0,0.0,0.0,0.0,0.0,0.0,0.0,0.0,0.0,0.0,0.0,0.0,0.0,0.0,0.0,0.0,0.0,0.0,0.0,0.0,0.0,0.0,0.0,0.0,0.0,0.0,0.0,0.0,0.0,0.0,0.0,0.0,0.0,0.0,0.0,0.0,0.0,0.0,0.0,0.0,0.0,0.0,0.0,0.0,0.0,0.0,0.0,0.0,0.0,0.0,0.0,0.0,0.0,0.0,0.0,0.0,0.0,0.0,0.0,0.0,0.0,0.0,0.0,0.0,0.0,0.0,0.0,0.0,0.0,0.0,0.0,0.0,0.0,0.0,0.0,0.0,0.0,0.0,0.0,0.0,0.0,0.0,0.0,0.0,0.0,0.0,0.0,0.0,0.0,0.0,0.0,0.0,0.0,0.0,0.0,0.0,0.0,0.0,0.0,0.0,0.0,0.0,0.0,0.0,0.0,0.0,0.0,0.0,0.0,0.0,0.0,0.0,0.0,0.0,0.0,0.0,0.0,0.0,0.0,0.0,0.0,0.0,0.0,0.0,0.0,0.0,0.0,0.0,0.0,0.0,0.0,0.0,0.0,0.0,0.0,0.0,0.0,0.0,0.0,0.0,0.0,0.0,0.0,0.0,0.0,0.0,0.0,0.0,0.0,0.0,0.0,0.0,0.0,0.0,0.0,0.0,0.0,0.0,0.0,0.0,0.0,0.0,0.0,0.0,0.0,0.0,0.0,0.0,0.0,0.0,0.0,0.0,0.0,0.0,0.0,0.0,0.0,0.0,0.0,0.0,0.0,0.0,0.0,0.0,0.0,0.0,0.0,0.0,0.0,0.0,0.0,0.0,0.0,0.0,0.0,0.0,0.0,0.0,0.0,0.0,0.0,0.0,0.0,0.0,0.0,0.0,0.0,0.0,0.0,0.0,0.0,0.0,0.0,0.0,0.0,0.0,0.0,0.0,0.0,0.0,0.0,0.0,0.0,0.0,0.0,0.0,0.0,0.0,0.0,0.0,0.0,0.0,0.0,0.0,0.0,0.0,0.0,0.0,0.0,0.0,0.0,0.0,0.0,0.0,0.0,-2.7151,0.0,0.0,0.0,0.0,0.0,0.0,0.0,0.0,0.0,0.0,0.0,0.0,0.0,0.0,0.0,0.0,0.0,0.0,0.0,0.0,0.0,0.0,0.0,0.0,-0.162,-0.1561,-0.1444,-0.1999,-0.2828,-0.4,0.0,0.0,0.0,0.0,0.0,-1.3546,-1.4992,-1.6019,-1.66,-1.5801,-1.5028,-1.4301,-1.3883,-1.3587,-1.3313,0.0,0.0,0.0,0.0,0.0,0.0,0.0,0.0,0.0,0.0,0.0,0.0,0.0,0.0,0.0,0.0,0.0,0.0,0.0,0.0,0.0,0.0,0.0,0.0,0.0,0.0,0.0,0.0,0.0,0.0,0.0,0.0,0.0,0.0,0.0,0.0,0.0,0.0,0.0,0.0,0.0,0.0,0.0,0.0,0.0,0.0,0.0,0.0,0.0,0.0,0.0,0.0,0.0,0.0,0.0,0.0,0.0,0.0,0.0,0.0,0.0,0.0,0.0,0.0,0.0,0.0,0.0,0.0,0.0,0.0,0.0,-3.0232,0.0,0.0,0.0,0.0,0.0,0.0,0.0,0.0,0.0,0.0,0.0,0.0,0.0,0.0,0.0,0.0,0.0,0.0,0.0,0.0,0.0,-0.1337,-0.1377,-0.1347,-0.1241,-0.1068,-0.1822,-0.281,-0.3981,-0.5666,0.0,0.0,0.0,-1.3184,-1.47,-1.5971,-1.67,-1.6836,-1.5724,-1.4884,-1.4312,-1.4986,-1.4754,-1.3861,-1.439,0.0,0.0,0.0,0.0,0.0,0.0,0.0,0.0,0.0,0.0,0.0,0.0,0.0,0.0,0.0,0.0,0.0,0.0,0.0,0.0,0.0,0.0,0.0,0.0,0.0,0.0,0.0,0.0,0.0,0.0,0.0,0.0,0.0,0.0,0.0,0.0,0.0,0.0,0.0,0.0,0.0,0.0,0.0,0.0,0.0,0.0,0.0,0.0,0.0,0.0,0.0,0.0,0.0,0.0,0.0,0.0,0.0,0.0,0.0,0.0,0.0,0.0,0.0,-3.518,-3.6111,-3.5457,-3.7155,-3.9001,-4.0552,-3.6508,-3.5503,-3.6438,-3.4001,0.0,0.0,0.0,0.0,0.0,0.0,0.0,0.0,0.0,0.0,0.0,0.0,0.0,0.0,0.0,0.0,0.0,0.0,0.0,-0.0612,-0.0395,-0.035,-0.0309,-0.0332,-0.0445,-0.1551,-0.4024,-0.5462,0.0,0.0,-1.2607,-1.444,-1.6504,-1.6967,-1.741,-1.7834,-1.6274,-1.5506,-1.5498,-1.6417,-1.7124,-1.7641,-1.7173,-1.7229,-1.7567,0.0,0.0,0.0,0.0,0.0,0.0,0.0,0.0,0.0,0.0,0.0,0.0,0.0,0.0,0.0,0.0,0.0,0.0,0.0,0.0,0.0,0.0,0.0,0.0,0.0,0.0,0.0,0.0,0.0,0.0,0.0,0.0,0.0,0.0,0.0,0.0,0.0,0.0,0.0,0.0,0.0,-1.7042,-1.6513,0.0,0.0,0.0,0.0,0.0,0.0,0.0,0.0,0.0,0.0,0.0,0.0,0.0,-3.2346,-3.5149,-3.6982,-3.8446,-3.9543,-4.0951,-4.1222,-4.0529,-4.1159,-4.2429,-4.4126,-4.3115,0.0,-4.1054,-3.9132,0.0,0.0,0.0,0.0,0.0,0.0,0.0,0.0,0.0,0.0,0.0,0.0,0.0,0.0,0.0,0.0,0.0,0.0,0.0,0.0,0.0,0.0205,0.0318,0.0391,0.0114,-0.1301,-0.4222,-0.6161,-0.8711,-1.2027,-1.3886,-1.5504,-1.6912,-1.7804,-1.7874,-1.717,-1.6138,-1.5538,-1.5517,-1.6267,-1.7626,-1.9437,-1.939,-1.9149,-1.8759,-1.8129,0.0,0.0,0.0,0.0,0.0,0.0,0.0,0.0,0.0,0.0,0.0,0.0,0.0,0.0,0.0,0.0,0.0,0.0,0.0,0.0,0.0,0.0,0.0,0.0,0.0,0.0,0.0,0.0,0.0,0.0,0.0,0.0,0.0,0.0,0.0,0.0,0.0,0.0,0.0,-1.7557,-1.7646,-1.7861,-1.8253,-1.8609,0.0,0.0,0.0,0.0,0.0,0.0,0.0,0.0,0.0,-3.3517,-3.5649,-3.7528,-3.9162,-4.0721,-4.1601,-4.1849,-4.3772,-4.4273,-4.363,-4.4643,-4.5798,-4.6918,-4.6998,-4.6794,-4.61,-4.2108,-3.9595,-3.803,0.0,0.0,0.0,0.0,-3.7324,-3.7848,0.0,0.0,0.0,0.0,0.0,0.0,0.0,0.0,0.0,0.0,0.0,0.0,0.0911,0.0948,0.1037,0.1076,0.0463,-0.1263,-0.4474,-0.6827,-0.9607,-1.3107,-1.479,-1.6139,-1.72,-1.8106,-1.7757,-1.5982,-1.5708,-1.5582,-1.556,-1.6605,-1.84,-2.0751,-2.1463,-2.1168,-2.0141,-1.9508,-1.8547,0.0,0.0,0.0,0.0,0.0,0.0,0.0,0.0,0.0,0.0,0.0,0.0,0.0,0.0,0.0,0.0,0.0,0.0,0.0,0.0,0.0,0.0,0.0,0.0,0.0,0.0,0.0,0.0,0.0,0.0,0.0,0.0,0.0,0.0,0.0,0.0,0.0,0.0,-1.8685,-1.9337,-1.9431,-2.0928,-2.1855,0.0,0.0,0.0,0.0,0.0,0.0,-3.1086,-3.511,-3.7604,-3.7934,-4.0317,-4.2187,-4.3471,-4.4456,-4.4883,-4.4708,-4.6462,-4.6986,-4.638,-4.7638,-4.8778,-4.966,-4.9888,-5.0224,-5.0289,-4.4991,-4.2302,-4.1285,-3.9348,-3.8418,-3.84,-4.0473,-4.1435,-4.2133,0.0,0.0,0.0,0.0,0.0,0.0,0.0,0.0,0.0,0.0,0.0,0.258,0.2517,0.2186,0.1924,0.1579,0.0762,-0.1217,-0.4762,-0.6887,-0.986,-1.3971,-1.5071,-1.6303,-1.7826,-1.7618,-1.6547,-1.4613,-1.5322,-1.5886,-1.626,-1.826,-2.0211,-2.2185,-2.3436,-2.3501,-2.2454,-2.1131,-2.0567,-2.0227,0.0,0.0,0.0,0.0,0.0,0.0,0.0,0.0,0.0,0.0,0.0,0.0,0.0,0.0,0.0,0.0,0.0,0.0,0.0,0.0,0.0,0.0,0.0,0.0,0.0,0.0,0.0,0.0,0.0,0.0,0.0,0.0,0.0,0.0,0.0,0.0,0.0,0.0,0.0,-2.1445,-2.3733,0.0,0.0,0.0,0.0,-2.9364,-3.291,-3.5392,-3.6107,-3.8492,-4.0785,-4.2757,-4.3234,-4.5193,-4.889,-4.8758,-4.9287,-5.0498,-5.0113,-4.9773,-4.9502,-5.0033,-5.1064,-5.2464,-5.2104,-5.2377,-5.2777,-4.8398,-4.6407,-4.5857,-4.3947,-4.3401,-4.3737,-4.4059,-4.4418,-4.4885,0.0,0.0,0.0,0.0,0.0,0.1184,0.2083,0.2607,0.2962,0.3089,0.324,0.3169,0.2837,0.2431,0.1751,0.0723,-0.0537,-0.2876,-0.6832,-0.8904,-1.1672,-1.5441,-1.574,-1.6307,-1.7455,-1.6834,-1.6305,-1.6004,-1.5458,-1.5646,-1.6482,-1.7412,-1.9268,-2.1909,-2.2879,-2.3622,-2.4181,-2.2782,-2.1733,-2.0701,-1.7718,-1.5139,0.0,0.0,0.0,0.0,0.0,0.0,0.0,0.0,0.0,0.0,0.0,0.0,0.0,0.0,0.0,0.0,0.0,0.0,0.0,0.0,0.0,0.0,0.0,0.0,0.0,0.0,0.0,0.0,0.0,0.0,0.0,0.0,0.0,0.0,0.0,0.0,0.0,-2.6251,-2.8132,0.0,-2.863,-3.0729,-3.2419,-3.3063,-3.673,-3.9097,-3.9492,-4.2459,-4.4399,-4.5096,-4.6937,-4.8446,-4.9521,-5.0273,-5.0904,-5.1356,-5.1647,-5.1734,-5.1651,-5.2277,-5.2874,-5.3423,-5.3752,-5.3953,-5.3814,-5.1594,-5.0021,-4.8879,-4.7474,-4.6944,-4.6999,-4.7608,-4.8117,-4.8683,0.0,0.0,0.0,0.0,-0.0175,0.0553,0.1669,0.2573,0.323,0.3602,0.3979,0.4094,0.3669,0.3096,0.1985,0.0185,-0.1588,-0.4305,-0.8381,-1.0348,-1.2789,-1.5962,-1.6214,-1.6415,-1.6755,-1.6621,-1.642,-1.6212,-1.5806,-1.5915,-1.6313,-1.7646,-1.963,-2.1977,-2.3398,-2.4707,-2.5836,-2.4744,-2.3164,-2.1167,-1.8137,-1.5238,-1.2494,0.0,0.0,0.0,0.0,0.0,0.0,0.0,0.0,0.0,0.0,0.0,0.0,0.0,0.0,0.0,0.0,0.0,0.0,0.0,0.0,0.0,0.0,0.0,0.0,0.0,0.0,0.0,0.0,0.0,0.0,0.0,0.0,0.0,0.0,0.0,-2.9227,-3.0237,-3.2208,-3.3269,-3.2709,-3.4893,-3.6398,-3.6454,-3.9787,-4.189,-4.2165,-4.5153,-4.7041,-4.7538,-4.9628,-5.0967,-5.1484,-5.2282,-5.2776,-5.2984,-5.33,-5.3568,-5.3857,-5.4363,-5.4741,-5.5125,-5.5483,-5.5532,-5.526,-5.4414,-5.3455,-5.2282,-5.0325,-4.9586,-4.9654,-5.0239,-5.0687,-5.1165,0.0,0.0,0.0,-0.1341,-0.0774,0.0037,0.1435,0.249,0.3446,0.4371,0.5123,0.5436,0.5178,0.4279,0.2657,-0.0063,-0.2313,-0.531,-0.9406,-1.1112,-1.302,-1.5341,-1.6426,-1.6566,-1.5882,-1.6873,-1.6669,-1.5056,-1.6346,-1.6531,-1.5847,-1.9288,-2.1491,-2.2533,-2.5099,-2.6761,-2.7484,-2.6858,-2.4915,-2.1924,-1.8228,-1.5042,-1.2174,0.0,0.0,0.0,0.0,0.0,0.0,0.0,0.0,0.0,0.0,0.0,0.0,0.0,0.0,0.0,0.0,0.0,0.0,0.0,0.0,0.0,0.0,0.0,0.0,0.0,0.0,0.0,0.0,0.0,0.0,0.0,0.0,0.0,-2.617,-2.8876,-3.1551,-3.309,-3.5654,-3.7261,-3.7276,-3.8813,-3.9722,-3.9496,-4.1935,-4.3676,-4.4209,-4.648,-4.8567,-5.0204,-5.1169,-5.266,-5.4887,-5.4966,-5.5224,-5.5729,-5.5224,-5.5367,-5.6128,-5.6128,-5.667,-5.7601,-5.7289,-5.7188,-5.7156,-5.6899,-5.6653,-5.6043,-5.2644,-5.1491,-5.1847,-5.2028,-5.2107,-5.2156,0.0,0.0,-0.2469,-0.2078,-0.1553,-0.0699,0.0734,0.2483,0.3897,0.473,0.5902,0.6449,0.5931,0.5224,0.2958,-0.1661,-0.3648,-0.6731,-1.1655,-1.2989,-1.3861,-1.4486,-1.4925,-1.5047,-1.4838,-1.5072,-1.5646,-1.6532,-1.6718,-1.7482,-1.8757,-2.042,-2.1988,-2.344,-2.4959,-2.6347,-2.7471,-2.7028,-2.6089,-2.4503,-1.969,-1.5736,-1.2572,0.0,0.0,0.0,0.0,0.0,0.0,0.0,0.0,0.0,0.0,0.0,0.0,0.0,0.0,0.0,0.0,0.0,0.0,0.0,0.0,0.0,0.0,0.0,0.0,0.0,0.0,0.0,0.0,0.0,0.0,0.0,0.0,-2.9554,-2.8898,-3.2457,-3.5723,-3.7242,-3.8187,-3.9152,-4.0469,-4.1279,-4.1965,-4.2701,-4.5103,-4.6821,-4.7619,-4.8821,-5.0402,-5.2268,-5.3134,-5.4225,-5.5478,-5.624,-5.6581,-5.651,-5.6791,-5.6946,-5.6915,-5.712,-5.722,-5.7307,-5.7455,-5.7257,-5.6899,-5.7054,-5.6794,-5.6311,-5.5311,-5.4794,-5.4553,-5.4604,-5.4738,-5.4796,0.0,-0.2518,-0.276,-0.2523,-0.196,-0.1014,0.05,0.2318,0.3985,0.5273,0.6463,0.7263,0.7422,0.7119,0.5351,0.1559,-0.1828,-0.551,-0.9673,-1.2707,-1.4137,-1.37,-1.4154,-1.4576,-1.4824,-1.5467,-1.6412,-1.7598,-1.8152,-1.9011,-2.0108,-2.2018,-2.3556,-2.4979,-2.6399,-2.7654,-2.862,-2.8174,-2.7482,-2.6182,-2.1747,-1.7476,-1.3494,-1.1486,-1.1069,-1.1901,-1.4406,-1.69,-1.9066,-1.949,0.0,0.0,0.0,0.0,0.0,0.0,0.0,0.0,0.0,0.0,0.0,0.0,0.0,0.0,0.0,0.0,0.0,0.0,0.0,0.0,0.0,0.0,0.0,0.0,-3.0305,-3.2428,-3.3107,-3.5532,-3.8004,-3.9989,-4.0845,-4.1774,-4.3059,-4.3654,-4.4353,-4.5324,-4.6941,-4.8401,-4.9434,-5.0479,-5.1708,-5.3078,-5.4072,-5.4966,-5.5671,-5.6739,-5.7134,-5.6794,-5.7382,-5.7594,-5.7356,-5.7388,-5.7406,-5.7338,-5.7289,-5.7138,-5.6951,-5.6899,-5.6742,0.0,0.0,0.0,0.0,0.0,-5.5651,-5.5634,0.0,-0.253,-0.2845,-0.2728,-0.2105,-0.1091,0.0504,0.2094,0.384,0.5751,0.6865,0.7901,0.9125,0.9315,0.8568,0.6624,0.1506,-0.3018,-0.6255,-1.1404,-1.4028,-1.3202,-1.3921,-1.4725,-1.5549,-1.7054,-1.8074,-1.8539,-2.006,-2.0761,-2.0793,-2.3796,-2.5757,-2.6859,-2.8726,-2.986,-3.0351,-2.99,-2.9036,-2.7521,-2.4366,-2.0074,-1.5315,-1.3845,-1.3505,-1.4133,-1.659,-1.8846,-2.0469,-1.9355,0.0,0.0,0.0,0.0,0.0,0.0,0.0,0.0,0.0,0.0,0.0,0.0,0.0,0.0,0.0,0.0,0.0,0.0,0.0,0.0,0.0,0.0,0.0,0.0,-3.3039,-3.5545,-3.7504,-3.8069,-3.9256,-4.1752,-4.3186,-4.4368,-4.5266,-4.5968,-4.6686,-4.7476,-4.8179,-4.909,-5.0196,0.0,0.0,0.0,0.0,-5.5164,-5.5671,-5.6791,-5.7184,-5.6847,-5.7498,-5.7737,-5.7601,-5.7338,-5.7338,-5.7486,-5.7003,-5.6899,-5.7105,-5.6653,-5.6528,-5.6742,-5.6689,-5.6292,-5.5671,-5.5671,-5.5443,-5.5196,0.0,-0.2412,-0.2723,-0.2703,-0.211,-0.1184,0.0131,0.1986,0.3929,0.5838,0.7455,0.8884,1.0087,1.0246,0.867,0.466,0.171,-0.3047,0.0,0.0,-1.302,-1.3692,-1.3799,-1.4468,-1.5802,-1.7474,-1.882,-1.9976,-2.1297,-2.2281,-2.2974,-2.5188,-2.6956,-2.8386,-2.9659,-3.0668,-3.1344,-3.0887,-3.0528,-3.0095,-2.7958,-2.4259,-1.9993,-1.8952,-1.9335,-2.0718,-2.3041,-2.3668,-2.3384,-2.3675,-2.2151,-2.0409,-2.1778,0.0,0.0,0.0,0.0,0.0,0.0,0.0,0.0,0.0,0.0,0.0,0.0,0.0,0.0,0.0,0.0,0.0,0.0,0.0,0.0,-3.2259,-3.5327,-3.7689,-3.7872,-3.9919,-4.1959,-4.3452,-4.3516,-4.4471,-4.7184,-4.7613,-4.8301,-4.9482,-5.0489,-5.105,-5.0973,-5.2115,-5.2886,-5.3111,-5.4264,-5.5164,-5.5671,-5.6997,-5.7431,-5.7138,0.0,0.0,-5.7601,-5.7553,-5.7289,-5.6951,-5.6847,-5.6689,-5.6546,-5.6707,-5.6528,-5.6219,-5.6014,-5.5844,-5.5653,-5.5484,-5.5034,-5.4624,-0.0695,-0.1441,-0.198,-0.2117,-0.1661,-0.0914,0.0133,0.1859,0.3639,0.5392,0.7042,0.8639,1.007,1.0714,1.0098,0.794,0.2656,0.0,0.0,-1.2996,-1.4222,-1.5122,-1.5961,-1.7223,-1.9145,-2.1173,-2.2715,-2.3716,-2.4591,-2.5213,-2.5608,-2.7108,-2.8512,-3.0017,-3.1183,-3.2034,-3.2521,-3.2377,-3.2353,-3.2335,-3.1243,-3.0168,-2.8825,-2.5794,-2.5177,-2.6155,-2.7261,-2.721,-2.656,-2.5431,-2.4168,-2.3243,-2.4177,-2.4436,-2.4355,0.0,0.0,0.0,0.0,0.0,0.0,0.0,0.0,0.0,0.0,0.0,0.0,0.0,0.0,-2.8097,0.0,0.0,-3.4185,-3.4571,-3.6887,-3.8981,-3.9986,-4.0809,-4.1939,-4.3434,-4.452,-4.6064,-4.8295,-4.8925,-4.956,-5.0584,-5.1197,-5.1483,-5.145,-5.2181,-5.2853,-5.3348,-5.4328,-5.5224,-5.5883,-5.7116,-5.7594,-5.7406,-5.7987,-5.8033,-5.7601,-5.7338,-5.7036,-5.6794,-5.6653,-5.66,-5.66,-5.651,-5.6219,-5.5844,-5.5164,-5.4922,-5.4861,-5.4356,-5.399,-5.3649,0.0619,0.0,-0.0675,-0.1226,-0.1004,-0.0537,0.0179,0.153,0.305,0.4706,0.6375,0.8072,0.9859,1.0805,1.1081,1.0338,0.2645,0.0,0.0,-1.3842,-1.5981,-1.7102,-1.8844,-2.099,-2.3374,-2.5685,-2.7155,-2.765,-2.8019,-2.8137,-2.809,-2.8876,-3.0054,-3.1637,-3.2782,-3.3521,-3.382,-3.3938,-3.4153,-3.441,-3.4376,-3.5809,-3.7234,-3.0192,-2.9176,-3.1399,-3.1135,-3.045,-2.9323,-2.67,-2.582,-2.5913,-2.6099,-2.6999,-2.7743,-2.6779,-2.6974,0.0,0.0,0.0,0.0,0.0,0.0,0.0,0.0,0.0,-2.3916,-2.6876,-2.893,-3.0459,-3.164,-3.4242,-3.6331,-3.7022,-3.8603,-4.0336,-4.1855,-4.1726,-4.2071,-4.3644,-4.5672,-4.7458,-4.8909,-4.9798,-5.0477,-5.0968,-5.1183,-5.1392,-5.1582,-5.2092,-5.2697,-5.3331,-5.4391,-5.5266,-5.5922,-5.7065,-5.7594,-5.7601,-5.7849,-5.7849,-5.7504,-5.7003,-5.6794,-5.6689,-5.6383,-5.6383,-5.6564,-5.609,-5.5618,-5.5224,-5.4362,-5.383,-5.3615,-5.3179,-5.287,-5.2677,0.0,0.1769,0.1588,-0.0088,-0.0311,-0.0224,-0.0134,0.0909,0.2303,0.3972,0.5887,0.7836,0.9958,1.0585,0.9221,0.5137,-0.0584,0.0,-0.9841,-1.3832,-1.7033,-1.9354,-2.1687,-2.4098,-2.6598,-2.8678,-2.9824,-3.0017,-2.9583,-2.9453,-2.9506,-2.9943,-3.1267,-3.3294,-3.4137,-3.4808,-3.5357,-3.5346,-3.5874,-3.6719,-3.7463,-3.939,-4.0385,-2.6806,-2.8296,-3.7477,-3.658,-3.4078,-3.0851,-2.895,-2.7311,-2.6434,-2.8419,-2.9109,-2.9435,-3.0625,0.0,-2.6994,-2.583,-2.3192,-2.0887,-2.134,-2.1051,-2.1831,0.0,0.0,-2.8653,-3.0631,-3.2867,-3.4801,-3.5586,-3.7006,-3.8414,-3.9567,-4.1507,-4.248,-4.1469,-4.3766,-4.5643,-4.5887,-4.6166,-4.7126,-4.8895,-5.0301,-5.0843,-5.0354,-5.1226,-5.1557,-5.1242,-5.2252,-5.2747,-5.2433,-5.4055,-5.5069,-5.5391,-5.6652,-5.7388,-5.7601,-5.7649,-5.7486,-5.7239,-5.6951,-5.6689,-5.6437,-5.5975,-5.5786,-5.5786,-5.5284,-5.4562,-5.3778,-5.3365,-5.2577,-5.176,-5.2574,-5.2483,-5.1908,0.0,0.2337,0.2532,0.1774,0.1202,0.0804,0.0671,0.1292,0.2257,0.3596,0.528,0.7009,0.8441,0.8805,0.732,0.3463,-0.1758,-0.6852,-1.1479,-1.6062,-2.0109,-2.3429,-2.606,-2.8856,-3.1812,-3.382,-3.4888,-3.4927,-3.406,-3.3388,-3.2928,-3.2623,-3.3093,-3.4264,-3.511,-3.5586,-3.5742,-3.6028,-3.6878,-3.8071,-3.9058,-4.1015,-4.1846,-2.7793,-3.0182,-3.9575,-2.8426,-2.7743,0.0,0.0,-2.9707,-2.922,-3.118,-3.1691,-3.1549,-3.1694,-3.0788,0.0,-2.6862,-2.425,-2.2225,0.0,-2.2788,-2.4183,-2.7015,-2.848,-2.977,-3.164,-3.3908,-3.5541,-3.5667,-3.7587,-3.9489,0.0,-4.2195,-4.3468,-4.4041,-4.5005,-4.5919,-4.6808,-4.6841,-4.7619,-4.9549,-4.9946,-4.9947,-4.963,-5.001,-5.0338,-5.04,-5.1369,-5.2026,-5.2043,-5.3909,-5.5009,-5.5314,-5.6546,-5.7574,-5.8312,-5.8146,-5.825,-5.8601,-5.8125,-5.7415,-5.6613,-5.5981,-5.542,-5.4905,-5.4374,-5.3795,-5.3213,-5.235,-5.1865,-5.1533,-5.1802,-5.1343,-5.0707,0.0,0.2588,0.3023,0.3114,0.2581,0.2051,0.1741,0.1961,0.2561,0.3553,0.5288,0.6919,0.8389,0.8626,0.6864,0.2411,-0.2389,-0.7716,-1.3736,-1.8774,-2.3197,-2.6895,-3.0038,-3.3089,-3.6026,-3.7987,-3.8926,-3.8772,-3.7401,-3.6488,-3.5914,-3.4927,-3.4827,-3.5443,-3.6059,-3.6492,-3.6686,-3.705,-3.8088,-3.9546,-4.0528,-4.2092,-4.22,-2.807,-3.0519,-3.925,-2.2014,-2.3264,0.0,0.0,-3.0623,-3.0657,-3.1918,-3.2497,-3.2684,-3.2528,-3.1588,-2.9846,-2.6245,-2.422,0.0,-2.3035,-2.4378,-2.6047,-2.7921,-2.9328,-3.0867,-3.2911,-3.4789,-3.6146,-3.6644,-3.8512,-4.056,-4.1911,-4.3271,-4.4582,-4.5975,-4.6213,-4.6433,-4.6964,-4.7091,-4.7747,-4.9237,-4.9264,-4.9132,-4.8984,-4.9213,-4.9519,-4.9915,-5.0871,-5.1631,-5.2026,-5.3892,-5.5009,-5.5314,-5.6725,-5.7873,-5.8804,-5.867,-5.8931,-5.9562,-5.9002,-5.7988,-5.6782,-5.5946,-5.5,-5.3892,-5.3213,-5.2683,-5.2137,-5.1245,-5.0827,-5.0783,-5.0679,-5.0338,-4.9994,0.0,0.0,0.3078,0.335,0.3524,0.3426,0.275,0.2766,0.3207,0.4041,0.6047,0.8319,1.0797,1.1442,0.8665,0.1216,-0.2672,-0.8139,-1.617,-2.1489,-2.5741,-2.8872,-3.2807,-3.6053,-3.833,-4.0063,-4.0686,-4.0235,-3.8297,-3.7404,-3.7502,-3.6114,-3.6084,-3.7212,-3.7061,-3.7694,-3.8905,-3.8774,-3.9723,-4.1389,-4.2193,-4.2763,-4.1439,-2.5993,-2.7666,-3.6407,-2.2294,0.0,0.0,0.0,-2.8876,-2.9329,-2.9609,-3.0601,0.0,-3.3867,-3.1399,-2.7266,-2.3488,0.0,-2.2388,-2.4298,-2.5557,-2.7264,-3.0848,-3.2079,-3.3119,-3.528,-3.625,-3.7473,-3.9993,-4.062,-4.1686,-4.4402,-4.5589,-4.6084,-4.604,-4.7646,-4.8256,-4.6476,-4.6795,-4.7262,0.0,-4.8531,-4.8984,-4.837,-4.9197,-4.9915,-5.0198,-5.1262,-5.2026,-5.2307,-5.4008,-5.5009,-5.5314,-5.7061,-5.828,-5.8823,-5.9004,-5.924,-5.9562,-5.9002,-5.7988,-5.674,-5.5904,-5.4442,-5.2669,-5.1727,-5.0795,-4.9884,-4.9884,-4.9278,-4.8438,-4.9066,-4.9614,-5.0042,0.0,0.0,0.0,0.3953,0.4495,0.4893,0.4965,0.4292,0.4328,0.5686,0.8101,0.0,0.0,0.0,0.0,0.0,-0.1942,-0.8271,-1.9386,-2.4279,-2.813,-3.1216,-3.432,-3.7095,-3.9574,-4.0781,-4.182,-4.2682,-4.1673,-3.5933,-2.6117,-3.5029,-3.4046,-2.5165,-3.4814,-3.9276,-3.9504,-3.9345,-3.9971,-4.1085,-4.1259,-4.2021,-4.1393,-2.6407,-2.794,-3.5997,0.0,0.0,0.0,0.0,-2.9817,-3.0265,-3.0565,0.0,0.0,-3.0326,-2.8326,-2.6012,-2.3989,0.0,-2.4913,-2.5263,-2.72,-2.9272,-3.0783,-3.2541,-3.4068,-3.4982,-3.5892,-3.7135,-3.8722,-3.958,-4.1094,-4.4204,-4.6108,-4.7549,-4.861,-4.9491,-4.9289,-4.7211,-4.7466,0.0,0.0,0.0,0.0,-4.7593,-4.7934,-4.8339,-4.8918,-5.0197,-5.1096,-5.1647,-5.3761,-5.5209,-5.582,-5.7252,-5.8448,-5.9342,-5.9884,-6.016,-6.0042,-5.9271,-5.8236,-5.6862,-5.5587,-5.3949,-5.2062,-5.1257,-5.02,-4.8922,-4.8805,-4.8641,-4.8377,-4.7734,-4.8088,-4.8934,0.0,0.0,0.0,0.0,0.0,0.0,0.0,0.0,0.0,0.0,0.0,0.0,0.0,0.0,0.0,0.0,0.0,-0.8319,-2.1871,-2.6165,-2.9426,-3.2183,-3.4513,-3.6796,-3.9021,-3.9765,-3.8452,-3.5046,-3.445,-2.6884,-1.3092,-2.1868,-2.3495,-1.943,-2.8808,-3.5785,-4.0462,-3.9943,-4.0263,-4.1049,-4.0453,-4.0542,-3.9922,-3.0151,-3.0418,0.0,0.0,0.0,0.0,-2.9104,-2.9271,0.0,0.0,0.0,-3.0545,-2.8526,-2.7037,-2.5882,-2.4837,-2.5427,-2.6429,-2.6863,-2.8739,-3.0779,-3.2044,-3.3183,-3.429,-3.5419,-3.6041,-3.6851,-3.8228,-3.9234,-4.0963,-4.4172,-4.6143,-4.778,-4.9499,-4.992,-4.9421,-4.7511,-4.7434,-4.6981,0.0,0.0,0.0,-4.7249,-4.7309,-4.7709,-4.8589,-4.9726,-5.0795,-5.1647,-5.4017,-5.5566,-5.6115,-5.7641,-5.8815,-5.9594,-6.0158,-6.0282,-6.0019,-5.9348,-5.8297,-5.6947,-5.5677,-5.3922,-5.1758,-5.0958,-4.9797,-4.8392,-4.7855,-4.7834,-4.7973,-4.6916,-4.7019,-4.7779,0.0,0.0,0.0,0.0,0.0,0.0,0.0,0.0,0.0,0.0,0.0,0.0,0.0,0.0,0.0,0.0,0.0,0.0,-2.354,-2.7198,0.0,-3.1728,-3.3544,-3.5244,-3.687,-3.6711,-3.0919,-1.9268,-1.8064,-1.1227,0.0761,0.0858,-0.59,-1.8193,-1.9471,-2.7717,-4.0601,-4.0275,-4.0488,-4.1027,-3.9765,-3.8442,-3.7165,-3.626,0.0,0.0,0.0,0.0,0.0,0.0,0.0,0.0,0.0,0.0,-2.9986,-2.8551,-2.7563,-2.6734,-2.5788,-2.5924,-2.6926,-2.8796,-3.0084,-3.1602,-3.4343,-3.4142,-3.4108,-3.6678,-3.6604,-3.6706,0.0,0.0,-4.1293,-4.4235,-4.5769,-4.7136,-4.8868,-4.9218,-4.8789,0.0,0.0,0.0,0.0,0.0,0.0,-4.7336,0.0,-4.7864,-4.9132,-5.0041,-5.1054,-5.2357,-5.4761,-5.6105,-5.6255,-5.8158,-5.9218,-5.9482,-5.9674,-5.9674,-5.9349,-5.8977,-5.817,-5.6891,-5.6044,-5.4232,-5.1808,-5.0736,-4.9466,-4.8045,-4.7022,-4.6858,-4.7207,-4.6771,-4.6683,-4.6683,0.0,0.0,0.0,0.0,0.0,0.0,0.0,0.0,0.0,0.0,0.0,0.0,0.0,0.0,0.0,0.0,0.0,0.0,-2.5256,-2.7635,-2.924,-3.0573,-3.2129,-3.3817,-3.5675,-2.8374,-2.3585,-2.1627,-1.3254,-0.1755,1.2192,0.1805,0.1031,0.7506,-1.2039,-2.2799,-2.6756,-3.5091,-3.8311,-3.7773,0.0,-3.6369,-3.5468,0.0,0.0,0.0,0.0,0.0,0.0,0.0,0.0,0.0,0.0,-2.8601,-2.7737,0.0,0.0,-2.6824,-2.6787,-2.761,-2.8644,-2.9355,-3.0826,-3.2319,-3.2928,-3.4393,-3.5767,-3.655,-3.6591,-3.6862,0.0,0.0,0.0,-4.3412,-4.6602,0.0,-5.0046,-5.0919,0.0,-4.8898,0.0,-4.8796,-4.7831,-4.8183,0.0,0.0,-4.8271,-4.8506,-4.9583,-5.0566,-5.1803,-5.3532,-5.4821,-5.6245,-5.7776,-5.8863,-5.9273,-5.9045,-5.8703,-5.8353,-5.8014,-5.7925,-5.7329,-5.6228,-5.5021,-5.3434,-5.1583,-5.0098,-4.8417,-4.6674,-4.7022,-4.6756,-4.621,-4.6506,-4.7106,-4.7779,0.0,0.0,0.0,0.0,0.0,0.0,0.0,0.0,0.0,0.0,0.0,0.0,0.0,0.0,0.0,0.0,0.0,0.0,0.0,-2.7106,-2.8186,-2.9155,-3.0011,-2.9384,-2.7058,-2.0475,-1.3405,-0.591,0.1305,1.1554,2.4257,1.6583,1.4277,1.5868,0.1049,-1.1315,-2.1423,-2.7564,0.0,0.0,0.0,0.0,0.0,0.0,0.0,0.0,0.0,0.0,0.0,0.0,0.0,-3.0413,-3.0622,-2.9511,-2.8313,-2.9214,0.0,-2.7975,-2.8494,-2.9326,-3.0261,-3.065,-3.1915,-3.3022,-3.3184,-3.4427,-3.5689,-3.6371,-3.6484,-3.6924,-3.869,-4.0005,-4.1573,0.0,0.0,0.0,-5.0573,-5.1437,-5.1426,0.0,-4.9788,0.0,-4.8667,-4.8979,-4.9278,0.0,-4.9132,-4.9358,-5.0213,-5.1388,-5.267,-5.3958,-5.5485,-5.7,-5.8542,-5.8737,-5.8477,-5.7695,-5.7214,-5.6761,-5.6204,-5.6331,-5.5955,-5.5115,0.0,-5.3342,-5.1782,-5.0317,-4.873,-4.7129,-4.7037,-4.6829,-4.6594,-4.6887,-4.7749,-4.8671,0.0,0.0,0.0,0.0,0.0,0.0,0.0,0.0,0.0,0.0,2.0234,0.0,0.0,0.0,0.0,0.0,0.0,0.0,0.0,0.0,0.0,-2.7689,-2.7793,-2.4192,-1.641,-1.3138,-0.2822,1.4911,1.8425,2.4771,0.0,0.0,0.0,0.0,0.0,0.0,0.0,0.0,0.0,0.0,0.0,0.0,0.0,0.0,0.0,0.0,0.0,0.0,0.0,0.0,-3.0766,-3.1065,-3.1736,-3.1124,-3.0341,-3.0935,-3.0368,-2.9689,-3.0496,-3.1046,-3.1648,-3.2454,-3.3227,-3.3868,-3.4356,-3.456,-3.5049,-3.6216,0.0,-3.7053,-3.916,-4.0481,-4.2135,-4.4591,0.0,-4.9422,-5.0744,-5.127,-5.1394,-5.0995,-5.0088,-4.9454,-4.9454,-4.9454,-4.9599,-5.0057,-5.0135,-5.04,-5.1064,-5.2368,-5.3473,-5.4347,-5.649,-5.7964,-5.8492,-5.8263,-5.7396,-5.6047,-5.5587,-5.5018,-5.4337,-5.4553,-5.4317,-5.3703,-5.3938,-5.3243,-5.2002,-5.0634,-4.9434,-4.8257,-4.7184,-4.7063,-4.7518,-4.7619,-4.8293,-4.9213,0.0,0.0,0.0,0.0,0.0,0.0,0.0,0.0,0.0,0.0,2.3029,1.9993,0.0,0.0,0.0,0.0,0.0,0.0,0.0,0.0,0.0,-2.6794,-2.6942,-2.3392,-1.5648,-0.7048,0.2482,1.29,2.2508,2.8191,0.0,0.0,0.0,0.0,0.0,0.0,0.0,0.0,0.0,0.0,0.0,0.0,0.0,0.0,0.0,0.0,0.0,0.0,0.0,0.0,-3.1218,-3.2261,-3.2056,-3.1595,-3.1278,-3.1951,-3.1383,-3.093,-3.2563,-3.2527,-3.2436,-3.4269,-3.4816,-3.4976,-3.5169,-3.5783,0.0,0.0,-3.6825,-3.7668,-3.7612,-4.0251,-4.2853,-4.4138,-4.6891,-4.9486,-5.1295,-5.1678,-5.1738,0.0,-5.1135,-5.0848,-5.0848,-5.0848,0.0,0.0,-5.1712,-5.2072,-5.2614,-5.3413,-5.4598,-5.6234,-5.742,-5.784,-5.7571,-5.7903,-5.7097,-5.5231,-5.4672,-5.3913,-5.2931,-5.3035,-5.2738,-5.2153,-5.2033,0.0,-5.0847,-4.9572,-4.8515,-4.7882,-4.7504,-4.7377,-4.7533,-4.8003,-4.8573,-4.9213,0.0,0.0,0.0,0.0,0.0,0.0,0.0,2.4209,2.458,2.531,2.0495,1.4077,0.6387,-0.1722,-1.0029,0.0,0.0,0.0,0.0,0.0,0.0,0.0,-2.1746,-1.5453,-0.6998,0.2872,1.1908,2.0057,0.0,2.9365,2.8287,2.9294,2.9508,2.8806,0.0,0.0,0.0,0.0,0.0,0.0,0.0,0.0,0.0,0.0,0.0,0.0,0.0,0.0,0.0,0.0,-3.0719,-3.2975,-3.3206,-3.2985,-3.2739,-3.3273,-3.3051,-3.2826,-3.4209,-3.4303,-3.4566,-3.6421,-3.6633,-3.6348,-3.6404,0.0,0.0,0.0,-3.6506,-3.7422,-3.9197,-4.0688,0.0,-4.4904,-4.6713,-4.8593,-5.0758,-5.1104,0.0,-5.1966,-5.1524,-5.1183,0.0,-5.1392,-5.1598,-5.2053,-5.2252,-5.2677,-5.3518,-5.4766,-5.585,-5.6737,-5.7386,-5.748,-5.6987,-5.6674,-5.5651,-5.4014,-5.3221,-5.238,-5.1557,-5.1589,-5.1389,-5.1139,-5.0594,-5.0309,-5.0036,-4.8639,-4.7937,-4.7803,-4.753,-4.7715,-4.8012,-4.8256,-4.8918,-4.963,0.0,0.0,0.0,0.0,0.0,0.0,0.0,2.4617,2.5167,2.6324,1.6003,0.6353,0.0683,-0.7665,-1.6225,0.0,0.0,0.0,0.0,0.0,0.0,0.0,0.0,-0.7561,0.3419,0.0,0.0,2.6992,2.8985,0.0,0.0,0.0,0.0,0.0,2.5493,1.5081,-0.0914,0.0,0.0,0.0,0.0,-2.6994,0.0,0.0,0.0,0.0,0.0,0.0,0.0,0.0,-2.98,-3.2405,-3.3764,-3.4245,-3.4455,-3.4893,-3.4874,-3.4897,-3.5952,-3.6307,-3.6737,-3.8571,-3.844,-3.7834,-3.7711,-3.6852,0.0,-3.6191,-3.6159,-3.7137,-4.0568,-4.113,-4.2191,0.0,-4.6554,-4.7638,-4.989,-5.0145,-5.0615,0.0,-5.1516,0.0,-5.1333,-5.1598,0.0,-5.2236,-5.2456,-5.2997,-5.4033,-5.5705,-5.6703,-5.6817,-5.7063,-5.697,-5.6492,-5.5474,-5.4269,-5.2973,-5.1743,-5.0887,-5.0294,-5.0287,-5.0095,-4.9669,-4.9426,-4.9245,-4.9106,-4.7857,-4.7634,-4.7896,-4.753,-4.7803,-4.8444,-4.8355,-4.8918,-4.9646,0.0,0.0,0.0,0.0,0.0,0.0,0.0,2.4785,2.5405,2.6602,1.0992,0.014,0.1135,-0.7694,-1.6842,0.0,0.0,0.0,0.0,0.0,0.0,0.0,0.0,0.0,0.0,0.0,0.0,2.665,2.7065,0.0,0.0,0.0,0.0,0.0,0.0,0.8633,-0.1282,-1.0123,0.0,0.0,0.0,0.0,0.0,0.0,0.0,0.0,0.0,0.0,0.0,0.0,0.0,-2.8966,-3.2363,-3.4618,-3.6178,-3.6896,0.0,0.0,-3.828,-3.82,-3.8148,-4.0409,-4.0143,-3.9294,-3.8916,0.0,-3.6576,-3.5151,-3.6048,-3.7529,-3.8988,-4.1131,-4.3349,-4.5356,0.0,-4.727,-4.8924,-4.9479,-5.0025,-5.0741,0.0,0.0,-5.1704,-5.1778,-5.1908,-5.2236,-5.2904,-5.3616,-5.4378,-5.5573,-5.6475,-5.7214,-5.6911,-5.6414,-5.57,-5.5118,-5.3967,-5.2366,-5.0813,-4.9984,-4.9781,-4.9277,-4.8366,-4.7246,-4.8467,-4.8553,0.0,-4.7431,-4.7692,-4.836,-4.7255,-4.7481,-4.8286,-4.8286,-4.837,-4.8453,0.0,0.0,0.0,0.0,0.0,0.0,2.4362,2.4743,2.5589,2.7245,1.0167,-0.125,0.1197,-1.2742,-2.3099,-2.5101,0.0,0.0,0.0,0.0,0.0,0.0,0.0,0.0,0.0,0.0,2.3814,2.803,2.8296,0.0,0.0,0.0,0.0,0.0,0.0,0.4418,-0.9975,0.0,0.0,0.0,0.0,0.0,0.0,0.0,0.0,0.0,0.0,0.0,0.0,0.0,0.0,0.0,-3.1131,-3.3112,0.0,0.0,-3.6503,-3.7042,-3.8864,-3.9309,-3.9723,-4.1707,-4.1274,-4.0237,-3.9901,0.0,-3.697,-3.5696,-3.5756,-3.6886,-3.9592,-4.0246,-4.1323,-4.4191,-4.3989,-4.4047,-4.5719,-4.6146,-4.712,-4.9197,-4.9668,0.0,0.0,0.0,-5.1688,-5.1401,-5.2036,-5.2523,-5.2525,-5.4242,-5.5499,-5.61,-5.5845,-5.5426,-5.4851,-5.42,-5.3046,-5.1296,-5.0272,-4.9542,-4.9192,-4.8064,-4.7554,-4.7219,-4.6998,-4.6792,0.0,-4.5922,-4.6448,-4.7372,-4.6138,-4.6722,-4.8202,-4.7523,-4.7694,-4.8202,0.0,0.0,0.0,0.0,0.0,2.3926,2.4296,2.471,2.5611,2.7358,1.0144,-0.1414,0.0896,-1.6024,-2.7026,-2.5702,-2.5335,0.0,0.0,0.0,0.0,0.0,0.0,0.0,0.0,0.0,2.8181,2.896,2.9548,2.9626,0.0,0.0,2.4089,1.3303,0.0,0.0,0.0,0.0,0.0,0.0,0.0,0.0,0.0,0.0,0.0,0.0,0.0,0.0,0.0,0.0,0.0,0.0,0.0,0.0,0.0,0.0,-3.6836,-3.7625,-3.9899,-4.0662,-4.1214,-4.2834,-4.2419,-4.1331,-4.0357,-3.8959,-3.7489,-3.5962,-3.571,-3.6735,-3.9829,-3.9733,-4.0028,-4.2612,-4.225,-4.1987,-4.3013,-4.3788,-4.5108,0.0,0.0,-4.9208,0.0,-5.1222,-5.1268,-5.0615,-5.0737,-5.0751,-5.0561,-5.1836,-5.3305,-5.4934,-5.4669,-5.4216,-5.3734,-5.29,-5.1698,-5.0022,-4.9444,-4.8866,-4.8151,-4.7246,-4.6723,-4.662,-4.5894,-4.5479,0.0,-4.4956,-4.5384,-4.6132,-4.5261,-4.6094,-4.7694,-4.6931,-4.7193,-4.7964,0.0,0.0,0.0,0.0,0.0,0.0,2.4433,2.4769,2.5437,2.664,1.0397,-0.0896,0.0193,-1.5868,-2.6659,-2.6507,-2.5635,0.0,0.0,0.0,0.0,0.0,0.0,0.0,0.0,0.0,2.8162,2.8887,3.0226,3.0576,3.0027,3.136,2.5968,1.4759,0.0,0.0,0.0,0.0,0.0,0.0,0.0,0.0,0.0,0.0,0.0,0.0,0.0,0.0,0.0,0.0,0.0,0.0,0.0,0.0,0.0,0.0,-3.8201,-3.8202,-4.1868,-4.2607,-4.2672,-4.3786,-4.3793,-4.2767,-4.0108,-3.9183,-3.8147,-3.5548,-3.6008,-3.7398,-3.9102,-3.9936,-4.0459,-4.0708,-4.1665,-4.2215,-4.1615,-4.3322,-4.4891,0.0,0.0,-4.8426,-4.948,-5.0367,-5.0615,-5.0165,-4.915,0.0,-4.8956,-4.822,-4.974,-5.3913,-5.3498,-5.2854,-5.2123,-5.1161,-4.9867,-4.8382,-4.8179,-4.7452,-4.6333,-4.6701,-4.5985,-4.4689,-4.5533,-4.5091,0.0,-4.4899,-4.5133,-4.4925,-4.5089,-4.5685,-4.6594,-4.6594,-4.6858,-4.7381,0.0,0.0,0.0,0.0,0.0,0.0,0.0,2.4953,2.5562,2.6729,1.0426,-0.0924,0.0057,-1.5913,-2.671,-2.6704,-2.5794,0.0,0.0,0.0,0.0,0.0,0.0,0.0,0.0,0.0,2.9495,3.034,3.0953,3.1546,3.2126,3.2046,2.2638,0.5688,0.2099,-0.8875,0.0,0.0,0.0,0.0,0.0,0.0,0.0,0.0,0.0,0.0,0.0,0.0,0.0,0.0,0.0,0.0,0.0,0.0,0.0,0.0,0.0,0.0,-3.9101,-4.042,-4.1308,-4.1399,-4.1573,-4.116,-3.9313,-3.8672,-3.7841,-3.5615,-3.5895,-3.691,-3.8096,-3.885,-3.9618,-4.0597,-4.1088,0.0,0.0,0.0,0.0,-4.5979,-4.8151,-4.9369,0.0,0.0,-4.881,-4.7867,-4.7558,-4.7167,-4.6741,-4.6509,-4.7559,-5.033,-5.0289,-4.9643,-4.8325,-4.8477,-4.7669,-4.592,-4.5861,-4.5674,-4.5485,-4.4975,-4.4778,-4.482,-4.4603,-4.3975,-4.3211,-4.3611,-4.3959,-4.4216,-4.3954,-4.4911,-4.6594,-4.621,-4.658,-4.7396,0.0,0.0,0.0,0.0,0.0,0.0,0.0,2.5137,2.5545,2.631,1.3348,0.291,0.0,-1.2915,-2.2832,-2.6442,-2.6202,0.0,0.0,0.0,0.0,0.0,0.0,0.0,2.8149,2.9245,3.0207,3.1374,3.1987,3.2679,3.3432,3.3446,2.2003,0.1488,0.1201,-1.0299,0.0,0.0,0.0,0.0,0.0,0.0,0.0,0.0,0.0,0.0,0.0,0.0,0.0,0.0,0.0,0.0,0.0,0.0,0.0,0.0,-3.3827,-3.622,0.0,-3.9615,-4.0643,-4.0942,-4.0979,-4.0522,-3.8894,-3.8202,-3.7393,-3.5583,-3.5627,-3.6178,-3.675,-3.7607,-3.8226,-3.8348,-3.9425,-4.0251,0.0,0.0,0.0,-4.6913,0.0,0.0,0.0,-4.76,-4.6882,-4.5738,-4.5421,-4.4982,-4.4371,-4.4097,-4.4468,-4.5345,-4.6618,-4.67,-4.5455,-4.5998,-4.5482,-4.3975,-4.4583,-4.4596,-4.4117,-4.3913,-4.3908,-4.4211,-4.3389,-4.265,0.0,-4.281,-4.3158,-4.3163,-4.3505,-4.4727,-4.621,-4.5927,-4.6638,-4.7794,0.0,0.0,0.0,0.0,0.0,0.0,0.0,2.533,2.5452,2.5589,1.8135,0.952,0.0922,-0.7554,-1.6131,-2.4937,0.0,0.0,0.0,0.0,0.0,0.0,0.0,0.0,2.8146,2.9231,3.041,3.204,3.3276,3.3987,3.4224,3.5366,2.3653,0.1704,0.1974,-0.9711,0.0,0.0,0.0,0.0,0.0,0.0,0.0,0.0,0.0,0.0,0.0,0.0,0.0,0.0,0.0,0.0,0.0,0.0,0.0,0.0,0.0,0.0,0.0,-3.9824,-4.0342,-4.165,-4.1456,-4.0477,-3.8696,-3.7738,0.0,-3.5396,-3.5207,-3.5255,-3.5202,-3.6148,-3.6448,-3.4781,-3.7065,-3.8914,0.0,-4.1583,0.0,0.0,-4.7888,0.0,-4.7053,-4.5989,-4.4867,-4.3634,-4.2999,-4.2404,-4.1828,-4.1319,-4.0718,-3.9827,-4.2748,-4.399,-4.3442,-4.3637,-4.337,-4.2462,-4.4098,-4.3996,-4.2449,-4.328,-4.3397,0.0,-4.198,-4.1375,-4.0984,-4.2528,-4.2625,-4.2124,-4.3804,-4.5032,-4.5912,-4.5912,-4.6959,-4.8521,0.0,0.0,0.0,0.0,0.0,0.0,0.0,0.0,0.0,0.0,1.8169,1.199,0.9861,-0.3711,-1.3581,0.0,0.0,0.0,0.0,0.0,0.0,0.0,0.0,0.0,2.7675,2.9772,3.1276,3.2386,3.4056,3.531,3.6144,3.664,2.4968,0.3557,0.317,-0.8845,0.0,0.0,0.0,0.0,0.0,0.0,0.0,0.0,0.0,0.0,-2.674,-2.7072,0.0,0.0,0.0,0.0,0.0,0.0,0.0,0.0,-3.0016,-3.1411,-3.4739,0.0,-3.8126,-3.781,-3.8055,-3.8155,0.0,-3.6818,-3.6099,-3.4527,0.0,0.0,-3.4017,-3.4398,-3.507,-3.6142,-3.6996,-3.8221,-4.0273,0.0,0.0,0.0,0.0,0.0,-4.543,-4.3794,-4.245,-4.1807,-4.1677,-4.1106,-3.9892,-4.0122,-3.9506,-3.7856,-3.9352,-4.0115,-3.9998,-4.1638,-4.2066,-4.1284,-4.2266,-4.2551,-4.2153,-4.2352,-4.2372,-4.2153,-4.1367,-4.1012,-4.0984,-4.194,-4.2124,-4.2222,-4.4167,-4.5627,-4.6564,-4.7001,-4.8095,-4.9583,0.0,0.0,0.0,0.0,0.0,0.0,0.0,0.0,0.0,0.0,0.0,1.7233,1.3332,0.1067,0.0,0.0,0.0,0.0,0.0,0.0,0.0,0.0,0.0,1.4851,2.7246,2.9748,3.1581,3.2919,3.44,3.5888,3.7229,3.161,2.0156,0.3831,-0.6857,-1.795,0.0,0.0,0.0,0.0,0.0,0.0,0.0,0.0,0.0,0.0,-2.7479,-2.7723,0.0,-2.9153,-2.9602,-2.9632,0.0,0.0,0.0,0.0,-2.9224,-3.0259,-3.2157,-3.5015,-3.7596,-3.8091,-3.8235,-3.8159,-3.7872,0.0,0.0,0.0,0.0,0.0,0.0,0.0,0.0,0.0,-3.5783,0.0,0.0,0.0,0.0,-4.895,-4.7637,-4.5843,0.0,-4.2101,-4.0653,-3.9777,-3.9687,-3.9403,-3.8675,-3.8687,-3.8173,-3.7131,-3.7986,-3.8409,-3.8409,-4.0147,-4.0769,-4.0389,-4.1445,-4.2025,-4.2025,-4.2431,-4.2333,-4.1927,-4.1272,-4.0681,-4.0491,-4.1544,-4.2124,-4.2598,-4.467,-4.6285,-4.7473,-4.8065,-4.9329,-5.0957,0.0,0.0,0.0,0.0,0.0,0.0,0.0,0.0,0.0,0.0,0.0,0.0,0.0,0.0,0.0,0.0,0.0,0.0,0.0,0.0,0.0,0.0,0.1573,1.1212,2.7165,2.9514,3.1503,3.3449,3.4525,3.5079,3.4875,2.4276,1.2991,0.0681,-2.021,-2.9232,0.0,0.0,0.0,0.0,0.0,0.0,0.0,0.0,0.0,0.0,0.0,0.0,0.0,-2.9562,-3.0135,-3.026,-2.9765,0.0,0.0,0.0,0.0,0.0,-3.1105,-3.428,-3.7642,-3.9112,-3.9215,-3.885,-3.8539,0.0,0.0,0.0,0.0,0.0,0.0,0.0,0.0,0.0,0.0,0.0,-4.3013,-4.5235,-4.6826,-4.8419,-4.6562,0.0,-4.2753,-4.0601,-3.8884,-3.7761,-3.7536,-3.7429,-3.7536,-3.712,-3.6916,-3.6796,-3.7441,-3.7868,-3.7761,-3.9141,-3.989,-4.0083,-4.1544,-4.2222,-4.2235,-4.2916,-4.2722,-4.1927,-4.1272,0.0,-4.0185,-4.1544,-4.2501,-4.3327,-4.5526,-4.7257,-4.8569,-4.9362,-5.0859,-5.2619,0.0,0.0,0.0,0.0,0.0,0.0,0.0,0.0,0.0,0.0,0.0,0.0,0.0,0.0,0.0,0.0,0.0,0.0,0.0,0.0,0.0,-1.2394,0.3229,1.6996,2.824,2.9375,3.1107,3.3636,3.473,3.0706,2.1959,2.0262,0.8511,-1.1754,-2.4986,-2.9981,-2.844,0.0,0.0,0.0,0.0,0.0,0.0,0.0,0.0,0.0,0.0,0.0,0.0,-2.787,-2.8644,-2.9464,-2.825,0.0,0.0,0.0,0.0,0.0,-3.3154,-3.5581,-3.6841,-3.5308,-3.6555,-3.7726,-3.6017,0.0,0.0,0.0,0.0,0.0,0.0,-3.0968,-3.0793,0.0,0.0,-3.8417,0.0,0.0,-4.5278,-4.6006,0.0,-4.2657,-4.1201,-3.8275,-3.634,-3.6134,-3.5432,-3.509,-3.5344,-3.5795,-3.5806,-3.5245,-3.6569,-3.7108,-3.6846,-3.9403,-4.1071,-4.1644,-4.2528,-4.3026,-4.3026,-4.3122,-4.2722,-4.1927,0.0,-4.1172,-4.173,-4.2404,-4.3409,-4.4832,-4.6969,-4.8848,-5.051,-5.1569,-5.3011,-5.4547,0.0,0.0,0.0,0.0,0.0,0.0,0.0,0.0,0.0,0.0,0.0,0.0,0.0,0.0,0.0,0.0,0.0,0.0,0.0,0.0,-2.29,-1.5184,-0.6741,0.5083,2.0752,2.8067,2.9176,2.4014,2.5087,1.9882,0.8765,0.3297,-0.8148,-2.4285,-2.8463,-2.9636,-2.8456,-2.8466,0.0,0.0,0.0,0.0,0.0,0.0,0.0,0.0,0.0,0.0,0.0,0.0,-2.8305,-2.9111,-2.8044,0.0,0.0,0.0,0.0,0.0,-3.1285,-3.37,-3.5299,-3.3754,-3.6429,-3.8998,-3.7229,0.0,0.0,0.0,0.0,0.0,0.0,0.0,-3.0525,-3.3105,0.0,-3.7626,-3.9733,-4.1537,-4.2739,0.0,0.0,-4.0624,-3.8864,-3.693,-3.5477,-3.4692,-3.4224,-3.4224,-3.4914,-3.4692,-3.4692,-3.4902,-3.5904,-3.6352,-3.622,-3.8582,-4.0364,-4.1358,-4.2137,-4.2819,-4.3218,-4.3614,-4.3423,-4.2625,0.0,-4.2235,-4.2501,-4.3718,-4.5158,-4.6629,-4.9095,-5.1172,-5.2857,-5.4552,-5.5611,-5.6364,0.0,0.0,0.0,0.0,0.0,0.0,0.0,0.0,0.0,0.0,0.0,0.0,0.0,0.0,0.0,0.0,0.0,0.0,0.0,-2.6274,-2.4244,-1.858,-1.6529,-0.6065,1.4211,2.4155,2.4783,1.5926,1.6686,0.9642,-0.4777,-1.4988,-2.441,-3.2705,-3.0658,-2.9205,-2.835,-2.8414,-2.8484,0.0,0.0,0.0,0.0,0.0,0.0,0.0,0.0,0.0,0.0,0.0,0.0,0.0,0.0,0.0,0.0,-2.8984,-2.9039,-2.9466,-3.0231,-3.2269,-3.4062,-3.3575,0.0,-3.9277,-3.7883,0.0,0.0,0.0,0.0,0.0,0.0,-2.9862,0.0,-3.2648,-3.4665,-3.6501,-3.811,-3.9573,-4.0507,-4.0624,-4.0007,-3.8773,-3.6907,-3.587,-3.4692,-3.3356,-3.313,-3.3243,-3.4011,-3.3572,-3.3459,-3.4,-3.5013,-3.5576,-3.5454,-3.7536,-3.9453,-4.0971,-4.1644,-4.2625,-4.3695,-4.4289,-4.4289,-4.3776,-4.3909,-4.3934,-4.4208,-4.5845,-4.7522,-4.9247,-5.1655,-5.3694,-5.5471,-5.7149,-5.7773,-5.7943,0.0,0.0,0.0,0.0,0.0,0.0,0.0,0.0,0.0,0.0,0.0,0.0,0.0,0.0,0.0,0.0,0.0,0.0,0.0,-2.5891,-2.6545,-2.6973,-1.9501,-0.5883,1.4359,1.5864,1.6365,1.6268,1.6086,0.4117,-1.8845,-2.8619,-3.3146,-3.299,-3.1021,-2.9289,-2.7886,-2.8388,-2.851,-2.8406,0.0,0.0,0.0,0.0,0.0,0.0,0.0,0.0,0.0,0.0,0.0,0.0,0.0,0.0,-2.9889,-3.038,-3.0251,-3.0448,-3.2842,-3.3496,-3.3712,-3.4764,0.0,0.0,-3.5354,-3.4032,0.0,0.0,0.0,0.0,0.0,-3.0195,-3.0197,-3.1389,-3.2978,-3.4906,-3.7307,0.0,-3.9497,-3.9303,-3.8834,-3.7796,-3.6013,-3.458,-3.3346,-3.2332,-3.1556,-3.1208,-3.1516,-3.1988,-3.2102,-3.1622,-3.3776,-3.4781,-3.4515,-3.6858,-3.9104,-4.1232,-4.173,-4.2999,-4.494,-4.5032,-4.5293,-4.5642,-4.5887,-4.6673,-4.7819,-4.9209,-5.0982,-5.2935,-5.4511,-5.634,-5.8085,-5.867,-5.8953,-5.9159,0.0,0.0,0.0,0.0,0.0,0.0,0.0,0.0,0.0,0.0,0.0,0.0,0.0,0.0,0.0,0.0,0.0,0.0,0.0,-2.5601,-2.6778,-2.8159,-2.5399,-1.7559,-0.4149,0.169,0.117,-0.5846,-1.4133,-2.2593,-3.11,-3.3732,-3.399,-3.2084,-3.0264,-2.9057,-2.8398,-2.8023,-2.8134,-2.8505,-2.7789,0.0,0.0,0.0,0.0,0.0,0.0,0.0,0.0,0.0,-2.4655,-2.5803,0.0,-2.8288,-2.9603,-2.9922,-3.0015,-3.0148,-3.0876,-3.1721,-3.2523,-3.2998,0.0,0.0,0.0,0.0,0.0,0.0,-3.2083,0.0,0.0,0.0,-2.9724,-2.9591,-3.1095,-3.2525,-3.3509,-3.4533,-3.5335,-3.5704,-3.553,-3.4869,-3.3674,-3.2778,-3.1988,-3.145,-3.0401,-3.0147,-3.1285,-3.0956,-3.0956,-3.1285,-3.3109,-3.4224,-3.4403,-3.7252,-3.9764,-4.1637,-4.2181,-4.3626,-4.5779,-4.627,-4.7066,-4.8096,-4.8765,-4.9831,-5.1111,-5.2587,-5.4113,-5.5598,-5.7361,-5.8615,-5.9449,-5.9794,-5.994,-6.0075,0.0,0.0,0.0,0.0,0.0,0.0,0.0,0.0,0.0,0.0,0.0,0.0,0.0,0.0,0.0,0.0,0.0,0.0,-2.42,-2.5117,-2.6158,-2.7265,-2.8202,-2.5888,-1.9907,-1.4469,-1.411,-1.9033,-3.2127,-3.8079,-3.7118,-3.5331,-3.3709,-3.2232,-3.0078,-2.9109,-2.9001,-2.7851,-2.7581,-2.7775,-2.6842,-2.6167,0.0,0.0,0.0,0.0,0.0,0.0,0.0,0.0,-2.379,-2.5118,0.0,0.0,-2.9685,-2.981,-3.0304,-3.063,-2.9774,-3.0455,-3.1375,0.0,0.0,0.0,0.0,0.0,0.0,0.0,-3.2143,0.0,0.0,0.0,0.0,0.0,-2.9444,-3.0599,-3.0929,-3.1809,-3.2499,-3.2985,-3.2985,-3.2644,-3.1747,-3.1275,-3.082,-3.0294,-2.9459,-2.944,-3.048,-3.0147,-3.0382,-3.1285,-3.2985,-3.4314,-3.5156,-3.8423,-4.095,-4.274,-4.416,-4.5563,-4.701,-4.8091,-4.9374,-5.0709,-5.1783,-5.2949,-5.4125,-5.568,-5.7055,-5.8258,-5.9644,-6.0304,-6.0468,-6.0641,-6.0682,-6.0696,0.0,0.0,0.0,0.0,0.0,0.0,0.0,0.0,0.0,0.0,0.0,0.0,0.0,0.0,0.0,0.0,0.0,0.0,-2.3671,-2.4284,-2.4733,-2.4882,-2.6845,-2.8464,-2.9599,-3.1944,-2.8381,-1.8553,-3.1481,-3.7163,-3.5927,-3.3924,-3.3315,-3.373,-3.0732,-2.9467,-2.9467,-2.795,-2.6792,-2.6011,-2.5265,-2.4894,0.0,0.0,0.0,0.0,0.0,0.0,0.0,0.0,-2.2702,-2.41,-2.6995,0.0,0.0,-3.0343,-3.1426,-3.2174,-3.0302,-3.0153,-3.039,0.0,0.0,0.0,0.0,0.0,0.0,-3.3083,0.0,-2.9463,-2.8186,-2.7217,0.0,-2.729,-2.8369,-2.9371,-3.0239,-3.1113,-3.1667,-3.1667,-3.1677,-3.1341,-3.0432,-3.0315,-2.9874,-2.9094,-2.8984,-2.8984,-2.8984,-2.9568,-3.0382,-3.1285,-3.3293,-3.5266,-3.699,-4.0158,-4.2712,-4.4686,-4.761,-4.8938,-4.8872,-5.0587,-5.1965,-5.323,-5.4821,-5.5967,-5.6842,-5.838,-5.9805,-6.1017,-6.1232,-6.1267,-6.1213,-6.1201,-6.1136,-6.1039,0.0,0.0,0.0,0.0,0.0,0.0,0.0,0.0,0.0,0.0,0.0,0.0,0.0,0.0,0.0,0.0,0.0,0.0,-2.0615,-2.0874,-2.0111,-1.7912,-2.1113,-2.3339,-2.4189,-2.9318,-3.1487,-3.0445,-3.4941,-3.5931,-3.3588,-3.2849,-3.2036,-3.1079,-2.924,-2.841,-2.8295,-2.622,-2.5264,-2.5053,-2.4234,-2.3701,0.0,0.0,0.0,0.0,0.0,0.0,0.0,0.0,0.0,0.0,-2.5914,0.0,-3.0368,-2.9728,-3.0495,-3.1109,-2.9154,-2.8888,0.0,0.0,0.0,0.0,0.0,0.0,0.0,0.0,-3.0455,-2.9021,-2.773,-2.7127,0.0,-2.5835,-2.6518,-2.697,-2.6596,-2.7276,-2.7885,-2.8336,-2.8582,-2.8902,-2.9303,-2.8957,-2.8719,-2.8975,-2.8148,-2.8029,-2.8984,-2.9776,-3.0675,-3.1792,-3.5055,-3.773,-3.9688,-4.3083,-4.6066,-4.8544,-5.1101,-5.205,-5.1436,-5.3162,-5.4869,-5.6487,-5.7649,-5.8591,-5.9361,-6.0319,-6.0877,-6.115,-6.1256,-6.1327,-6.1335,-6.1344,-6.1344,-6.1375,0.0,0.0,0.0,0.0,0.0,0.0,0.0,0.0,0.0,0.0,0.0,0.0,0.0,0.0,0.0,0.0,0.0,0.0,0.0,-1.6208,-1.5095,-1.3288,-1.6201,-1.9221,-2.2101,-2.7118,-3.0471,-3.2117,-3.396,-3.3733,-3.1629,-3.1679,-3.1157,-3.0131,-2.9139,-2.8411,-2.7813,-2.5664,-2.4737,-2.4576,-2.399,-2.356,-2.3269,0.0,0.0,0.0,0.0,0.0,0.0,0.0,0.0,0.0,-2.5379,0.0,0.0,-2.8762,-2.9346,-2.9841,-2.885,-2.8318,0.0,0.0,-2.8931,-2.9522,-2.9927,0.0,0.0,0.0,-2.9849,-2.844,-2.7677,-2.6798,0.0,-2.4654,-2.4966,-2.5003,-2.4196,-2.4569,-2.5046,-2.5494,-2.5694,-2.6133,-2.6773,-2.643,-2.6618,-2.7633,-2.6926,-2.7177,-2.8856,-2.9874,-3.1416,-3.3695,-3.692,-4.005,-4.2972,-4.6207,-4.9162,-5.1598,-5.3987,-5.5134,-5.5186,-5.6179,-5.7418,-5.8802,-5.9704,-6.0311,-6.0715,-6.114,-6.1273,-6.1208,-6.1295,-6.1362,-6.1406,-6.1458,-6.151,-6.1569,0.0,0.0,0.0,0.0,0.0,0.0,0.0,0.0,0.0,0.0,-1.3066,0.0,0.0,0.0,0.0,0.0,0.0,0.0,0.0,-1.0903,-0.9969,-0.9877,-1.1904,-1.5882,-2.1924,-2.495,-2.6501,-2.6582,-2.9872,-3.0831,-2.9571,-3.0101,-3.0211,-2.9948,-2.9438,-2.871,-2.7669,-2.5784,-2.4769,-2.4373,-2.4116,-2.3975,-2.3883,-2.4221,0.0,0.0,0.0,0.0,0.0,0.0,0.0,0.0,-2.5437,-2.6304,-2.7073,-2.756,-2.8015,-2.8439,-2.8733,0.0,0.0,-2.8199,-2.7422,0.0,-2.8185,-2.9708,-3.0923,-3.1064,0.0,-2.7875,-2.7875,-2.619,-2.4598,-2.3829,-2.3729,-2.3467,-2.2536,-2.2826,-2.3024,-2.3032,-2.3055,-2.3192,-2.349,-2.352,-2.4014,-2.5327,-2.5505,-2.6495,-2.8683,-2.9846,-3.2354,-3.6389,-3.9159,-4.2502,-4.6536,-4.9593,-5.2101,-5.4266,-5.6398,-5.8138,-5.9376,-5.9215,-5.9569,-6.0339,-6.1002,-6.1192,-6.1061,-6.1157,-6.1157,-6.1171,-6.1306,-6.1389,-6.1412,-6.154,-6.1578,-6.1614,0.0,0.0,0.0,0.0,0.0,0.0,0.0,0.0,0.0,0.0,0.0,0.0,0.0,0.0,0.0,0.0,0.0,0.0,0.0,-0.75,-0.6316,-0.2966,-0.7598,-1.2723,-1.8014,-2.124,-2.3096,-2.3462,-2.7179,-2.7776,-2.549,-2.6257,-2.6745,-2.6824,-2.6002,-2.5944,-2.6282,-2.4219,-2.3412,-2.3555,-2.3589,-2.3535,-2.3408,-2.317,-2.2395,0.0,0.0,0.0,0.0,0.0,0.0,0.0,-2.6827,-2.749,-2.7379,-2.6568,-2.6798,-2.698,-2.5465,-2.4682,0.0,0.0,-2.5979,-2.6725,-2.7889,-2.8221,-2.8473,-2.9307,-2.8081,-2.6948,-2.6948,-2.5191,-2.3645,-2.3533,-2.2877,-2.2185,-2.1276,-2.1438,-2.1642,-2.1649,-2.1875,-2.2401,-2.3169,-2.3296,-2.3446,-2.3642,-2.4627,-2.5861,-2.7388,-3.0306,-3.3909,-3.8066,-4.2123,-4.6169,-5.038,-5.3139,-5.5608,-5.7661,-5.8748,-5.9746,-6.067,-6.044,-6.0593,-6.1081,-6.1108,-6.0983,-6.0727,-6.0877,-6.0877,-6.0773,-6.106,-6.1233,-6.1337,-6.1355,-6.1472,-6.1601,0.0,0.0,0.0,0.0,0.0,0.0,0.0,0.0,0.0,0.0,0.0,0.0,0.0,0.0,0.0,0.0,0.0,0.0,0.0,-0.2772,-0.2563,-0.2124,-0.6138,-1.0629,-1.559,-1.8198,-2.0217,-2.1633,-2.3588,-2.4155,-2.3463,-2.4313,-2.4869,-2.5146,-2.4957,-2.4927,-2.5038,-2.4014,-2.358,-2.3551,-2.431,-2.4234,-2.3679,-2.352,-2.2656,-2.1425,-2.0985,0.0,0.0,0.0,0.0,0.0,0.0,0.0,-2.4805,-2.4814,-2.4097,-2.3421,-2.3709,0.0,0.0,-2.3598,0.0,-2.6187,-2.6496,-2.6992,-2.7448,-2.733,-2.6788,-2.6036,-2.5368,-2.4191,-2.2966,-2.1828,-2.1266,-2.0587,-1.9325,-1.9349,-1.9566,-1.9924,-2.006,-2.0447,-2.1536,-2.155,-2.1853,-2.2476,-2.3126,-2.4404,-2.6632,-3.0369,-3.4679,-3.9524,-4.4528,-4.9122,-5.3253,-5.5677,-5.7635,-5.9276,-5.9877,-6.0542,-6.1191,-6.1086,-6.1086,-6.1136,-6.1138,-6.0942,-6.075,-6.0811,-6.0811,-6.075,-6.0941,-6.1098,-6.1217,-6.1294,-6.1409,-6.1556,0.0,0.0,0.0,0.0,0.0,0.0,0.0,0.0,0.0,0.0,0.0,0.0,0.0,0.0,0.0,0.0,0.0,0.0,0.0,0.1229,0.0115,-0.3558,-0.6005,-0.9279,-1.3654,-1.5753,-1.7879,-2.0189,-2.0096,-2.0923,-2.2601,-2.3149,-2.3642,-2.4157,-2.4504,-2.448,-2.4221,-2.4218,-2.4014,-2.3773,-2.4954,-2.486,-2.4014,-2.3925,-2.2954,-2.1604,-2.1561,-2.1734,-2.2166,-2.3626,0.0,0.0,0.0,0.0,-2.163,-2.2541,-2.1162,-1.9825,-2.1949,0.0,-2.0623,-2.1952,-2.3615,0.0,-2.4648,-2.581,-2.6606,-2.5543,-2.5591,-2.5423,-2.4079,-2.3345,-2.2212,-2.0113,-1.955,-1.8978,-1.7713,-1.7485,-1.7719,-1.8188,-1.8181,-1.851,-1.9345,-1.9365,-1.9813,-2.0886,-2.1314,-2.286,-2.5976,-3.0358,-3.5301,-4.0969,-4.6656,-5.162,-5.5605,-5.7585,-5.9072,-6.0112,-6.0534,-6.0913,-6.1258,-6.1325,-6.125,-6.1026,-6.108,-6.1022,-6.086,-6.0831,-6.0831,-6.0858,-6.0858,-6.0962,-6.1079,-6.1217,-6.1352,-6.1493,0.0,0.0,0.0,0.0,0.0,0.0,0.0,0.0,0.0,0.0,-0.186,-0.0606,-0.033,0.0714,0.0,0.0,0.0,0.0,0.2619,0.0,0.0,-0.3236,-0.5994,-0.8604,-1.1036,-1.4243,-1.6586,-1.8113,-1.819,-1.9677,-2.2395,-2.1687,-2.2018,-2.3103,-2.2585,-2.3217,-2.4646,-2.3508,-2.3235,-2.3526,-2.3854,-2.3891,-2.364,-2.2665,-2.2216,-2.2015,-2.1203,-2.1224,-2.1831,-2.3045,-2.3111,0.0,0.0,0.0,-2.0373,-1.9782,-1.936,-1.8917,0.0,0.0,-1.9195,0.0,-2.0498,-2.1573,0.0,0.0,-2.427,0.0,-2.4858,-2.5108,-2.4028,-2.2253,-2.071,-1.997,-1.8635,-1.7713,-1.7485,-1.7485,-1.7485,-1.7596,-1.7602,-1.7614,-1.7768,-1.7768,-1.7904,-1.8053,-1.9568,-2.1766,-2.4901,-3.0462,-3.649,-4.2723,-4.853,-5.3423,-5.7338,-5.911,-6.0316,-6.0942,-6.1172,-6.1228,-6.1133,-6.1197,-6.1184,-6.108,-6.1152,-6.1021,-6.0737,-6.0839,-6.0792,-6.0657,-6.0762,-6.0853,-6.0922,-6.1079,-6.122,-6.1342,0.0,0.0,0.0,0.0,0.0,0.0,0.0,0.0,0.0,0.0,0.0,0.1231,0.1229,0.19,0.0,0.0,0.0,0.0,0.2015,0.0,0.0,-0.4314,-0.7023,-0.966,-1.2053,-1.4265,-1.615,-1.7664,-1.7963,-1.9569,-2.2411,-2.2502,-2.3251,-2.457,-2.3603,-2.3743,-2.459,-2.3561,-2.3101,-2.3099,-2.3736,-2.4331,-2.4666,-2.3178,-2.3112,-2.3587,-2.1843,-2.1279,-2.1446,-2.1802,-2.1539,-2.1092,-2.0998,0.0,0.0,0.0,-1.6602,-1.6403,-1.712,-1.7693,-1.8362,0.0,-1.9726,-2.0249,-2.2037,-2.2752,-2.3135,-2.3583,-2.3595,-2.3221,-2.2118,-2.1197,-2.0047,-1.8486,-1.7008,-1.6048,-1.5698,-1.5219,-1.4981,-1.5332,-1.5811,-1.6279,-1.6632,-1.712,-1.7485,-1.7485,-1.8288,-2.0686,-2.5226,-3.1102,-3.7437,-4.4303,-5.0489,-5.4944,-5.7562,-5.8772,-5.9763,-6.0605,-6.111,-6.1264,-6.1099,-6.1116,-6.108,-6.0938,-6.1002,-6.0943,-6.082,-6.0834,-6.0811,-6.075,-6.0785,-6.0831,-6.092,-6.1061,-6.1169,-6.1264,0.0,0.0,0.0,0.0,0.0,0.0,0.0,0.0,0.0,0.0,0.0,0.0,0.1287,0.0,0.0,0.0,0.0,0.0,0.0393,0.0,0.0,0.0,-0.8417,-1.1057,-1.3372,-1.4796,-1.6226,-1.7803,-1.8166,-1.994,-2.3082,-2.3643,-2.5074,-2.713,-2.5656,-2.5066,-2.5069,-2.4134,-2.3667,-2.3578,-2.438,-2.5145,-2.5706,-2.5095,-2.5346,-2.5729,-2.3391,-2.2134,-2.1403,0.0,0.0,-1.8715,-1.8048,-1.6847,0.0,0.0,0.0,0.0,0.0,0.0,-1.7025,-1.8277,-1.8512,-1.8948,0.0,-2.1603,-2.2218,-2.3026,-2.2641,-2.1665,-2.0391,-1.9939,-1.9027,-1.6815,-1.5481,-1.4553,-1.3904,-1.3071,-1.259,-1.3181,-1.3775,-1.4361,-1.4831,-1.5682,-1.629,-1.629,-1.6284,-1.9343,-2.6348,-3.1436,-3.803,-4.6494,-5.2253,-5.594,-5.7475,-5.8266,-5.918,-6.0176,-6.0745,-6.0997,-6.1061,-6.108,-6.0981,-6.0823,-6.0918,-6.0962,-6.0941,-6.0853,-6.0853,-6.088,-6.0827,-6.0827,-6.0877,-6.1021,-6.1098,-6.1203,0.0,0.0,0.0,0.0,0.0,0.0,0.0,0.0,0.0,0.0,0.0,0.0,0.028,0.028,0.0168,-0.0223,0.0,0.0,0.0,0.0,0.0,0.0,0.0,0.0,-1.3651,-1.5339,-1.6946,-1.8339,-1.8382,-2.059,-2.4869,-2.457,-2.6614,-3.0457,-2.8249,-2.7107,-2.676,-2.5342,0.0,0.0,-2.5953,-2.6027,-2.6187,-2.8744,-2.9245,-2.8323,-2.6167,0.0,0.0,0.0,0.0,0.0,-1.5125,-1.4022,-1.2897,0.0,0.0,0.0,0.0,-1.4293,0.0,-1.5326,-1.5777,-1.6585,-1.8989,-2.0063,-2.0966,-2.2504,-2.2469,-2.1481,-1.9657,-1.8355,-1.7004,-1.5138,-1.4301,-1.357,-1.2933,-1.2225,-1.1732,-1.1852,-1.1852,-1.1852,-1.1968,-1.2586,-1.296,-1.296,-1.2933,-1.7559,-2.7996,-3.1226,-3.8083,-4.9778,-5.3609,-5.6124,-5.7489,-5.8414,-5.9299,-6.0099,-6.0134,-6.0428,-6.0901,-6.1022,-6.0981,-6.0823,-6.1001,-6.108,-6.108,-6.0962,-6.0899,-6.088,-6.0827,-6.08,-6.0804,-6.0877,-6.1002,-6.1117,0.0,0.0,0.0,0.0,0.0,0.0,0.0,0.0,0.0,0.0,0.0,0.0,0.0,0.0336,0.0224,-0.0112,-0.0561,0.0,0.0,0.0,0.0,0.0,0.0,0.0,0.0,-1.5552,-1.6744,-1.7671,-1.814,-2.0053,-2.3356,-2.4467,-2.6275,-2.8553,-2.7284,-2.7243,-2.804,-2.5273,0.0,0.0,-2.6489,-2.7384,-2.8693,-2.882,-2.8911,-2.8611,-2.6165,0.0,0.0,0.0,0.0,0.0,-1.2941,-1.2061,-1.1618,-1.1387,-1.172,-1.2501,0.0,0.0,0.0,-1.5671,-1.6097,-1.6625,-1.851,-1.9467,-2.024,-2.097,-2.0801,-1.9821,-1.799,-1.7556,-1.6751,-1.4617,-1.3412,-1.2306,-1.1197,-1.0267,-0.9336,-0.8447,-0.8812,-0.8921,-0.8308,-0.9032,-0.9389,-0.8893,-1.2902,-1.8937,-2.6978,-3.4007,-4.1978,-5.1087,-5.4183,-5.6009,-5.667,-5.7463,-5.8076,-5.8508,-5.9537,-6.0082,-6.021,-6.0828,-6.0899,-6.0572,-6.0608,-6.0657,-6.0657,-6.0608,-6.0584,-6.0584,-6.0553,-6.0641,-6.0823,-6.0877,-6.0941,-6.0982,0.0,0.0,0.0,0.0,0.0,0.0,0.0,0.0,0.0,0.0949,0.0,0.0,0.0,0.0,0.0392,-0.0448,-0.1401,-0.2393,-0.3444,-0.5362,0.0,0.0,0.0,0.0,0.0,-1.572,-1.6685,-1.7489,-1.8327,-2.003,-2.2571,-2.4104,-2.5967,-2.7969,-2.6309,-2.712,-2.9583,0.0,0.0,-2.7951,0.0,-2.8865,-3.0208,-3.025,-3.0022,-2.9355,0.0,0.0,0.0,0.0,0.0,0.0,-1.1392,-1.0682,-1.0367,-1.003,-1.0655,-1.1638,-1.287,0.0,0.0,-1.5628,-1.6067,-1.6714,-1.8418,-1.8804,-1.9138,-1.9886,-1.9352,-1.8311,-1.6998,-1.6491,-1.5599,-1.3357,-1.2059,-1.0728,-0.9016,-0.8014,-0.6993,-0.5726,-0.5867,-0.5752,-0.4891,-0.5118,-0.6054,-0.7589,-1.2624,-1.9891,-2.9706,-3.7144,-4.4755,-5.2758,-5.4807,-5.5835,-5.5959,-5.659,-5.7098,-5.7504,-5.8649,-5.9404,-5.9785,-6.0403,-6.0588,-6.0403,-6.0403,-6.0349,-6.0313,-6.0313,-6.0313,-6.0313,-6.0313,-6.0395,-6.0591,-6.07,-6.075,-6.0836,0.0,0.0,0.0,0.0,0.0,0.0,0.0,0.0,0.0668,0.128,0.0,0.0,0.0,0.0,0.0,-0.1398,-0.2802,-0.3904,-0.4714,-0.6945,0.0,0.0,0.0,0.0,-1.5139,-1.5884,-1.6769,-1.7828,-1.8995,-2.0695,-2.2797,-2.3534,-2.5792,-2.9054,-2.579,-2.6957,-3.131,-2.9984,-2.9831,-3.041,0.0,-3.0377,-3.0592,0.0,-3.2767,0.0,-2.7993,-2.414,0.0,-1.6769,0.0,0.0,0.0,-0.9925,-0.9093,-0.8692,-0.9528,-1.0558,0.0,0.0,0.0,-1.4759,-1.542,-1.6423,-1.8587,-1.8164,-1.7707,-1.9279,-1.8282,-1.7034,-1.6734,-1.5237,-1.329,-1.1184,-1.0141,-0.8729,-0.6546,-0.5702,-0.492,-0.3966,-0.3166,-0.2332,-0.1469,-0.0846,-0.3035,-0.8956,-1.2022,-2.051,-3.6353,-4.0429,-4.6255,-5.4918,-5.5522,-5.5628,-5.55,-5.59,-5.6501,-5.7269,-5.7485,-5.8312,-5.9648,-5.9708,-5.9969,-6.0365,-6.0365,-6.0246,-6.0068,-6.0068,-6.0099,-6.0099,-6.0099,-6.0099,-6.0129,-6.0321,-6.0482,-6.0613,0.0,0.0,0.0,0.0,0.0,0.1895,0.1788,0.162,0.2007,0.0,0.0,0.0,0.366,0.2556,0.1201,-0.056,-0.1949,-0.3594,-0.5645,-0.7189,-0.8671,-1.0124,-1.1513,-1.2918,-1.425,-1.5496,-1.6789,-1.8078,-1.9107,-2.0485,-2.2232,-2.3317,-2.504,-2.7184,-2.6882,-2.7479,-2.8594,-2.6357,0.0,-3.0306,-2.8582,-2.9157,0.0,0.0,0.0,0.0,0.0,-2.1805,-1.7711,0.0,-1.3433,-1.1211,0.0,0.0,-0.8312,-0.867,-0.9233,-0.9932,-1.0387,0.0,0.0,0.0,0.0,0.0,-1.6588,-1.6482,-1.6226,-1.6989,-1.6822,-1.6242,-1.545,-1.374,-1.1672,-0.9298,-0.8663,-0.7788,-0.5754,-0.4282,-0.2927,-0.156,-0.0241,0.1091,0.257,-0.0483,-0.3868,-0.6995,-1.7428,-2.7561,-3.6638,-4.6044,-5.2391,-5.5042,-5.5345,-5.5577,-5.5788,-5.5904,-5.613,-5.6504,-5.7149,-5.7683,-5.8129,-5.8637,-5.9023,-5.9319,-5.9274,-5.9336,-5.9543,-5.973,-5.9796,-5.9796,-5.9796,-5.9925,-6.0099,-6.0159,-6.0313,-6.0456,0.0,0.0,0.0,0.5073,0.4185,0.3716,0.3482,0.322,0.3431,0.0,0.0,0.0,0.5178,0.4082,0.2429,0.0117,-0.1522,-0.3495,-0.6156,-0.7298,-0.8865,-1.0956,-1.1895,-1.3228,-1.5025,-1.6299,-1.7679,-1.9137,-2.0039,-2.1071,-2.2319,-2.3085,-2.4245,-2.5618,-2.5634,-2.5873,-2.6118,-2.3719,-2.506,0.0,-2.77,0.0,0.0,-2.7644,-2.5874,0.0,0.0,0.0,-1.6087,-1.4788,-1.2517,0.0,0.0,0.0,0.0,-0.7644,-0.8237,0.0,-0.9101,0.0,0.0,0.0,0.0,0.0,-1.5772,-1.5419,-1.5097,-1.5828,-1.5752,-1.538,-1.4814,-1.3079,-1.0802,-0.8185,-0.6554,-0.5103,-0.3394,-0.1823,-0.0461,0.0824,0.2956,0.3729,0.2479,0.0,-0.4613,-1.2061,-2.2525,-3.3003,-4.3209,-5.0703,-5.4814,-5.5094,-5.532,-5.5512,-5.5703,-5.5904,-5.6072,-5.6145,-5.6725,-5.7177,-5.7548,-5.7916,-5.8259,-5.856,-5.8405,-5.8546,-5.8945,-5.898,-5.9222,-5.9524,-5.9524,-5.9628,-5.9763,-5.9893,-6.0019,-6.0131,0.0,0.0,0.5832,0.399,0.4713,0.5366,0.4894,0.468,0.4706,0.0,0.621,0.691,0.6852,0.5804,0.3876,0.069,-0.1294,-0.3529,-0.6317,-0.7475,-0.9203,-1.1846,-1.2725,-1.4232,-1.6633,-1.7797,-1.9061,-2.0473,-2.1359,-2.2113,-2.2728,-2.2954,-2.3523,-2.4335,-2.328,-2.3268,-2.3907,-2.2181,-2.3172,-2.591,-2.6764,-2.691,0.0,0.0,-2.3993,-2.2229,-2.1342,-1.845,-1.483,-1.3829,-1.1014,0.0,0.0,0.0,0.0,0.0,-0.7017,0.0,-0.7342,-0.888,0.0,0.0,0.0,0.0,-1.5284,-1.4641,-1.402,-1.5164,-1.4871,-1.4446,-1.4643,-1.2657,-1.0163,-0.7437,-0.4203,-0.164,-0.0335,0.1131,0.2398,0.3322,0.6118,0.5717,0.02,-0.0117,-0.6024,-2.0531,-2.8049,-3.8071,-5.2121,-5.4024,-5.4844,-5.513,-5.538,-5.5493,-5.5476,-5.5961,-5.6181,-5.6136,-5.631,-5.6781,-5.7476,-5.7395,-5.7591,-5.7983,-5.7684,-5.7825,-5.8245,-5.814,-5.8577,-5.929,-5.929,-5.929,-5.9327,-5.9559,-5.9677,-5.9744,0.0,-0.4061,-0.0146,-0.1178,0.2234,0.5108,0.5078,0.4884,0.4952,0.5603,0.6457,0.7586,0.897,0.644,0.3619,0.119,-0.0865,-0.3283,-0.6283,-0.7981,-0.9715,-1.167,-1.3668,-1.5321,-1.6522,-1.8944,-2.0225,-2.0338,-2.2057,-2.2897,-2.295,-2.3194,-2.3419,-2.3602,-2.3161,-2.264,-2.2148,-2.2714,-2.2754,-2.2459,-2.2337,-2.3453,-2.498,-2.2543,-2.0702,-1.9354,-1.8195,-1.6341,-1.4063,-1.1631,-0.8952,-0.6558,0.0,0.0,0.0,-0.6589,-0.7367,-0.7668,-0.7236,0.0,0.0,0.0,0.0,0.0,-1.2629,-1.2452,-1.2364,-1.3085,-1.3233,-1.3544,-1.4138,-1.1373,-0.8247,-0.6108,-0.2074,0.097,0.1333,0.2689,0.4062,0.5478,0.7995,0.726,0.1338,-0.3108,-1.0629,-2.2725,-3.678,-4.69,-5.1768,-5.374,-5.4905,-5.5404,-5.5477,-5.5643,-5.5943,-5.6126,-5.6246,-5.6345,-5.6375,-5.65,-5.6717,-5.6536,-5.6748,-5.7285,-5.6887,-5.7035,-5.7535,-5.7966,-5.8577,-5.929,-5.929,-5.929,-5.9309,-5.9364,-5.9524,-5.9711,-1.1455,-0.4983,-0.0181,-0.1107,0.4635,0.8912,0.7624,0.7108,0.6555,0.5693,0.5985,0.6457,0.7116,0.5481,0.3373,0.0997,-0.1092,-0.3494,-0.6465,-0.8651,-1.0935,-1.3279,-1.5176,-1.7071,-1.9063,-2.0287,-2.1358,-2.2291,-2.2965,-2.3325,-2.3348,-2.3422,-2.3655,-2.4007,-2.3016,-2.2396,-2.2062,-2.1277,-2.071,-2.0391,-2.1071,0.0,-2.2894,-2.054,-1.8954,-1.771,-1.6814,-1.4924,-1.2368,-1.0117,-0.8073,0.0,0.0,-0.5611,-0.5474,0.0,-0.6531,-0.6936,-0.6548,0.0,0.0,-0.8946,0.0,0.0,0.0,-1.0651,-1.0824,-1.1873,-1.2422,-1.301,-1.355,-1.092,-0.7567,-0.4716,-0.0707,0.2706,0.4488,0.5407,0.6433,0.7895,0.7539,0.4555,-0.1899,-0.8545,-1.8055,-3.1625,-4.2157,-4.8959,-5.1287,-5.3207,-5.4533,-5.5131,-5.5633,-5.5962,-5.6133,-5.6265,-5.6375,-5.64,-5.6465,-5.6523,-5.655,-5.6384,-5.646,-5.6675,-5.6288,-5.6374,-5.6863,-5.6998,-5.7689,-5.8746,-5.914,-5.929,-5.929,-5.929,-5.9327,-5.9381,-1.4313,-0.7548,-0.1593,-0.08,0.6036,1.1225,1.0489,0.9682,0.8231,0.5725,0.506,0.4834,0.4841,0.4259,0.2958,0.0671,-0.1346,-0.3877,-0.6988,-0.9518,-1.2295,-1.5551,-1.7014,-1.9045,-2.1773,-2.1664,-2.2325,-2.393,-2.3632,-2.349,-2.3486,-2.341,-2.3681,-2.424,-2.2736,-2.221,-2.2368,-1.9809,-1.9068,-1.9664,-2.073,-2.0857,-2.0172,-1.8855,-1.7475,-1.6278,-1.5657,-1.3584,-1.0733,-0.8969,-0.7469,-0.6286,-0.5065,-0.5003,0.0,0.0,0.0,0.0,0.0,0.0,0.0,0.0,0.0,-0.8179,0.0,0.0,0.0,-1.0113,-1.0895,-1.147,-1.1892,-0.9648,-0.6593,-0.3443,0.0098,0.3482,0.6722,0.7493,0.8347,1.0149,0.6574,0.1293,-0.551,-1.5096,-2.6469,-3.9956,-4.4859,-4.8258,-5.0629,-5.2521,-5.3933,-5.4765,-5.5614,-5.6126,-5.6256,-5.6414,-5.6479,-5.6435,-5.6542,-5.6593,-5.6589,-5.6465,-5.6386,-5.6296,-5.5894,-5.5902,-5.6186,-5.6061,-5.6639,-5.7732,-5.8689,-5.9159,-5.9309,-5.9253,-5.914,-5.9024,-2.2948,-1.864,-1.274,-0.5498,0.0,0.5493,1.1775,1.0927,0.8554,0.5824,0.3991,0.3725,0.5708,0.4351,0.2481,0.0625,-0.1305,0.0,-0.8413,0.0,-1.3645,-1.7751,-1.9293,-2.0775,-2.2368,-2.2949,-2.3013,-2.2524,-2.3402,-2.3476,-2.2738,-2.2822,-2.2914,-2.2907,-2.2163,-2.1988,-2.2136,-2.0385,-2.0263,-2.1073,-1.9314,-1.7952,0.0,-1.6566,-1.5645,-1.4371,-1.3244,-1.1863,-1.0203,0.0,-0.6679,-0.5277,0.0,-0.4268,-0.3967,-0.4996,0.0,0.0,0.0,0.0,0.0,0.0,-0.5827,0.0,0.0,0.0,-0.6603,-0.6339,0.0,-0.7062,-0.7573,0.0,0.0,-0.2429,0.0183,0.2836,0.5196,0.6372,0.8245,1.1744,0.6775,0.0649,-0.5438,-2.2024,-3.4617,-4.0008,-4.4017,-4.7294,-4.9726,-5.1616,-5.3316,-5.4764,-5.5025,-5.5576,-5.6473,-5.6495,-5.6523,-5.6571,-5.6582,-5.6579,-5.6503,-5.65,-5.6455,-5.6367,-5.5957,-5.568,-5.5542,-5.5873,-5.5942,-5.6061,-5.7638,-5.8671,-5.9253,-5.9101,-5.9024,-5.8926,-2.4908,-1.9255,-1.3636,-1.0997,-0.5229,-0.0672,0.0289,-0.0766,-0.1174,0.0407,-0.0613,-0.091,0.0549,0.0,0.0,0.0,0.0,-0.6414,0.0,0.0,-1.6457,-2.0239,-2.153,-2.2583,-2.3469,-2.3244,-2.2989,-2.2829,-2.2649,-2.2457,-2.2252,-2.2023,-2.236,-2.3108,-2.1602,-2.1403,-2.2109,-2.0053,-1.9062,-1.8821,-1.8258,-1.6942,-1.5257,-1.5929,-1.4862,-1.3025,-1.2185,-1.0788,-0.9083,0.0,-0.6606,0.0,0.0,0.0,0.0,-0.4772,0.0,0.0,0.0,0.0,0.0,0.0,0.0,0.0,-0.336,0.0,-0.319,0.0,0.0,0.0,0.0,0.0,0.0,0.0,0.0792,0.2693,0.4005,0.4684,0.6726,1.1148,0.3696,-0.6184,-1.7521,-2.8671,-3.6706,-4.0312,-4.3982,-4.6925,-4.8891,-5.0988,-5.2518,-5.3485,-5.4608,-5.5332,-5.5681,-5.6228,-5.6483,-5.6434,-5.6493,-5.653,-5.6503,-5.6417,-5.6355,-5.6274,-5.6054,-5.5782,-5.5468,-5.5497,-5.5589,-5.5717,-5.638,-5.745,-5.8577,-5.8389,-5.8532,-5.8721,-2.5367,0.0,-1.6107,-1.5025,-1.0314,-0.7327,-0.9126,-1.0617,-1.0103,-0.6035,-0.5953,-0.5418,-0.3552,-0.2719,0.0,0.0,-0.5742,-0.8773,0.0,0.0,-1.9231,-2.3064,-2.3657,0.0,0.0,-2.3391,-2.2687,-2.2694,-2.172,-2.1444,-2.1749,-2.1229,-2.1733,-2.2931,-2.1135,-2.1113,-2.2273,-1.9911,-1.8685,-1.8276,-1.806,-1.6661,-1.4703,-1.496,-1.3755,-1.1853,-1.1184,-0.9801,-0.8082,-0.7385,-0.6287,0.0,-0.4489,-0.4438,-0.4422,0.0,0.0,0.0,-0.4558,0.0,0.0,0.0,0.0,0.0,0.0,0.0,0.0,0.0,0.0,0.0,0.0,0.0,0.0,0.0,0.0,0.2007,0.2536,0.3044,0.5031,0.9701,0.2438,-0.809,-2.1194,-2.8813,-3.4294,-3.7469,-4.2684,-4.6521,-4.8433,-5.0178,-5.1543,-5.2495,-5.3787,-5.4529,-5.4646,-5.5508,-5.5899,-5.5801,-5.6124,-5.6283,-5.6278,-5.6097,-5.601,-5.5936,-5.5764,-5.5553,-5.5354,-5.5203,-5.5237,-5.5413,-5.5409,-5.6391,-5.7752,-5.7714,-5.8074,-5.8511,-2.5518,-2.5998,-2.4063,-1.6497,-1.5414,-1.4582,-1.1655,-1.3697,-1.4792,-1.2522,-1.1295,0.0,0.0,0.0,0.0,0.0,0.0,-1.0707,-1.5883,0.0,-2.1527,-2.6453,-2.559,-2.524,0.0,-2.3613,-2.2061,-2.1346,-2.0746,-2.0677,-2.1101,-2.0524,-2.0798,-2.1816,-2.0851,-2.1267,-2.2543,-2.032,-2.0343,-2.158,-1.9063,-1.6976,-1.5162,-1.3124,-1.167,-1.0681,-0.9608,0.0,0.0,-0.6722,-0.5527,0.0,0.0,0.0,0.0,0.0,0.0,0.0,0.0,0.0,0.0,-0.0365,0.0,0.0,0.0,0.0,0.3428,0.0,0.0,0.0,0.0,0.0,0.0,0.0,0.087,0.0,0.0,0.1396,0.3427,0.7707,0.4866,-0.054,-0.8452,-1.9117,-2.6734,-2.9635,-3.9216,-4.6001,-4.8469,-4.9092,-5.0276,-5.2246,-5.2368,-5.2752,-5.3451,-5.4188,-5.4555,-5.4573,-5.5345,-5.573,-5.5734,-5.5434,-5.5314,-5.5297,-5.4844,-5.4779,-5.5002,-5.4948,-5.4847,-5.4741,-5.4871,-5.575,-5.6983,-5.7297,-5.7812,-5.8231,0.0,0.0,-2.6455,-2.3131,-2.3037,-2.3033,-2.1944,-2.4265,-2.3951,0.0,-1.5196,0.0,0.0,-0.5351,-0.4984,0.0,0.0,-1.3531,-1.8408,-2.149,0.0,0.0,0.0,-2.7468,0.0,0.0,-2.3467,-2.1576,-2.0849,-2.0683,-2.1023,-2.0046,-2.0205,-2.1209,-2.039,-2.0437,-2.1186,-2.0424,-2.0,-1.9521,-1.7302,-1.5974,-1.5095,-1.2745,-1.1057,-0.9899,-0.9011,-0.7319,-0.5525,-0.5734,-0.463,-0.3124,-0.3528,-0.3021,-0.2316,-0.2421,-0.2719,-0.2822,0.0,0.0,0.0101,0.096,0.0,0.0,0.0,0.0,0.0,0.0,0.0,0.0,0.0,0.0,0.3931,0.0,0.0,0.0265,0.0,0.0958,0.2684,0.5223,0.0841,-0.5511,-1.3591,-2.1537,-2.7861,-3.1909,-3.8169,-4.2805,-4.5175,-4.7122,-4.8626,-4.962,-5.0856,-5.1587,-5.1739,-5.264,-5.333,-5.3785,-5.4135,-5.458,-5.5077,-5.478,-5.4648,-5.461,-5.4277,-5.4235,-5.4417,-5.4528,-5.4589,-5.4655,-5.4887,-5.5865,-5.7161,-5.7088,-5.7904,-5.9006,-2.718,-2.7412,-2.7545,-2.7094,-2.8269,-2.9396,-2.9795,-3.1756,-3.0412,0.0,-1.9014,0.0,-0.9142,0.0,-0.6816,0.0,-1.1737,-1.6092,-2.0634,-2.3741,0.0,-2.9039,-2.9763,0.0,0.0,-2.6021,-2.4648,-2.2303,-2.1315,-2.0906,-2.1077,-1.9814,-1.97,-2.0519,-1.9744,-1.9722,-2.0196,-1.9925,-1.9428,-1.8559,-1.6168,-1.5002,-1.4465,-1.2063,-1.04,-0.9209,-0.8319,-0.6326,-0.4228,-0.5233,-0.4028,-0.2117,-0.2719,-0.2115,-0.1209,-0.121,-0.1316,-0.1222,-0.0516,0.083,0.0,0.2589,0.4263,0.0,0.5627,0.0,0.6406,0.0,0.0,0.0,0.0,0.0,0.0,0.3633,0.179,0.0438,0.0,0.1306,0.2506,0.3419,0.037,-0.3971,-0.9704,-1.7533,-2.4064,-2.8435,-3.4944,-3.9921,-4.2667,-4.5112,-4.6877,-4.7761,-4.9286,-5.0075,-5.0059,-5.0979,-5.1679,-5.2102,-5.2745,-5.3383,-5.3981,-5.386,-5.3893,-5.4015,-5.368,-5.3677,-5.3992,-5.418,-5.431,-5.4424,-5.457,-5.5384,-5.6553,-5.6934,-5.8039,-5.9362,-2.8288,-2.7926,-2.7951,-2.848,-3.1066,-3.3501,0.0,0.0,-3.3811,0.0,-2.2474,-1.7258,-0.9672,-0.8107,-0.8202,-0.9563,-1.3588,-1.8078,-2.2588,-2.486,0.0,0.0,-3.0513,-2.9659,-2.7868,-2.6992,-2.551,0.0,-2.1962,-2.1274,-2.121,-1.9762,-1.9278,-1.9567,-1.8995,-1.9065,-1.9545,-1.8945,-1.8748,-1.8672,-1.5772,-1.4088,-1.3244,-1.1096,-0.9608,-0.8609,-0.7531,-0.5632,-0.3728,-0.5133,-0.3623,-0.121,-0.151,-0.1008,-0.0202,0.0607,0.0614,0.0727,0.1455,0.2734,0.4011,0.4487,0.5746,0.0,0.0,0.0,0.686,0.0,0.0,0.0,0.0,0.0,0.0,0.3816,0.2109,0.0951,0.1272,0.2532,0.3154,0.2488,0.3435,0.3565,0.2173,-0.7757,-1.5866,-1.9836,-2.9832,-3.7335,-4.0978,-4.3087,-4.5004,-4.6712,-4.7684,-4.828,-4.8577,-4.9288,-4.964,-4.9695,-5.1248,-5.2138,-5.2475,-5.2739,-5.3125,-5.3545,-5.3048,-5.3162,-5.3795,-5.3931,-5.4033,-5.4052,-5.3945,-5.4393,-5.5288,-5.6787,-5.816,-5.9092,-2.9763,-3.0803,-3.1864,-3.2315,-3.3299,-3.4335,0.0,0.0,0.0,0.0,-2.2295,-1.6862,-1.0578,-0.8576,-0.8382,-1.0484,-1.4306,0.0,0.0,0.0,0.0,-3.0052,-3.0869,-3.04,-2.8745,-2.7769,0.0,-2.4067,0.0,-2.1498,-2.084,-1.9371,-1.8519,-1.814,-1.8204,-1.832,-1.8471,-1.8203,-1.74,-1.6243,-1.4441,-1.3301,-1.2446,-0.9895,-0.8513,-0.7816,-0.6933,-0.4931,-0.2924,-0.4531,-0.2922,-0.0504,-0.1309,-0.061,0.0515,0.0722,0.0731,0.0848,0.1612,0.2486,0.3567,0.4397,0.5761,0.6822,0.0,0.0,0.0,0.0,0.0,0.0,0.0,0.0,0.0,0.0,0.0,0.0,0.0,0.0,0.0,0.4935,0.386,0.1244,-0.3479,-1.0121,-1.6393,-2.202,-2.7628,-3.2936,-3.781,-4.0306,-4.2642,-4.4986,-4.6415,-4.7459,-4.8137,-4.8491,-4.8952,-4.954,-5.0039,-5.0885,-5.2103,-5.2016,-5.2443,-5.3267,-5.2993,-5.3078,-5.3391,-5.3646,-5.3737,-5.3754,-5.3955,-5.4448,-5.5136,-5.6145,-5.6841,-5.6966,-3.1421,-3.3101,-3.4654,-3.4972,0.0,-3.4297,-3.4782,-3.4041,0.0,-2.5704,-2.0595,0.0,-1.0532,-0.9149,-0.9482,-1.1585,-1.5466,0.0,-2.3957,0.0,0.0,-2.9998,-3.1021,-3.0573,-2.8382,-2.8063,0.0,-2.433,0.0,0.0,-2.0465,-1.8843,-1.7759,-1.7116,-1.7514,-1.7493,-1.7037,-1.6144,-1.493,-1.3561,-1.2017,-1.1151,0.0,-0.8803,-0.7717,-0.7123,-0.6331,-0.4429,-0.2521,-0.3626,-0.2128,0.0,-0.0306,0.0413,0.126,0.147,0.1807,0.205,0.2181,0.3293,0.4629,0.5294,0.6624,0.7775,0.7638,0.777,0.8014,0.0,0.8161,0.8008,0.0,0.0,0.0,0.0,0.0,0.0,0.0,0.0,0.0,0.7152,0.5857,0.3461,-0.0755,-0.6961,-1.3467,-1.9964,-2.4747,-2.9792,-3.5408,-3.8883,-4.1821,-4.4139,-4.5648,-4.6871,-4.7888,-4.797,-4.8269,-4.8725,-4.9215,-5.0178,-5.1526,-5.1738,-5.2453,-5.3528,-5.3185,-5.3143,-5.3407,-5.3604,-5.355,-5.3436,-5.3668,-5.3408,-5.3014,-5.348,-5.4618,-5.5417,-3.2791,-3.4596,-3.6158,0.0,0.0,0.0,-3.2579,-3.125,0.0,-2.2522,0.0,-1.3591,-0.9888,-0.9778,-1.0861,-1.302,0.0,-2.0945,-2.5128,-2.6963,-2.8482,-2.9654,-3.0617,-2.9976,-2.7429,-2.7636,0.0,0.0,0.0,-2.0985,-2.0014,-1.8262,-1.7064,-1.6346,-1.6864,-1.6493,-1.5271,-1.3529,-1.2168,-1.1146,-0.9391,-0.8609,-0.8506,-0.7713,-0.7036,-0.6556,-0.5756,-0.4145,-0.243,-0.273,-0.1536,0.0208,0.1039,0.1473,0.1817,0.2459,0.2922,0.318,0.2962,0.4429,0.604,0.6371,0.7598,0.8789,0.8767,0.8297,0.8186,0.8949,0.8295,0.8111,0.9462,0.0,0.0,0.0,0.0,0.0,0.0,0.0,0.0,0.0,0.9217,0.0,0.5255,-0.2157,-0.9499,-1.599,-2.2185,-2.8257,-3.4287,-3.8521,-4.1795,-4.4005,-4.5329,-4.6506,-4.7666,-4.7834,-4.7888,-4.7888,-4.8773,-4.9816,-5.1005,-5.1728,-5.2791,-5.4033,-5.3528,-5.3428,-5.3662,-5.3623,-5.3381,-5.312,-5.3242,-5.1993,-5.0185,-5.0068,-5.1678,-5.3294,-3.2438,-3.4189,0.0,0.0,0.0,-2.8697,-2.5145,-2.4265,-2.2455,-1.8089,-1.404,-1.0936,-0.9352,-0.9529,-1.1237,-1.4914,-1.8079,0.0,0.0,0.0,0.0,-2.7752,-2.8449,-2.8194,-2.6749,-2.5579,-2.4469,0.0,-2.175,-2.0368,-1.9081,-1.8034,-1.6886,-1.584,-1.571,-1.4821,-1.323,-1.2129,-1.0943,-0.9797,-0.8407,-0.7813,-0.7713,-0.6429,-0.5992,-0.587,-0.5357,-0.3917,-0.2477,-0.268,-0.1147,0.0848,0.127,0.1608,0.185,0.2395,0.2314,0.2345,0.3457,0.4132,0.4808,0.6586,0.7808,0.8689,0.9216,0.9764,1.0417,1.1281,1.1246,1.1335,1.1944,0.0,0.0,0.0,0.0,0.0,0.0,0.0,0.0,0.0,0.0,1.0941,0.37,-0.3129,-0.9284,-1.4572,-2.2978,-3.0599,-3.6885,-3.9157,-4.1543,-4.4407,-4.5716,-4.6765,-4.7531,-4.8428,-4.885,-4.885,-4.9015,-4.9924,-5.1467,-5.1633,-5.2685,-5.4401,-5.3997,-5.3888,-5.3888,-5.37,-5.318,-5.2552,-5.2874,-5.1613,-4.9533,-4.8553,-4.8098,-4.7667,-3.1858,0.0,0.0,0.0,0.0,-2.3524,-1.8841,-1.5705,-1.373,-1.3205,-1.0606,-0.8574,-0.7874,-0.8971,-1.0888,-1.4012,-1.7662,-2.1083,-2.4145,-2.6401,-2.7611,-2.7592,-2.7382,0.0,-2.568,-2.4461,-2.3563,-2.295,-2.1264,-2.0052,-1.928,-1.8094,-1.6876,-1.5614,-1.3777,-1.2234,-1.097,-0.8757,-0.7537,-0.681,-0.5982,-0.53,-0.4898,-0.4747,-0.4375,-0.4091,-0.4306,-0.3277,-0.181,-0.1685,-0.0212,0.1726,0.2264,0.3054,0.3649,0.3763,0.4007,0.4364,0.5363,0.6243,0.7235,0.8023,0.9669,1.0983,1.0777,1.1647,1.2615,1.3043,1.3573,1.4223,1.4865,1.6021,0.0,0.0,0.0,0.0,0.0,0.0,1.7392,0.0,0.0,0.0,0.0,-0.8104,-1.3889,-1.7408,-2.4194,-3.0968,-3.7298,-3.9962,-4.2464,-4.5052,-4.624,-4.723,-4.7972,-4.879,-4.9196,-4.9196,-4.9277,-5.0177,-5.179,-5.1939,-5.2988,-5.4698,-5.4193,-5.3997,-5.3961,-5.3563,-5.312,-5.2725,-5.3015,-5.1319,-4.8656,-4.7943,-4.6542,-4.4657,-2.9132,-2.9219,0.0,0.0,-2.2116,-1.7107,-1.2401,-0.7507,-0.5269,-0.8063,-0.6987,-0.5957,-0.6177,-0.8082,-1.0416,-1.3102,-1.734,-2.0994,-2.3947,-2.6077,-2.7221,-2.7051,-2.6486,-2.5493,-2.3982,-2.3271,-2.2561,0.0,-2.0362,-1.9459,-1.918,-1.7811,-1.6205,-1.4349,-1.131,-0.9365,-0.8144,-0.501,-0.3856,-0.394,-0.3198,-0.2707,-0.2506,-0.307,-0.2986,-0.2567,-0.3103,-0.2382,-0.1097,-0.054,0.0868,0.2525,0.3294,0.4428,0.5475,0.5148,0.5706,0.6702,0.7578,0.8889,1.0093,1.0441,1.2281,1.3793,1.3161,1.4099,1.5151,1.5163,1.6305,1.7586,1.8119,1.7834,0.0,0.0,0.0,0.0,0.0,0.0,0.0,0.0,0.0,0.0,-0.6404,-1.3057,-1.8432,-2.2226,-2.6668,-3.1796,-3.7791,-4.0663,-4.3092,-4.5221,-4.6494,-4.7426,-4.8037,-4.9053,-4.957,-4.958,-4.9844,-5.0752,-5.2167,-5.2599,-5.3566,-5.4941,-5.4397,-5.4104,-5.3961,-5.3524,-5.3308,-5.3171,-5.3342,-5.1329,-4.8325,-4.7861,-4.6076,-4.3488,-2.165,-2.0733,-1.9134,-1.6722,-1.2689,-0.8604,-0.4875,-0.1191,0.0113,-0.3042,-0.2724,-0.2869,-0.4425,-0.7214,-1.0486,-1.4318,-1.8229,-2.1437,-2.3595,-2.5757,-2.6273,-2.4566,-2.5004,-2.4126,-2.1543,-2.1035,-2.0085,0.0,0.0,-1.8082,-1.7699,-1.6612,-1.4148,-1.0436,-0.8089,-0.6192,-0.4618,-0.1668,-0.1313,-0.2372,-0.0524,-0.0846,-0.2334,-0.1912,-0.204,-0.2505,-0.2069,-0.1653,-0.1007,0.0558,0.2007,0.3125,0.3465,0.4808,0.6149,0.5813,0.6364,0.7467,0.9662,1.0429,1.1185,1.3788,1.5163,1.6001,1.6262,1.7468,1.8683,1.8755,2.0798,2.2279,2.1325,1.6324,1.2052,0.0,0.0,0.0,0.0,0.0,0.0,-0.1773,0.0,0.0,-1.314,-1.4849,-1.9211,-2.8405,-3.158,-3.5248,-4.0236,-4.094,-4.2143,-4.418,-4.5994,-4.695,-4.6944,-4.9292,-5.0451,-5.0404,-5.1133,-5.1924,-5.2755,-5.3582,-5.4422,-5.5229,-5.4806,-5.4378,-5.3997,-5.3944,-5.3796,-5.3623,-5.3668,-5.1803,-4.8983,-4.8168,-4.6563,-4.432,-1.4089,-1.3492,-1.2394,-1.0482,-0.7024,-0.3556,-0.0426,0.245,0.3999,0.3302,0.1497,-0.0233,-0.1994,-0.4563,-0.7362,-1.0189,-1.5404,-1.9264,-2.1003,-2.4442,-2.5697,-2.4141,-2.4063,-2.3278,-2.1735,-2.1309,-2.0543,0.0,0.0,-1.8521,-1.7141,-1.5955,-1.2903,-0.8404,-0.5765,-0.3696,-0.2062,0.0714,0.1147,0.0211,0.107,0.0863,0.0108,-0.0219,-0.011,0.0,-0.0332,0.0,0.0673,0.112,0.2126,0.3244,0.4143,0.5594,0.7146,0.7362,0.8462,0.9889,1.1955,1.3552,1.5022,1.6417,1.8095,1.9442,1.9044,2.0066,2.1204,2.1618,2.343,2.306,1.7153,1.3849,1.0186,0.4503,0.0,0.0,0.0,0.0,0.0,-0.927,0.0,-1.363,-2.2062,-2.3807,-2.6488,-3.1575,-3.3045,-3.5434,-3.9333,-4.1085,-4.2403,-4.34,-4.6189,-4.7469,-4.7033,-4.9489,-5.0715,-5.0689,-5.145,-5.2222,-5.2988,-5.3736,-5.4344,-5.4814,-5.4661,-5.4468,-5.4281,-5.4069,-5.4088,-5.4163,-5.3986,-5.2708,-5.0672,-4.9192,-4.7265,-4.5194,-0.7,-0.6194,-0.5084,-0.3975,-0.133,0.1374,0.3847,0.5855,0.742,0.8216,0.5961,0.3342,0.0925,-0.173,-0.4381,-0.7062,-1.2574,-1.68,-1.8605,-2.2565,-2.4506,-2.3811,-2.3505,0.0,-2.1895,-2.1197,-2.0385,-1.9486,-1.888,-1.7601,-1.5836,-1.4014,-1.0825,-0.6469,-0.394,-0.1996,-0.0205,0.2534,0.3104,0.2255,0.316,0.3184,0.2533,0.2115,0.2014,0.2129,0.2013,0.2014,0.2241,0.2685,0.3352,0.4134,0.4702,0.6591,0.8692,0.9016,1.0752,1.3023,1.4837,1.6839,1.8504,1.9324,2.0985,2.234,2.1601,2.2733,2.3971,2.4159,2.3265,2.0321,1.3787,0.8366,0.2884,-0.3289,0.0,0.0,0.0,-0.9522,0.0,-1.7561,-1.897,-2.1694,-2.7332,-2.9377,-3.1201,-3.3123,-3.4306,-3.6265,-3.925,-4.0999,-4.2314,-4.3239,-4.6205,-4.7606,-4.7226,-4.9684,-5.0918,-5.0889,-5.1928,-5.2705,-5.3221,-5.4103,-5.4613,-5.4795,-5.4795,-5.4784,-5.4723,-5.4476,-5.4554,-5.4803,-5.4744,-5.386,-5.24,-5.0686,-4.8729,-4.6615,-0.0507,0.1552,0.3255,0.3895,0.5397,0.7032,0.8364,0.9791,1.0671,1.0791,1.0647,0.8763,0.4004,0.1108,-0.2112,-0.6228,-1.0695,-1.4452,-1.7031,-2.0255,-2.2324,0.0,0.0,-2.2984,-2.142,-2.0241,-1.8799,-1.7179,0.0,0.0,-1.3176,-1.0232,-0.7259,-0.4397,-0.2962,-0.1148,0.0959,0.3999,0.4354,0.3273,0.6318,0.6251,0.4582,0.5139,0.4357,0.3243,0.4803,0.4357,0.3354,0.5479,0.6251,0.6019,0.5148,0.7692,1.0996,1.0651,1.3214,1.6609,1.8483,1.9736,2.0867,2.2733,2.3845,2.4356,2.4079,2.5654,2.704,2.6592,1.9646,1.3562,1.2988,-0.108,-1.2606,-1.2726,0.0,0.0,0.0,-2.7481,0.0,-2.7039,-2.744,-2.755,-2.7032,-2.8902,-3.0942,-3.2964,-3.5915,-3.8673,-4.1033,-4.07,-4.1487,-4.3823,-4.5781,-4.6964,-4.7291,-4.99,-5.1164,-5.1113,-5.2843,-5.358,-5.3462,-5.4978,-5.5618,-5.548,-5.548,-5.5408,-5.5281,-5.5281,-5.535,-5.5531,-5.5987,-5.531,-5.3927,-5.2803,-5.0989,-4.8839,0.5935,0.6779,0.752,0.7633,0.8147,0.8957,0.9915,1.104,1.1886,1.2192,1.2232,1.1411,0.9191,0.4981,0.0889,0.0,-0.7502,-1.1726,0.0,-1.8981,-2.1509,-2.2309,-2.3841,-2.4006,-2.2758,-2.1642,-1.9922,-1.7235,-1.5481,-1.2588,-0.8571,-0.6106,-0.4002,-0.2089,-0.0319,0.0862,0.1628,0.4735,0.5324,0.4445,0.6689,0.6862,0.5914,0.6028,0.5952,0.566,0.6577,0.7026,0.7467,0.8934,1.028,1.1492,1.263,1.1959,1.1084,1.3004,1.5423,1.8233,2.095,2.3072,2.4704,2.5643,2.6461,2.6979,2.634,2.6744,2.7051,2.6592,1.9636,1.1644,0.5269,-0.5214,-1.4936,-2.1254,-2.4859,0.0,-2.7255,0.0,-2.9043,-2.8885,-2.9306,-2.9522,-2.9359,-3.0895,-3.2203,-3.2917,-3.637,-3.9122,-4.0581,-4.1764,-4.2819,-4.3795,-4.6162,-4.7622,-4.8063,-5.0098,-5.116,-5.1262,-5.3,-5.4325,-5.5268,-5.5765,-5.5788,-5.5516,-5.5516,-5.5418,-5.5307,-5.5307,-5.5369,-5.5554,-5.6324,-5.6369,-5.5801,-5.4259,-5.2898,-5.1425,0.8731,0.9466,1.0297,1.0613,1.0967,1.1498,1.2531,1.3391,1.4195,1.4482,1.404,1.3388,1.2611,0.8423,0.4223,0.0556,-0.4457,-0.8957,-1.2611,-1.7095,-2.0347,-2.2193,-2.3716,-2.4162,-2.3178,-2.1498,-1.9384,-1.6642,-1.3113,-0.9503,-0.5819,-0.3645,-0.2043,-0.0869,0.0768,0.1764,0.2428,0.5266,0.6315,0.6205,0.7939,0.8351,0.7973,0.7973,0.7673,0.7275,0.8314,0.9221,1.0333,1.2716,1.4806,1.6879,1.9459,1.8855,1.7388,1.8178,2.0395,2.3038,2.5004,2.6798,2.8019,2.7923,2.8204,2.8423,2.7704,2.7326,2.7051,2.6592,1.9505,1.0585,0.1649,-0.7096,-1.5883,-2.4876,-2.6696,-2.7103,-2.7557,-2.8846,-2.9669,-2.9387,-3.0042,-3.0417,-3.0276,-3.2179,-3.3793,-3.4759,-3.7952,-4.0391,-4.169,-4.3016,-4.4051,-4.4725,-4.6927,-4.8353,-4.8845,-5.0311,-5.1314,-5.1815,-5.3535,-5.4982,-5.6173,-5.6116,-5.5965,-5.573,-5.573,-5.5649,-5.5512,-5.5561,-5.5649,-5.5808,-5.6676,-5.6917,-5.6614,-5.5447,-5.4205,-5.2826,0.8676,1.0249,1.19,1.2861,1.3546,1.4483,1.5678,1.6605,1.7028,1.6922,1.5755,1.4685,1.403,1.1206,0.7572,0.3346,-0.1665,-0.6125,-1.0132,-1.468,-1.8794,-2.208,-2.3161,-2.3367,-2.2893,-2.0121,-1.7436,-1.4901,-0.8991,-0.5577,-0.4487,-0.2427,-0.0884,-0.0112,0.0784,0.2014,0.3475,0.603,0.7439,0.824,0.9767,1.0424,1.0435,1.0316,0.9391,0.8239,0.9754,1.0874,1.227,1.6587,1.9561,2.21,2.5614,2.7627,2.8295,2.5662,2.7221,2.9899,3.0045,3.0593,3.079,2.9653,2.9161,2.8746,2.7893,2.7421,2.6771,2.5795,1.8317,0.9329,0.0721,-0.8035,-1.6526,-2.4501,-2.6528,-2.7267,-2.7718,-2.9238,-2.9958,-2.8954,-2.9968,-3.0581,-3.0283,-3.291,-3.5535,-3.7752,-4.0224,-4.23,-4.3794,-4.44,-4.5221,-4.634,-4.7962,-4.9075,-4.9687,-5.0603,-5.1651,-5.2803,-5.4351,-5.5525,-5.6308,-5.6188,-5.6132,-5.6112,-5.6117,-5.604,-5.5921,-5.604,-5.6102,-5.6194,-5.7067,-5.7042,-5.6491,-5.629,-5.5091,-5.3341,1.0814,1.2229,1.3392,1.3537,1.4622,1.5386,1.5232,1.6287,1.6711,1.5648,1.4787,1.403,1.3285,1.055,0.7838,0.5669,0.1791,-0.2552,-0.7558,-1.1713,-1.5802,-1.9927,-2.2209,-2.3356,-2.321,-2.0093,-1.5424,-0.9034,-0.5344,-0.2747,-0.1394,0.0914,0.2158,0.2394,0.387,0.5004,0.5917,0.7749,0.8842,0.9641,1.1413,1.1765,1.1196,1.0696,0.9829,0.8982,0.9463,1.1879,1.5691,2.0281,2.4298,2.8076,3.2274,3.3978,3.3893,3.0555,3.0274,3.1402,3.2992,3.2771,3.2055,3.1763,2.9785,2.741,2.5421,2.5373,2.3918,1.7471,0.8822,0.0005,-0.7986,-1.7053,-2.3888,-2.5607,-2.6444,-2.7076,-2.7637,-2.8821,-2.9783,-3.0211,-3.0924,-3.1382,-3.1468,-3.4042,-3.6099,-3.7066,-4.0239,-4.2323,-4.2751,-4.5227,-4.6833,-4.7277,-4.8267,-4.936,-5.0499,-5.1451,-5.279,-5.4502,-5.4919,-5.5581,-5.6444,-5.6407,-5.6359,-5.6251,-5.6258,-5.6185,-5.6056,-5.6101,-5.616,-5.6343,-5.7198,-5.7237,-5.6761,-5.6341,-5.571,-5.486,1.0612,1.2032,1.3441,1.4175,1.5221,1.6074,1.6505,1.6817,1.6817,1.6074,1.4567,1.3388,1.2965,1.0221,0.785,0.6386,0.2941,-0.1238,-0.6221,-1.0196,-1.4314,-1.8823,-2.1023,-2.1994,-2.168,-1.8786,-1.3517,-0.559,-0.2915,-0.0467,0.1872,0.4287,0.565,0.5992,0.7704,0.8847,0.9546,1.0882,1.1889,1.2472,1.3621,1.3737,1.3254,1.2171,0.8135,0.3196,0.2678,0.1383,0.1873,1.3502,1.9462,2.4033,3.5516,3.4908,3.0742,3.4315,3.4879,3.4348,3.4445,3.3651,3.2427,3.093,2.8663,2.6329,2.4709,2.4631,2.2634,1.4538,0.8952,0.1872,-0.9907,-1.6255,-2.0992,-2.489,-2.5911,-2.6451,-2.7302,-2.8438,-2.9539,-3.069,-3.1356,-3.2225,-3.3532,-3.5763,-3.7687,-3.8939,-4.178,-4.35,-4.3572,-4.621,-4.7685,-4.76,-4.8876,-5.0134,-5.1391,-5.2771,-5.3999,-5.5061,-5.5543,-5.6054,-5.6543,-5.6504,-5.6449,-5.6386,-5.6388,-5.6329,-5.6199,-5.6265,-5.6291,-5.6348,-5.6892,-5.68,-5.6307,-5.6025,-5.5417,-5.4544,0.992,1.1325,1.3083,1.4691,1.5648,1.6605,1.7996,1.7569,1.7028,1.6817,1.446,1.2748,1.2531,1.0029,0.7771,0.6298,0.3215,-0.0692,-0.5228,-0.902,-1.3202,-1.7911,-1.9326,-1.9682,-1.9219,-1.6175,-1.0871,-0.3101,-0.0835,0.2015,0.5391,0.7936,0.9432,1.0119,1.1837,1.288,1.3383,1.4431,1.5241,1.5952,1.6681,1.7177,1.7031,1.3136,0.5645,-0.3193,-0.7086,-1.1403,-1.2489,0.4897,1.3753,2.0511,3.7491,3.4579,2.6878,3.6943,3.8564,3.6695,3.4858,3.3517,3.183,2.8459,2.6618,2.512,2.2999,2.2537,1.9913,1.1013,0.9096,0.4368,-1.0811,-1.3702,-1.6217,-2.3767,-2.5403,-2.599,-2.6917,-2.8051,-2.9378,-3.0953,-3.1588,-3.298,-3.5629,-3.745,-3.939,-4.156,-4.3625,-4.495,-4.5305,-4.7168,-4.8096,-4.7743,-4.9595,-5.1197,-5.2489,-5.4158,-5.5061,-5.5213,-5.6138,-5.6581,-5.6582,-5.6543,-5.6511,-5.6503,-5.6503,-5.6437,-5.6341,-5.6464,-5.6426,-5.6333,-5.6417,-5.6162,-5.5672,-5.5504,-5.483,-5.3882,1.1232,1.2446,1.383,1.4793,1.6074,1.714,1.7681,1.7358,1.6711,1.5435,1.3496,1.1878,1.1126,0.9143,0.7461,0.6425,0.4262,0.083,-0.3862,-0.6401,-0.9853,-1.4729,-1.6328,-1.703,-1.6955,-1.14,-0.5633,0.0477,0.3213,0.6206,0.9387,1.1745,1.3298,1.3854,1.5036,1.5532,1.5697,1.664,1.7444,1.857,2.2032,2.4545,2.4522,0.9851,0.3793,0.0977,-1.5546,-1.0894,0.3831,0.959,2.2697,3.7274,4.1506,3.9989,3.6824,3.7306,3.5987,3.4402,3.4738,3.2571,2.9353,2.5378,2.465,2.2751,1.49,1.3119,0.9121,-0.498,-0.8428,-1.1698,-2.0792,-2.3124,-2.3817,-2.4441,-2.5664,-2.6628,-2.6622,-2.7891,-2.9514,-3.1486,-3.2262,-3.3555,-3.5911,-3.7846,-3.9999,-4.25,-4.3973,-4.5327,-4.6709,-4.7841,-4.8426,-4.8348,-5.0364,-5.2333,-5.4274,-5.4696,-5.5352,-5.6173,-5.6342,-5.6462,-5.6523,-5.6562,-5.6556,-5.6503,-5.6561,-5.6533,-5.6474,-5.6559,-5.654,-5.6464,-5.6367,-5.6063,-5.5614,-5.4981,-5.5028,-5.5126,1.0961,1.2105,1.3295,1.4153,1.5441,1.6511,1.6829,1.6399,1.5755,1.5114,1.3068,1.1489,1.0826,0.9216,0.7858,0.6877,0.5737,0.3712,0.0358,-0.3822,-0.7638,-1.118,-1.2947,-1.2915,-1.0977,-0.7108,-0.1782,0.5025,0.7514,1.0863,1.4784,1.6893,1.823,1.8925,1.9878,2.004,1.9635,2.087,2.2573,2.399,1.6449,1.5314,1.6098,-0.2871,-1.3334,-1.7958,-1.8148,-1.6033,-1.0165,0.9517,2.1308,2.9306,3.8102,3.4534,2.8119,3.3293,3.3244,3.1479,3.1186,2.9693,2.6413,1.865,1.7133,1.471,0.3868,0.2136,-0.0687,-1.3047,-1.479,-1.6591,-2.4854,-2.6605,-2.6731,-2.6571,-2.6998,-2.747,-2.7612,-2.8524,-2.9782,-3.1202,-3.2698,-3.4534,-3.685,-3.8912,-4.095,-4.2905,-4.4638,-4.6007,-4.6928,-4.818,-4.8945,-4.9051,-5.119,-5.3086,-5.4628,-5.5269,-5.5835,-5.6297,-5.6367,-5.6446,-5.6504,-5.6522,-5.6542,-5.6552,-5.6581,-5.658,-5.655,-5.6581,-5.6558,-5.6489,-5.6347,-5.6052,-5.5614,-5.4867,-5.4514,-5.4082,1.028,1.1236,1.2327,1.3295,1.4482,1.5339,1.5867,1.5227,1.4713,1.4769,1.294,1.1603,1.123,0.9909,0.8749,0.8127,0.7795,0.698,0.5454,0.0848,-0.3396,-0.7047,-0.8747,-0.7999,-0.4468,-0.2297,0.2287,0.9489,1.1955,1.5494,2.006,2.1759,2.2911,2.3628,2.4344,2.4156,2.3318,2.1148,2.1731,2.2746,0.6641,0.2492,0.3759,-1.5885,-2.5615,-2.7696,-1.9849,-1.7737,-1.4877,1.0271,1.9977,2.3356,3.4244,2.9387,2.1364,2.9948,2.9095,2.513,2.4288,2.1951,1.7622,0.889,0.6918,0.4147,-0.7152,-0.8801,-1.0621,-2.0078,-2.0473,-2.1086,-2.7597,-2.8648,-2.8611,-2.8723,-2.8769,-2.8952,-2.9152,-2.9878,-3.0691,-3.1588,-3.3513,-3.561,-3.7796,-3.9971,-4.1797,-4.3276,-4.5294,-4.665,-4.7085,-4.8463,-4.9496,-5.0193,-5.205,-5.3648,-5.49,-5.5791,-5.6218,-5.6218,-5.6343,-5.6437,-5.6488,-5.6495,-5.6541,-5.6601,-5.6602,-5.6581,-5.658,-5.6561,-5.6514,-5.6432,-5.6239,-5.5937,-5.5572,-5.4952,-5.4037,-5.2808,0.9393,1.0245,1.1236,1.2748,1.3073,1.3609,1.49,1.4369,1.3914,1.4025,1.2841,1.192,1.2104,1.0868,1.0369,1.1087,1.0465,1.0278,1.0982,0.9707,0.5497,-0.2055,-0.3151,-0.2059,0.133,0.3869,0.7834,1.3457,1.6582,2.0054,2.3809,2.5283,2.6308,2.6985,2.6985,2.6661,2.5235,1.2523,0.7372,0.6779,-0.5092,-0.8069,-0.7231,-2.3967,-1.9402,-0.6222,-2.2999,-0.9536,1.6123,1.5565,2.4531,3.562,3.3699,3.1091,2.9147,3.0831,2.2177,1.2282,1.2877,0.5744,-0.242,-0.4607,-0.5578,-0.8202,-1.6577,-1.8806,-2.1431,-2.9622,-3.1241,-3.1239,-3.134,-3.1347,-3.1113,-3.0154,-3.0854,-3.1354,-3.0966,-3.1813,-3.2856,-3.3807,-3.5146,-3.6693,-3.8473,-4.0603,-4.2453,-4.3755,-4.5641,-4.6962,-4.7696,-4.8674,-5.0153,-5.2308,-5.2905,-5.4053,-5.5879,-5.6151,-5.6278,-5.6278,-5.6369,-5.6401,-5.6411,-5.6477,-5.6543,-5.6601,-5.6601,-5.6559,-5.6504,-5.6455,-5.6379,-5.6291,-5.5902,-5.5669,-5.5489,-5.5192,-5.4069,-5.2414,0.8742,0.965,1.0578,1.1341,1.2309,1.3171,1.3609,1.3847,1.3868,1.3961,1.3204,1.2794,1.31,1.3606,1.4129,1.4717,1.5676,1.657,1.7196,1.6915,1.3004,0.4609,0.3409,0.417,0.696,0.8485,1.1997,1.7512,2.0519,2.3788,2.728,2.8445,2.9499,3.0674,3.1733,3.243,3.1829,1.6397,1.1547,1.1752,-1.5704,-2.4551,-2.1915,-2.7573,-2.5745,-1.8104,-0.2763,0.9186,1.8899,2.65,3.1536,3.3887,3.0556,2.9392,2.8018,2.1184,0.5282,-1.0098,-0.986,-0.8462,-0.8682,-1.5498,-1.6969,-1.9407,-2.9522,-3.1061,-3.1485,-3.5531,-3.4854,-3.3525,-3.3796,-3.3257,-3.2871,-3.3045,-3.2751,-3.237,-3.2086,-3.2521,-3.3099,-3.3673,-3.5659,-3.7721,-3.9526,-4.1283,-4.286,-4.4305,-4.586,-4.7024,-4.7769,-4.951,-5.1212,-5.2747,-5.3667,-5.474,-5.5993,-5.6204,-5.6291,-5.6291,-5.6369,-5.6388,-5.6401,-5.648,-5.6542,-5.6601,-5.6556,-5.65,-5.643,-5.6285,-5.6151,-5.6016,-5.5701,-5.57,-5.5701,-5.4204,-5.2808,-5.1097,0.7506,0.8901,1.0077,1.0524,1.1572,1.2407,1.2526,1.3206,1.3669,1.3735,1.371,1.3914,1.4797,1.6172,1.7467,1.8646,2.0373,2.176,2.2666,2.302,1.9746,1.178,1.0225,1.0446,1.2631,1.3591,1.6381,2.1237,2.3865,2.6893,3.0279,3.1397,3.2871,3.44,3.6394,3.7891,3.7526,1.576,1.2122,1.7811,-1.8876,-2.8258,-2.0282,-2.0088,-1.7941,-1.1847,1.2597,2.1941,2.415,3.2923,3.3845,3.0587,2.7278,2.439,1.9929,0.874,-0.8718,-2.5304,-2.9367,-2.5485,-2.1695,-2.7611,-2.8763,-3.0453,-3.8427,-3.8935,-3.8055,-3.9386,-3.7521,-3.5735,-3.6146,-3.5583,-3.5105,-3.5417,-3.4638,-3.391,-3.3632,-3.3701,-3.3852,-3.4124,-3.6275,-3.8325,-3.9878,-4.1741,-4.3512,-4.509,-4.657,-4.7898,-4.9048,-5.108,-5.2551,-5.3264,-5.4477,-5.5412,-5.6016,-5.6209,-5.6311,-5.633,-5.6369,-5.6408,-5.6421,-5.6489,-5.6502,-5.6537,-5.6465,-5.6391,-5.629,-5.6096,-5.5961,-5.5806,-5.5451,-5.5369,-5.5254,-5.3034,-5.1146,-4.9108,0.5635,0.7624,0.9613,1.0185,1.0626,1.1077,1.1755,1.2427,1.2843,1.3041,1.4164,1.5516,1.7089,1.8178,2.0002,2.3015,2.3809,2.5093,2.6967,2.8201,2.5915,1.9266,1.708,1.6875,1.8429,1.9401,2.142,2.4488,2.669,2.9424,3.2695,3.438,3.6331,3.839,4.0465,4.2367,4.1558,0.8099,0.5969,2.2053,-1.3151,-1.5758,0.1325,0.0057,0.8542,2.0807,1.8733,2.6037,3.6245,3.3173,3.0248,2.7365,2.4523,1.5919,0.4826,-0.5553,-1.7728,-3.0554,-4.3138,-4.5991,-4.4644,-4.1535,-4.0953,-4.1349,-4.2024,-4.1253,-4.046,-4.1127,-4.0215,-3.9115,-3.8532,-3.8423,-3.803,-3.6809,-3.6605,-3.6402,-3.5818,-3.5737,-3.5737,-3.5723,-3.7141,-3.8443,-3.9354,-4.1932,-4.4327,-4.6268,-4.7982,-4.9838,-5.1876,-5.3415,-5.4207,-5.4207,-5.5384,-5.6035,-5.6096,-5.6233,-5.633,-5.6388,-5.6388,-5.6427,-5.6511,-5.6509,-5.6465,-5.6402,-5.6329,-5.622,-5.6091,-5.5961,-5.5822,-5.5649,-5.5107,-5.4599,-5.3902,-5.1741,-4.9127,-4.6219,0.6805,0.8694,1.0446,1.0902,1.1309,1.1686,1.2043,1.3197,1.4071,1.4285,1.5665,1.7113,1.8339,2.0921,2.3158,2.476,2.7219,2.9569,3.1302,3.2359,3.1513,2.8607,2.4822,2.3067,2.3346,2.3398,2.4468,2.6854,2.906,3.1986,3.5577,3.7436,3.9935,4.2954,4.5878,4.8542,4.9317,2.7189,2.1679,2.5658,0.0757,-0.6285,-0.0541,1.1598,1.7246,2.0172,3.1876,3.604,3.562,3.1906,2.921,2.7132,2.6799,1.2117,-0.5252,-0.6977,-2.2704,-4.0607,-4.5532,-4.6707,-4.6197,-4.468,-4.3693,-4.3046,-4.2772,-4.1774,-4.0845,-4.0198,-3.9435,-3.8706,-3.8604,-3.7887,-3.7387,-3.7391,-3.6718,-3.6214,-3.6042,-3.6298,-3.6888,-3.7742,-3.9046,-4.0709,-4.2758,-4.4479,-4.6215,-4.8093,-4.9585,-5.0933,-5.2069,-5.3261,-5.3983,-5.4125,-5.5345,-5.6035,-5.6096,-5.6272,-5.6369,-5.6388,-5.6447,-5.6485,-5.6494,-5.6406,-5.6396,-5.6453,-5.6246,-5.6141,-5.6072,-5.5866,-5.564,-5.5364,-5.4689,-5.3676,-5.2269,-4.9502,-4.633,-4.3041,0.703,0.931,1.1209,1.1455,1.1872,1.2245,1.2809,1.4093,1.5172,1.5654,1.7274,1.8945,2.0415,2.3079,2.548,2.7446,3.0729,3.3402,3.4708,3.5568,3.5493,3.4659,3.1584,2.9025,2.7193,2.6662,2.7476,2.9676,3.1636,3.486,3.8969,4.1063,4.3901,4.7558,5.0317,5.2901,5.3997,3.5988,3.3296,3.9269,1.8199,1.3581,2.0385,3.009,3.1241,2.8893,3.8485,3.8703,3.4085,3.0692,2.7595,2.5269,2.6315,1.2723,-0.4228,-0.6553,-2.164,-3.8877,-4.4697,-4.595,-4.5524,-4.5475,-4.4939,-4.4281,-4.3718,-4.2503,-4.1279,-4.0406,-3.951,-3.8787,-3.8666,-3.8026,-3.7516,-3.7368,-3.6849,-3.6371,-3.6397,-3.6658,-3.7402,-3.8749,-4.0115,-4.1827,-4.4184,-4.5965,-4.7998,-5.0373,-5.1693,-5.269,-5.3328,-5.4028,-5.4479,-5.4623,-5.5518,-5.6033,-5.6133,-5.6311,-5.6407,-5.6444,-5.6483,-5.6509,-5.6503,-5.6363,-5.6321,-5.6329,-5.6121,-5.5958,-5.5846,-5.5686,-5.523,-5.4527,-5.3357,-5.1822,-4.9854,-4.6202,-4.305,-4.0363,0.6865,0.9674,1.1877,1.1997,1.2324,1.2908,1.3723,1.5103,1.6253,1.7183,1.8902,2.0902,2.3119,2.4786,2.7163,3.0263,3.3883,3.639,3.7168,3.7835,3.8101,3.8007,3.7133,3.4869,3.0866,3.0004,3.078,3.3183,3.4989,3.814,4.2726,4.5011,4.8073,5.168,5.3532,5.5464,5.6103,3.8726,4.2187,5.7489,3.7435,3.9083,5.3278,5.0373,4.6651,4.26,3.998,3.6325,3.2189,2.9507,2.5716,2.2466,2.4224,1.6017,0.4161,-0.3786,-1.5236,-2.7961,-4.0017,-4.2484,-4.2103,-4.4021,-4.4649,-4.4723,-4.4404,-4.3081,-4.167,-4.1212,-4.0055,-3.9038,-3.8498,-3.8408,-3.8041,-3.6845,-3.6754,-3.6854,-3.6783,-3.6964,-3.7623,-3.9148,-4.0698,-4.2402,-4.4313,-4.6885,-4.9718,-5.2816,-5.3927,-5.4635,-5.5075,-5.5288,-5.5408,-5.5408,-5.5788,-5.607,-5.6205,-5.6329,-5.6441,-5.65,-5.65,-5.6502,-5.647,-5.6347,-5.6228,-5.6089,-5.5941,-5.5748,-5.5485,-5.5399,-5.4543,-5.3107,-5.1351,-4.9179,-4.6629,-4.2336,-3.9693,-3.783,0.7967,1.0283,1.2118,1.3084,1.3858,1.4356,1.477,1.6611,1.804,1.8487,2.0858,2.2846,2.3287,2.6118,2.8369,2.9597,3.4155,3.6975,3.7086,3.9315,4.0109,3.8963,3.9599,3.9677,3.8805,3.6614,3.6555,3.8974,4.0715,4.3499,4.74,4.8795,5.0741,5.3188,5.45,5.5722,5.6538,5.3019,5.3479,5.6081,5.0637,4.9453,5.0719,4.7762,4.4694,4.179,3.988,3.6752,3.2901,2.8208,2.4648,2.2341,2.4001,1.5722,0.5316,0.5419,-0.3431,-1.5594,-2.6311,-2.8779,-3.0486,-3.9348,-4.1554,-4.1764,-4.2319,-4.1966,-4.0983,-3.9489,-3.8989,-3.8461,-3.7348,-3.6777,-3.6163,-3.535,-3.573,-3.6269,-3.6698,-3.8047,-3.9454,-4.0715,-4.2559,-4.4471,-4.6285,-4.975,-5.249,-5.3883,-5.4583,-5.5028,-5.516,-5.532,-5.5408,-5.5408,-5.5788,-5.607,-5.6205,-5.6329,-5.6456,-5.6589,-5.6589,-5.6508,-5.6336,-5.6194,-5.6117,-5.6075,-5.5847,-5.5605,-5.5289,-5.46,-5.2935,-5.0651,-4.9268,-4.6,-4.182,-3.9882,-3.714,-3.4205,0.674,0.9306,1.1261,1.1985,1.3456,1.4606,1.5192,1.7438,1.9368,1.9869,2.2281,2.4086,2.4846,2.7112,2.9419,3.1614,3.505,3.7532,3.8392,4.0211,4.1058,4.0617,4.1741,4.2802,4.3435,4.3484,4.3616,4.3616,4.5379,4.7667,5.0624,5.1246,5.2486,5.4223,5.42,5.47,5.5508,5.5736,5.5241,5.4297,5.329,5.1239,4.8426,4.5947,4.3513,4.1214,3.8693,3.4725,2.9957,2.5918,2.3296,2.1594,2.1783,1.8492,1.3609,0.962,0.4412,-0.2394,-1.3344,-1.6432,-1.894,-2.8871,-3.1639,-3.3609,-3.9834,-4.0802,-4.0092,-3.8957,-3.7991,-3.6951,-3.6068,-3.539,-3.4727,-3.4068,-3.486,-3.5833,-3.6564,-3.8211,-3.9826,-4.1365,-4.3512,-4.5949,-4.8873,-5.1497,-5.3422,-5.4503,-5.4905,-5.5164,-5.5317,-5.5394,-5.5408,-5.5408,-5.5788,-5.607,-5.6205,-5.6329,-5.6456,-5.6543,-5.6547,-5.6456,-5.6297,-5.616,-5.6026,-5.59,-5.5564,-5.4962,-5.4137,-5.2456,-5.007,-4.7323,-4.5017,-4.1728,-3.821,-3.6653,-3.4372,-3.1988,0.4163,0.7342,0.9788,1.003,1.2324,1.4495,1.5548,1.8021,2.0127,2.106,2.2974,2.4863,2.6164,2.795,3.0346,3.3832,3.6003,3.774,3.9431,4.063,4.1558,4.2164,4.3733,4.5368,4.6825,5.0041,5.0527,4.8072,4.9522,5.1159,5.2986,5.2792,5.3313,5.4285,5.3222,5.3171,5.3811,5.3501,5.3051,5.242,5.1487,4.9426,4.6688,4.4613,4.2436,4.0262,3.6967,3.1734,2.6152,2.3855,2.1923,2.0469,1.9559,2.1434,2.2061,1.2857,1.1274,1.0007,-0.1537,-0.5149,-0.7869,-1.7044,-1.9732,-2.3095,-3.4285,-3.7783,-3.8541,-3.7834,-3.6438,-3.5112,-3.4364,-3.3801,-3.3342,-3.2889,-3.3883,-3.5054,-3.6188,-3.7743,-3.9434,-4.1489,-4.4097,-4.7259,-5.1099,-5.2485,-5.3681,-5.4838,-5.5126,-5.5345,-5.5585,-5.5489,-5.5456,-5.548,-5.5827,-5.6089,-5.6203,-5.6347,-5.6438,-5.6474,-5.6491,-5.6427,-5.6302,-5.616,-5.5952,-5.567,-5.5142,-5.3968,-5.2235,-4.9579,-4.6422,-4.2922,-3.99,-3.7108,-3.4597,-3.313,-3.1747,-3.0772,0.0731,0.451,0.7691,0.8772,1.1811,1.4614,1.6155,1.8377,2.0127,2.106,2.2974,2.4659,2.567,2.8574,3.1178,3.3123,3.5304,3.6755,3.7465,3.9905,4.1657,4.2319,4.5903,4.8711,5.0553,5.4424,5.5436,5.3285,5.3585,5.3934,5.4373,5.3494,5.2667,5.1988,5.1927,5.1977,5.2103,5.232,5.1661,5.055,5.0317,4.8507,4.5706,4.3379,4.0633,3.7718,3.5031,2.993,2.4428,2.3746,2.1308,1.8676,2.0335,2.0963,2.1007,2.0244,2.0653,1.8833,0.7762,0.4657,0.1939,-0.9034,-1.1162,-1.2599,-2.0405,-2.9083,-3.4929,-3.3099,-3.3093,-3.2853,-3.0922,-3.11,-3.1472,-3.1187,-3.188,-3.3066,-3.4739,-3.6675,-3.8733,-4.1028,-4.5223,-4.895,-5.1589,-5.3059,-5.4182,-5.4924,-5.5481,-5.5827,-5.594,-5.5767,-5.5724,-5.5826,-5.6001,-5.613,-5.6211,-5.6395,-5.6464,-5.6419,-5.6465,-5.6427,-5.6302,-5.616,-5.5952,-5.5651,-5.459,-5.2494,-4.9609,-4.6503,-4.1888,-3.6665,-3.5494,-3.276,-2.9496,-3.0103,-3.0157,-3.0049,-0.2681,0.1464,0.5136,0.6708,1.0112,1.3283,1.4966,1.7554,1.9543,2.0357,2.2402,2.4531,2.6391,3.0046,3.2727,3.3738,3.5848,3.7357,3.8182,4.0211,4.2128,4.391,4.7497,5.0702,5.3496,5.6282,5.7088,5.5816,5.5483,5.5023,5.4339,5.2602,5.1525,5.1096,5.0615,5.0493,5.0663,5.0615,5.0073,4.9325,4.9278,4.7728,4.513,4.3013,4.032,3.692,3.2169,2.6807,2.2157,2.2673,2.069,1.8291,1.9826,1.9947,1.9801,2.015,2.0763,2.0334,1.5719,1.4371,1.2354,0.381,0.164,-0.1317,-1.2543,-1.9164,-2.4273,-2.9096,-3.0108,-2.9974,-2.9401,-2.8916,-2.884,-2.9743,-3.103,-3.2598,-3.4376,-3.7101,-4.035,-4.4108,-4.7144,-4.9913,-5.2353,-5.3533,-5.4505,-5.5316,-5.573,-5.5995,-5.6059,-5.5885,-5.5866,-5.5941,-5.6057,-5.6162,-5.6253,-5.6416,-5.6493,-5.6518,-5.643,-5.6364,-5.6302,-5.6083,-5.5673,-5.4995,-5.2473,-4.9585,-4.6262,-4.1222,-3.6449,-3.2126,-3.0214,-2.8761,-2.7703,-2.8691,-2.9185,-2.945]}]]